[[{"header":{"parameterUnit":"m.s-1","parameterCategory":1,"la1":30.6,"la2":29.2853,"lo1":-89.7004,"lo2":-87.6739,"dy":0.0162,"dx":0.0183,"nx":112,"ny":82,"refTime":"2026-05-09T12:00:00:Z","depth":0,"parameterNumber":2,"parameterNumberName":"U-component_of_WINDS"},"data":[0.0,0.0,0.0,0.0,0.0,0.0,0.0,0.0,0.0,0.0,0.0,0.0,0.0,0.0,0.0,0.0,0.0,0.0,0.0,0.0,0.0,0.0,0.0,0.0,0.0,0.0,0.0,0.0,0.0,0.0,0.0,0.0,0.0,0.0,0.0,0.0,0.0,0.0,0.0,0.0,0.0,0.0,0.0,0.0,0.0,0.0,0.0,0.0,0.0,0.0,0.0,0.0,0.0,0.0,0.0,0.0,0.0,0.0,0.0,0.0,0.0,0.0,0.0,0.0,0.0,0.0,0.0,0.0,0.0,0.0,0.0,0.0,0.0,0.0,0.0,0.0,0.0,0.0,0.0,0.0,0.0,0.0,0.0,0.0,0.0,0.0,0.0,0.0,0.0,0.0,1.7617,1.6581,1.5753,1.5236,1.5164,1.5152,1.5052,1.4794,0.0,0.0,0.0,0.0,0.0,0.0,0.0,0.0,0.0,0.0,0.0,0.0,0.0,0.0,0.0,0.0,0.0,0.0,0.0,0.0,0.0,0.0,0.0,0.0,0.0,0.0,0.0,0.0,0.0,0.0,0.0,0.0,0.0,0.0,0.0,0.0,0.0,0.0,0.0,0.0,0.0,0.0,0.0,0.0,0.0,0.0,0.0,0.0,0.0,0.0,0.0,0.0,0.0,0.0,0.0,0.0,0.0,0.0,0.0,0.0,0.0,0.0,0.0,0.0,0.0,0.0,0.0,0.0,0.0,0.0,0.0,0.0,0.0,0.0,0.0,0.0,0.0,0.0,0.0,0.0,0.0,0.0,0.0,0.0,0.0,0.0,0.0,0.0,0.0,0.0,0.0,0.0,0.0,0.0,0.0,0.0,0.0,0.0,0.0,0.0,0.0,0.0,0.0,0.0,1.7363,1.5687,1.5275,1.5097,1.5037,1.5533,1.5526,1.4755,0.0,0.0,0.0,0.0,0.0,0.0,0.0,0.0,0.0,0.0,0.0,0.0,0.0,0.0,0.0,0.0,0.0,0.0,0.0,0.0,0.0,0.0,0.0,0.0,0.0,0.0,0.0,0.0,0.0,0.0,0.0,0.0,0.0,0.0,0.0,0.0,0.0,0.0,0.0,0.0,0.0,0.0,0.0,0.0,0.0,0.0,0.0,0.0,0.0,0.0,0.0,0.0,0.0,0.0,0.0,0.0,0.0,0.0,0.0,0.0,0.0,0.0,0.0,0.0,0.0,0.0,0.0,0.0,0.0,0.0,0.0,0.0,0.0,0.0,0.0,0.0,0.0,0.0,0.0,0.0,0.0,0.0,0.0,0.0,0.0,0.0,0.0,0.0,0.0,0.0,0.0,0.0,0.0,0.0,0.0,0.0,0.0,0.0,0.0,0.0,0.0,0.0,0.0,1.6852,1.6258,1.5338,1.551,1.5475,1.4942,1.5467,1.5616,1.5099,1.6105,0.0,0.0,0.0,0.0,0.0,0.0,0.0,0.0,0.0,0.0,0.0,0.0,0.0,0.0,0.0,0.0,0.0,0.0,0.0,0.0,0.0,0.0,0.0,0.0,0.0,0.0,0.0,0.0,0.0,0.0,0.0,0.0,0.0,0.0,0.0,0.0,0.0,0.0,0.0,0.0,0.0,0.0,0.0,0.0,0.0,0.0,0.0,0.0,0.0,0.0,0.0,0.0,0.0,0.0,0.0,0.0,0.0,0.0,0.0,0.0,0.0,0.0,0.0,0.0,0.0,0.0,0.0,0.0,0.0,0.0,0.0,0.0,0.0,0.0,0.0,0.0,0.0,0.0,0.0,0.0,0.0,0.0,0.0,0.0,0.0,0.0,0.0,0.0,0.0,0.0,0.0,0.0,0.0,0.0,0.0,0.0,0.0,0.0,0.0,0.0,0.0,0.0,1.5917,1.5407,1.5457,1.5846,1.5799,1.5056,1.5662,1.5877,1.5343,1.6228,0.0,0.0,0.0,0.0,0.0,0.0,0.0,0.0,0.0,0.0,0.0,0.0,0.0,0.0,0.0,0.0,0.0,0.0,0.0,0.0,0.0,0.0,0.0,0.0,0.0,0.0,0.0,0.0,0.0,0.0,0.0,0.0,0.0,0.0,0.0,0.0,0.0,0.0,0.0,0.0,0.0,0.0,0.0,0.0,0.0,0.0,0.0,0.0,0.0,0.0,0.0,0.0,0.0,0.0,0.0,0.0,0.0,0.0,0.0,0.0,0.0,0.0,0.0,0.0,0.0,0.0,0.0,0.0,0.0,0.0,0.0,0.0,0.0,0.0,0.0,0.0,0.0,0.0,0.0,0.0,0.0,0.0,0.0,0.0,0.0,0.0,0.0,0.0,0.0,0.0,0.0,0.0,0.0,0.0,0.0,0.0,0.0,0.0,0.0,0.0,0.0,0.0,1.5859,1.555,1.6166,1.5989,1.574,1.5564,1.6615,1.664,1.5127,1.6827,0.0,0.0,0.0,0.0,0.0,0.0,0.0,0.0,0.0,0.0,0.0,0.0,0.0,0.0,0.0,0.0,0.0,0.0,0.0,0.0,0.0,0.0,0.0,0.0,0.0,0.0,0.0,0.0,0.0,0.0,0.0,0.0,0.0,0.0,0.0,0.0,0.0,0.0,0.0,0.0,0.0,0.0,0.0,0.0,0.0,0.0,0.0,0.0,0.0,0.0,0.0,0.0,0.0,0.0,0.0,0.0,0.0,0.0,0.0,0.0,0.0,0.0,0.0,0.0,0.0,0.0,0.0,0.0,0.0,0.0,0.0,0.0,0.0,0.0,0.0,0.0,0.0,0.0,0.0,0.0,0.0,0.0,0.0,0.0,0.0,0.0,0.0,0.0,0.0,0.0,0.0,0.0,0.0,0.0,0.0,0.0,0.0,0.0,0.0,0.0,0.0,0.0,1.5479,1.5272,1.5358,1.5886,1.5772,1.4585,1.5674,1.604,1.5235,0.0,0.0,0.0,0.0,0.0,0.0,0.0,0.0,0.0,0.0,0.0,0.0,0.0,0.0,0.0,0.0,0.0,0.0,0.0,0.0,0.0,0.0,0.0,0.0,0.0,0.0,0.0,0.0,0.0,0.0,0.0,0.0,0.0,0.0,0.0,0.0,0.0,0.0,0.0,0.0,0.0,0.0,0.0,0.0,0.0,0.0,0.0,0.0,0.0,0.0,0.0,0.0,0.0,0.0,0.0,0.0,0.0,0.0,0.0,0.0,0.0,0.0,0.0,0.0,0.0,0.0,0.0,0.0,0.0,0.0,0.0,0.0,0.0,0.0,0.0,0.0,0.0,0.0,0.0,0.0,0.0,0.0,0.0,0.0,0.0,0.0,0.0,0.0,0.0,0.0,0.0,0.0,0.0,0.0,0.0,0.0,0.0,0.0,0.0,0.0,0.0,0.0,1.5321,1.5169,1.5099,1.51,1.5568,1.5391,1.4125,1.4931,1.5412,1.5164,0.0,0.0,0.0,0.0,0.0,0.0,0.0,0.0,0.0,0.0,0.0,0.0,0.0,0.0,0.0,0.0,0.0,0.0,0.0,0.0,0.0,0.0,0.0,0.0,0.0,0.0,0.0,0.0,0.0,0.0,0.0,0.0,0.0,0.0,0.0,0.0,0.0,0.0,0.0,0.0,0.0,0.0,0.0,0.0,0.0,0.0,0.0,0.0,0.0,0.0,0.0,0.0,0.0,0.0,0.0,0.0,0.0,0.0,0.0,0.0,0.0,0.0,0.0,0.0,0.0,0.0,0.0,0.0,0.0,0.0,0.0,0.0,0.0,0.0,0.0,0.0,0.0,0.0,0.0,0.0,0.0,0.0,0.0,0.0,0.0,0.0,0.0,0.0,0.0,0.0,0.0,0.0,0.0,0.0,0.0,0.0,0.0,0.0,0.0,0.0,0.0,0.0,1.5145,1.4951,1.5043,1.5594,1.5031,1.4538,1.4485,1.4725,1.4832,0.0,0.0,0.0,0.0,0.0,0.0,0.0,0.0,0.0,0.0,0.0,0.0,0.0,0.0,0.0,0.0,0.0,0.0,0.0,0.0,0.0,0.0,0.0,0.0,0.0,0.0,0.0,0.0,0.0,0.0,0.0,0.0,0.0,0.0,0.0,0.0,0.0,0.0,0.0,0.0,0.0,0.0,0.0,0.0,0.0,0.0,0.0,0.0,0.0,0.0,0.0,0.0,0.0,0.0,0.0,0.0,0.0,0.0,0.0,0.0,0.0,0.0,0.0,0.0,0.0,0.0,0.0,0.0,0.0,0.0,0.0,0.0,0.0,0.0,0.0,0.0,0.0,0.0,0.0,0.0,0.0,0.0,0.0,0.0,0.0,0.0,0.0,0.0,0.0,0.0,0.0,0.0,0.0,0.0,0.0,0.0,0.0,0.0,0.0,0.0,0.0,0.0,0.0,1.2452,1.1274,1.109,1.329,1.3625,1.3439,1.2863,1.3272,1.3675,1.3928,0.0,0.0,0.0,0.0,0.0,0.0,0.0,0.0,0.0,0.0,0.0,0.0,0.0,0.0,0.0,0.0,0.0,0.0,0.0,0.0,0.0,0.0,0.0,0.0,0.0,0.0,0.0,0.0,0.0,0.0,0.0,0.0,0.0,0.0,0.0,0.0,0.0,0.0,0.0,0.0,0.0,0.0,0.0,0.0,0.0,0.0,0.0,0.0,0.0,0.0,0.0,0.0,0.0,0.0,0.0,0.0,0.0,0.0,0.0,0.0,0.0,0.0,0.0,0.0,0.0,0.0,0.0,0.0,0.0,0.0,0.0,0.0,0.0,0.0,0.0,0.0,0.0,0.0,0.0,0.0,0.0,0.0,0.0,0.0,0.0,0.0,0.0,0.0,0.0,0.0,0.0,0.0,0.0,0.0,0.0,0.0,0.0,0.0,0.0,0.0,0.0,0.0,0.844,0.7738,0.8033,1.0666,1.1884,1.2253,1.1637,1.21,1.2663,1.3162,0.0,0.0,0.0,0.0,0.0,0.0,0.0,0.0,0.0,0.0,0.0,0.0,0.0,0.0,0.0,0.0,0.0,0.0,0.0,0.0,0.0,0.0,0.0,0.0,0.0,0.0,0.0,0.0,0.0,0.0,0.0,0.0,0.0,0.0,0.0,0.0,0.0,0.0,0.0,0.0,0.0,0.0,0.0,0.0,0.0,0.0,0.0,0.0,0.0,0.0,0.0,0.0,0.0,0.0,0.0,0.0,0.0,0.0,0.0,0.0,0.0,0.0,0.0,0.0,0.0,0.0,0.0,0.0,0.0,0.0,0.0,0.0,0.0,0.0,0.0,0.0,0.0,0.0,0.0,0.0,0.0,0.0,0.0,0.0,0.0,0.0,0.0,0.0,0.0,0.0,0.0,0.0,0.0,0.0,0.0,0.0,0.0,0.0,0.0,0.0,0.0,0.0,0.372,0.4252,0.5458,0.805,1.0004,1.1026,1.0722,1.118,1.179,1.2471,0.0,0.0,0.0,0.0,0.0,0.0,0.0,0.0,0.0,0.0,0.0,0.0,0.0,0.0,0.0,0.0,0.0,0.0,0.0,0.0,0.0,0.0,0.0,0.0,0.0,0.0,0.0,0.0,0.0,0.0,0.0,0.0,0.0,0.0,0.0,0.0,0.0,0.0,0.0,0.0,0.0,0.0,0.0,0.0,0.0,0.0,0.0,0.0,0.0,0.0,0.0,0.0,0.0,0.0,0.0,0.0,0.0,0.0,0.0,0.0,-1.3989,0.0,0.0,0.0,0.0,0.0,0.0,0.0,0.0,0.0,0.0,0.0,0.0,0.0,0.0,0.0,0.0,0.0,0.0,0.0,0.0,0.0,0.0,0.0,0.0,0.0,0.0,0.0,0.0,0.0,0.0,0.0,0.0,0.0,0.0,0.0,0.0,0.0,0.0,0.0,0.0,0.0,0.0692,0.038,0.1652,0.6409,0.8739,0.992,0.9791,1.0372,1.1036,1.1783,1.0828,0.0,0.0,0.0,0.0,0.0,0.0,0.0,0.0,0.0,0.0,0.0,0.0,0.0,0.0,0.0,0.0,0.0,0.0,0.0,0.0,0.0,0.0,0.0,0.0,0.0,0.0,0.0,0.0,0.0,0.0,0.0,0.0,0.0,0.0,0.0,0.0,0.0,0.0,0.0,0.0,0.0,0.0,0.0,0.0,0.0,0.0,0.0,0.0,0.0,0.0,0.0,0.0,0.0,0.0,0.0,0.0,0.0,0.0,0.0,0.0,-1.513,0.0,0.0,0.0,0.0,0.0,0.0,0.0,0.0,0.0,0.0,0.0,0.0,0.0,0.0,0.0,0.0,0.0,0.0,0.0,0.0,0.0,0.0,0.0,0.0,0.0,0.0,0.0,0.0,0.0,0.0,0.0,0.0,0.0,0.0,0.0,0.0,0.0,0.0,0.0,0.0,-0.3705,-0.3051,-0.1013,0.4036,0.7475,0.9287,0.9043,0.9838,1.0451,1.0671,0.9948,0.0,0.0,0.0,0.0,0.0,0.0,0.0,0.0,0.0,0.0,0.0,0.0,0.0,0.0,0.0,0.0,0.0,0.0,0.0,0.0,0.0,0.0,0.0,0.0,0.0,0.0,0.0,0.0,0.0,0.0,0.0,0.0,0.0,0.0,0.0,0.0,0.0,0.0,0.0,0.0,0.0,0.0,0.0,0.0,0.0,0.0,0.0,0.0,0.0,0.0,0.0,0.0,0.0,-1.452,-1.4748,-1.4961,-1.5214,-1.5069,-1.469,-1.5268,-1.4972,-1.4078,-1.3572,0.0,0.0,0.0,0.0,0.0,0.0,0.0,0.0,0.0,0.0,0.0,0.0,0.0,0.0,0.0,0.0,0.0,0.0,0.0,0.0,0.0,0.0,0.0,0.0,-0.72,-0.5801,-0.2695,0.0,0.0,0.0,0.0,0.0,0.0,0.0,0.0,0.0,0.0,0.0,-0.7431,-0.5399,-0.2511,0.2032,0.6313,0.8734,0.8375,0.9351,0.9868,0.9627,0.9232,0.9523,0.0,0.0,0.0,0.0,0.0,0.0,0.0,0.0,0.0,0.0,0.0,0.0,0.0,0.0,0.0,0.0,0.0,0.0,0.0,0.0,0.0,0.0,0.0,0.0,0.0,0.0,0.0,0.0,0.0,0.0,0.0,0.0,-0.0648,-0.2058,0.0,0.0,0.0,0.0,0.0,0.0,0.0,0.0,0.0,0.0,0.0,0.0,0.0,-1.2125,-1.3113,-1.3399,-1.3669,-1.3949,-1.407,-1.4177,-1.4336,-1.4768,-1.4818,-1.4572,-1.5284,0.0,-1.3744,-1.3204,0.0,0.0,0.0,0.0,0.0,0.0,0.0,0.0,0.0,0.0,0.0,0.0,0.0,0.0,0.0,0.0,0.0,0.0,0.0,0.0,0.0,0.0,-1.2081,-1.1751,-1.0802,-0.978,0.0,-0.7014,-0.5523,-0.6116,-0.6585,0.0,0.0,0.0,0.0,0.0,0.0,0.0,-0.7388,-0.5055,-0.2022,0.2148,0.5517,0.7534,0.7704,0.8542,0.9148,0.9349,0.8919,0.8983,0.9664,1.0413,0.0,0.0,0.0,0.0,0.0,0.0,0.0,0.0,0.0,0.0,0.0,0.0,0.0,0.0,0.0,0.0,0.0,0.0,0.0,0.0,0.0,0.0,0.0,0.0,0.0,0.0,0.0,0.0,0.0,-0.1989,-0.3143,-0.396,-0.4934,-0.5869,0.0,0.0,0.0,0.0,0.0,0.0,0.0,0.0,0.0,-1.2039,-1.2291,-1.2813,-1.3589,-1.3848,-1.4018,-1.4073,-1.4146,-1.4298,-1.4535,-1.4636,-1.4639,-1.4621,-1.4687,-1.4181,-1.3357,-1.3478,-1.2838,-1.1745,0.0,0.0,0.0,0.0,-0.9415,-0.9128,-0.896,-0.8785,-0.863,-0.8789,0.0,0.0,0.0,0.0,0.0,0.0,0.0,0.0,0.0,0.0,-1.25,-1.2324,-1.1478,-1.0646,-1.0475,-0.9521,-0.8662,0.0,-0.8989,-0.9466,-0.9637,0.0,0.0,0.0,0.0,-0.9652,-0.6336,-0.3808,-0.1051,0.2287,0.5387,0.7282,0.7485,0.818,0.8593,0.8506,0.8356,0.8527,0.9154,0.9544,0.9585,0.0,0.0,0.0,0.0,0.0,0.0,0.0,0.0,0.0,0.0,0.0,0.0,0.0,0.0,0.0,0.0,0.0,0.0,0.0,0.0,0.0,0.0,0.0,0.0,0.0,0.0,0.0,0.0,-0.4036,-0.4843,-0.5401,-0.6243,-0.7032,0.0,0.0,0.0,0.0,0.0,0.0,-1.1877,-1.2124,-1.2469,-1.2936,-1.2921,-1.3211,-1.3904,-1.4105,-1.4167,-1.4103,-1.4105,-1.4219,-1.4384,-1.4469,-1.4491,-1.4449,-1.4299,-1.3886,-1.3357,-1.347,-1.2944,-1.1986,-1.1575,-1.1116,-1.0609,-1.0289,-0.9975,-0.9723,-0.9862,-0.9621,-0.9281,-0.9394,-0.9322,-0.9254,-0.9436,0.0,0.0,0.0,0.0,-1.2886,-1.3133,-1.271,-1.2173,-1.191,-1.1265,-1.0674,-1.056,-1.0777,-1.0827,0.0,-1.0658,-1.1076,-1.0925,0.0,0.0,0.0,0.0,-0.8671,-0.4975,-0.2382,0.0133,0.2772,0.5421,0.7097,0.7306,0.7891,0.8167,0.8059,0.7977,0.8206,0.8757,0.8839,0.8829,0.8746,0.0,0.0,0.0,0.0,0.0,0.0,0.0,0.0,0.0,0.0,0.0,0.0,0.0,0.0,0.0,0.0,0.0,0.0,0.0,0.0,0.0,0.0,0.0,0.0,0.0,0.0,0.0,0.0,0.0,-0.6083,-0.6854,0.0,0.0,0.0,0.0,-1.0638,-1.1398,-1.1952,-1.2168,-1.231,-1.2594,-1.3086,-1.2976,-1.3223,-1.3898,-1.3907,-1.3883,-1.3806,-1.3695,-1.3521,-1.3317,-1.4118,-1.4259,-1.3883,-1.4549,-1.4496,-1.3886,-1.2725,-1.2124,-1.1857,-1.1197,-1.0928,-1.0818,-1.0419,-1.0303,-1.0244,-1.0264,-1.0244,-1.0244,-1.0254,-1.0139,-1.0067,-1.027,-1.076,0.0,0.0,-1.2043,-1.2601,-1.2197,-1.1819,-1.1426,-1.0991,-1.0637,-1.0397,-1.0336,-1.0823,-1.1183,0.0,-1.0866,-1.0966,-1.1146,0.0,-1.0199,-0.9775,-0.8009,-0.5874,-0.3498,-0.0982,0.147,0.3787,0.5477,0.6615,0.7071,0.7489,0.795,0.8426,0.8059,0.8019,0.8497,0.8517,0.8454,0.8318,0.905,0.0,0.0,0.0,0.0,0.0,0.0,0.0,0.0,0.0,0.0,0.0,0.0,0.0,0.0,0.0,0.0,0.0,0.0,0.0,0.0,0.0,0.0,0.0,0.0,0.0,0.0,0.0,0.0,-0.713,-0.8015,0.0,-0.9262,-1.0356,-1.128,-1.1946,-1.2571,-1.3122,-1.3591,-1.3802,-1.3959,-1.4003,-1.3865,-1.3849,-1.396,-1.3916,-1.3766,-1.3471,-1.3258,-1.3178,-1.3204,-1.3262,-1.3443,-1.3746,-1.3839,-1.3758,-1.3532,-1.2745,-1.2116,-1.1683,-1.1257,-1.0788,-1.0299,-1.0155,-1.0127,-1.0157,-1.0157,-1.0244,-1.0322,-1.0351,-1.0396,-1.0453,-1.0704,-1.1071,-1.148,-1.1684,-1.2106,-1.2401,-1.1933,-1.1589,-1.1253,-1.0721,-1.0475,-1.0317,-1.0242,-1.0468,-1.0608,-1.0417,-1.1072,-1.1505,-1.0972,-1.0866,-1.0106,-0.7909,-0.6146,-0.4131,-0.1438,0.1109,0.3228,0.4589,0.593,0.6859,0.7145,0.7767,0.8244,0.8422,0.8403,0.8348,0.8233,0.8105,0.7977,0.7798,0.8165,0.8026,0.0,0.0,0.0,0.0,0.0,0.0,0.0,0.0,0.0,0.0,0.0,0.0,0.0,0.0,0.0,0.0,0.0,0.0,0.0,0.0,0.0,0.0,0.0,0.0,0.0,-0.699,-0.7341,-0.8243,-0.8953,-0.9634,-1.0308,-1.1319,-1.2216,-1.2827,-1.3418,-1.3934,-1.4336,-1.4529,-1.4533,-1.4347,-1.4206,-1.4027,-1.3829,-1.37,-1.3447,-1.3103,-1.2785,-1.2689,-1.2733,-1.2562,-1.2671,-1.3043,-1.2999,-1.2886,-1.2739,-1.2186,-1.1582,-1.1046,-1.0969,-1.0572,-0.9969,-0.982,-0.9853,-0.9971,-1.0127,-1.0283,-1.04,-1.0467,-1.0495,-1.0572,-1.0802,-1.1067,-1.1367,-1.1579,-1.1957,-1.2142,-1.1507,-1.1276,-1.1058,-1.0339,-1.0076,-0.9988,-0.9899,-1.0022,-1.0098,-0.9871,-1.0641,-1.1084,-1.035,-1.001,-0.8949,-0.6274,-0.4346,-0.225,0.0378,0.2716,0.4457,0.5328,0.6372,0.7098,0.7294,0.7961,0.8437,0.8519,0.8637,0.8611,0.8455,0.8219,0.7952,0.7585,0.7478,0.7154,0.6609,0.0,0.0,0.0,0.0,0.0,0.0,0.0,0.0,0.0,0.0,0.0,0.0,0.0,0.0,0.0,0.0,0.0,0.0,0.0,0.0,0.0,0.0,0.0,-0.777,-0.778,-0.8244,-0.9298,-0.9624,-1.0177,-1.1235,-1.2184,-1.2881,-1.3213,-1.382,-1.4239,-1.4297,-1.4291,-1.4201,-1.399,-1.3852,-1.3682,-1.3501,-1.3232,-1.2955,-1.2674,-1.233,-1.2029,-1.1796,-1.2108,-1.2052,-1.1703,-1.2079,-1.1953,-1.145,-1.1034,-1.0531,-1.0034,-1.033,-1.0285,-0.9927,-0.9461,-0.9457,-0.9753,-1.0137,-1.0428,-1.0582,-1.0582,-1.0505,-1.0418,-1.0544,-1.0736,-1.0916,-1.1142,-1.1627,-1.1848,-1.087,-1.0837,-1.0834,-0.9761,-0.9509,-0.9432,-0.9244,-0.9554,-0.9729,-0.931,-0.9484,-0.9596,-0.929,-0.806,-0.6584,-0.4947,-0.2535,0.0,0.1893,0.3743,0.5173,0.6029,0.6768,0.7294,0.748,0.8073,0.8542,0.877,0.8774,0.8849,0.9078,0.8827,0.8362,0.7696,0.703,0.6474,0.5994,0.0,0.0,0.0,0.0,0.0,0.0,0.0,0.0,0.0,0.0,0.0,0.0,0.0,0.0,0.0,0.0,0.0,0.0,0.0,0.0,0.0,-0.9389,-0.9524,-0.9095,-0.9069,-0.9404,-1.0196,-1.0919,-1.1599,-1.2121,-1.3187,-1.3879,-1.392,-1.4136,-1.4227,-1.4098,-1.4046,-1.3921,-1.3717,-1.3643,-1.3404,-1.3079,-1.2791,-1.2473,-1.2138,-1.1847,-1.1564,-1.1362,-1.1312,-1.135,-1.149,-1.1377,-1.1364,-1.1309,-1.0669,-1.0083,-0.9632,-0.977,-0.9622,-0.9275,-0.9131,-0.9346,-0.9723,-0.998,-1.0244,-1.0457,-1.0457,-1.0418,-1.0418,-1.0544,-1.0659,-1.0725,-1.0981,-1.1394,-1.1617,-1.1092,-1.0967,-1.0753,-1.0044,-0.9596,-0.9274,-0.8965,-0.8815,-0.8589,-0.8039,-0.7574,-0.7379,-0.771,-0.6727,-0.5081,-0.2685,-0.046,0.0,0.3323,0.4972,0.6175,0.6708,0.7235,0.7578,0.7637,0.8271,0.8709,0.8789,0.9252,0.9318,0.8985,0.8668,0.8205,0.7586,0.7145,0.6632,0.0,0.0,0.0,0.0,0.0,0.0,0.0,0.0,0.0,0.0,0.0,0.0,0.0,0.0,0.0,0.0,0.0,0.0,0.0,0.0,0.0,0.0,-1.0814,-1.0911,-1.0507,-1.016,-1.0282,-1.1127,-1.1763,-1.2357,-1.2948,-1.3826,-1.4317,-1.4256,-1.4206,-1.4091,-1.3927,-1.3761,-1.364,-1.3524,-1.3436,-1.3192,-1.2849,-1.2544,-1.221,-1.1836,-1.1527,-1.1276,-1.1061,-1.0909,-1.086,-1.0845,-1.0654,-1.0514,-1.0404,-0.983,-0.9359,0.0,0.0,0.0,0.0,0.0,-0.9096,-0.9426,-0.9734,-1.0079,-1.039,-1.0467,-1.0505,-1.0582,-1.0659,-1.0621,-1.0659,-1.0878,-1.1169,-1.1359,-1.1099,-1.1101,-1.0998,-1.0179,-0.9798,-0.9433,-0.8806,-0.8344,-0.783,-0.7091,-0.6617,0.0,-0.5315,-0.4519,-0.3192,-0.0823,0.1256,0.3102,0.452,0.5868,0.6867,0.7246,0.7647,0.7909,0.788,0.8403,0.0,0.0,0.0,0.9415,0.9032,0.8484,0.0,0.0,0.0,0.0,0.0,0.0,0.0,0.0,0.2721,0.1988,0.0,0.0,0.0,0.0,0.0,0.0,0.0,0.0,0.0,0.0,0.0,0.0,0.0,0.0,0.0,0.0,-1.2276,-1.2234,-1.1719,-1.1132,-1.1094,-1.2056,-1.2319,-1.2786,-1.3663,-1.4157,-1.4388,-1.431,-1.4109,-1.3915,-1.3754,-1.3506,0.0,0.0,0.0,-1.306,-1.2803,-1.2401,-1.2066,-1.1774,-1.1362,-1.1061,-1.0878,-1.0784,-1.0505,-1.0088,-0.9932,-0.9625,-0.9136,-0.8765,-0.848,-0.8322,-0.868,-0.8651,-0.8414,-0.8602,-0.8805,-0.9016,-0.939,0.0,0.0,-1.0428,-1.0582,-1.0708,-1.0708,-1.0659,-1.0621,-1.0746,-1.0964,-1.1148,-1.0935,-1.1149,-1.1207,-1.0177,-0.9898,-0.958,-0.8598,-0.7964,-0.7316,-0.6441,-0.6114,-0.5151,-0.255,-0.1915,-0.1096,0.0779,0.2755,0.4414,0.5545,0.6644,0.7423,0.7744,0.0,0.0,0.814,0.844,0.874,0.894,0.9126,0.9196,0.9095,0.8315,0.7766,0.7589,0.6811,0.6029,0.5251,0.4833,0.4038,0.2968,0.2238,0.1494,0.0,0.0,0.0,0.0,0.0,0.0,0.0,0.0,0.0,0.0,0.0,0.0,0.0,0.0,0.0,-1.1656,-1.1844,-1.1964,-1.202,-1.2057,-1.2212,-1.2544,-1.3073,-1.3552,-1.3921,-1.4401,-1.4623,-1.4314,-1.4064,-1.3794,-1.348,-1.3267,-1.3163,-1.3163,-1.3198,-1.306,-1.2709,-1.233,-1.192,-1.1553,0.0,0.0,-1.0822,-1.0515,-1.0244,-0.998,-0.9417,-0.9047,-0.8765,-0.8275,-0.787,-0.7628,-0.8162,-0.8312,-0.825,-0.848,-0.8643,-0.8862,-0.9056,-0.9368,-0.9677,-0.9746,-0.9952,-1.0166,-1.0205,-1.0312,0.0,-1.0582,-1.084,-1.0989,-1.0723,-1.0665,-1.0457,-0.9777,-0.9229,-0.867,-0.7947,-0.7218,-0.6601,-0.6215,-0.463,-0.2701,-0.065,-0.0259,0.0419,0.2366,0.4223,0.5739,0.6674,0.7443,0.8011,0.8241,0.8421,0.8505,0.8439,0.8738,0.887,0.8773,0.8744,0.8678,0.8486,0.7893,0.7368,0.7,0.6603,0.6156,0.5594,0.5051,0.4287,0.3385,0.2464,0.1558,0.0,0.0,0.0,0.0,0.0,0.0,0.0,0.0,0.0,0.0,0.0,-1.0996,-1.1289,0.0,-1.2659,-1.2528,-1.2633,-1.2671,-1.2436,-1.2685,-1.2912,-1.2952,-1.3359,-1.3759,-1.4076,-1.4368,-1.4411,-1.4117,-1.3877,-1.3616,-1.3313,-1.3094,-1.2955,-1.2955,-1.2955,-1.2768,-1.2413,-1.2029,-1.1653,-1.1244,-1.0888,-1.0641,-1.04,-1.0157,-0.9795,-0.9359,-0.8926,-0.8561,-0.8234,-0.7663,-0.7196,-0.6894,-0.728,-0.7704,-0.8085,-0.8193,-0.8398,-0.8618,-0.8732,-0.8846,-0.9039,-0.9222,-0.9421,-0.9588,-0.9873,-1.0157,-1.039,-1.0544,-1.0774,-1.0908,-1.0627,-1.056,-1.0399,-0.9585,-0.9074,-0.8465,-0.7431,-0.6846,-0.6129,-0.4732,-0.2737,-0.0745,0.1035,0.2609,0.3736,0.4108,0.5519,0.6819,0.7502,0.8114,0.8574,0.8784,0.8894,0.8894,0.8811,0.8926,0.8859,0.8569,0.8653,0.8472,0.8039,0.765,0.7179,0.6674,0.6246,0.5816,0.5421,0.4815,0.4134,0.3318,0.2481,0.1609,0.0,0.0,0.0,0.0,0.0,0.0,0.0,-1.3296,-1.2339,-1.2773,-1.2533,-1.2296,-1.2412,-1.3311,-1.3828,-1.3225,-1.3244,-1.3182,-1.2675,-1.3018,-1.3299,-1.3271,-1.3503,-1.3799,-1.4114,-1.4196,-1.4134,-1.3904,-1.3715,-1.3482,-1.3209,-1.2908,-1.2768,-1.2733,-1.2627,-1.2413,-1.2004,-1.1653,-1.1282,-1.0867,-1.0562,-1.0235,-0.9853,-0.9637,-0.9222,-0.8659,-0.8349,-0.7946,-0.753,-0.6907,-0.6435,-0.6076,-0.6295,-0.6803,-0.7482,-0.7724,-0.7987,-0.8209,-0.8234,-0.8226,-0.8267,-0.8537,-0.8723,-0.8876,-0.9284,-0.9697,-1.0021,-1.0128,-1.0299,-1.0426,-1.0056,-1.0109,-0.9978,-0.8973,-0.8491,-0.7904,-0.648,-0.5891,-0.4941,-0.2601,-0.0646,0.1226,0.313,0.5476,0.6751,0.5678,0.6674,0.7723,0.8238,0.8767,0.917,0.9313,0.9408,0.9393,0.9201,0.9054,0.8816,0.8487,0.8574,0.8353,0.7732,0.7463,0.7058,0.6471,0.6013,0.5545,0.5101,0.4578,0.3921,0.317,0.2455,0.1609,-0.8588,-1.1266,-1.3274,-1.3828,-1.3157,-1.2502,0.0,-1.143,-1.0097,-1.1137,-1.0807,-1.0413,-1.0694,-1.1465,-1.2021,-1.207,-1.2105,-1.2153,-1.2247,-1.2848,-1.3352,-1.352,-1.3794,-1.3946,-1.3926,-1.3997,-1.3971,-1.382,-1.3697,-1.3444,-1.3141,-1.2791,-1.2567,-1.2449,-1.2258,-1.1993,-1.1653,-1.1207,-1.0802,-1.0457,-0.9942,-0.9588,-0.9359,-0.8878,-0.8504,-0.8218,-0.7405,-0.6823,-0.6349,-0.6002,-0.5567,-0.5135,-0.5226,-0.5475,-0.5893,-0.6923,-0.7398,-0.7496,-0.7398,-0.7266,-0.7189,-0.7349,-0.7536,-0.7736,-0.7941,-0.848,-0.8913,-0.8647,-0.8787,-0.8885,-0.8285,-0.8168,-0.7963,-0.6963,-0.638,-0.5685,-0.4249,-0.3023,-0.1706,-0.0161,0.1599,0.3712,0.6468,0.7218,0.7262,0.6783,0.7693,0.8601,0.9031,0.9502,0.979,0.9828,0.9944,0.9841,0.9485,0.9076,0.88,0.8757,0.8223,0.7844,0.7709,0.729,0.6801,0.6331,0.6099,0.5669,0.5009,0.4578,0.3968,0.317,0.2455,0.1609,-0.873,-1.1373,-1.2881,-1.3125,-1.2704,-1.2203,-1.2192,-1.0754,-0.9595,-1.0264,-1.0291,-1.014,-0.999,-1.1109,-1.1925,-1.1545,-1.1542,-1.1653,-1.192,-1.2833,-1.3475,-1.3474,-1.3989,-1.4272,-1.4086,-1.3851,-1.364,-1.3453,-1.3373,-1.3128,-1.2719,-1.2354,-1.2102,-1.1884,-1.1664,-1.1356,-1.0905,-1.0591,-1.0205,-0.9755,-0.9399,-0.9039,-0.8626,-0.8218,-0.7634,-0.6875,-0.6252,-0.5696,-0.5255,-0.4913,-0.4526,-0.4176,-0.4264,-0.4391,-0.4687,-0.5851,-0.641,-0.6579,-0.6446,-0.6283,-0.6155,-0.624,-0.6319,-0.6392,-0.6716,-0.7086,-0.7395,-0.7378,-0.7491,-0.7512,-0.6966,-0.682,-0.6553,-0.539,-0.455,-0.3601,-0.2111,-0.0657,0.0811,0.2317,0.4697,0.6742,0.7579,0.8272,0.8733,0.8798,0.9118,0.9439,0.9686,0.9957,1.0123,1.0072,1.0059,0.9905,0.9591,0.9128,0.8739,0.8456,0.8088,0.769,0.7319,0.7206,0.6918,0.6429,0.6307,0.5873,0.5178,0.4797,0.4188,0.3306,0.2726,0.1967,-0.683,-0.9077,-1.024,-1.0448,-1.0281,-0.9988,-0.9696,-0.8884,-0.8295,-0.8736,-0.9083,-0.9325,-0.9265,-1.0467,-1.1296,-1.0903,-1.0895,-1.1094,-1.1442,-1.2374,-1.3115,-1.3318,-1.3909,-1.4282,-1.4288,-1.3749,-1.3323,-1.3116,-1.3012,-1.2768,-1.2294,-1.1872,-1.1505,-1.1217,-1.0905,-1.0562,-1.0108,-0.9815,-0.9421,-0.899,-0.8683,-0.8316,-0.7814,-0.7301,-0.6489,-0.5513,-0.5038,-0.4552,-0.4069,-0.3774,-0.347,-0.3208,-0.3252,-0.3341,-0.351,-0.4335,-0.5024,-0.5497,-0.5326,-0.5158,-0.4986,-0.5173,-0.5178,-0.5077,-0.5124,-0.5241,-0.5391,-0.5453,-0.5533,-0.5472,-0.5025,-0.4778,-0.4378,-0.3204,-0.2199,-0.1055,0.0434,0.1907,0.337,0.4828,0.7167,0.8856,0.8572,0.9362,1.0155,1.0511,1.0465,1.0383,1.0285,1.0336,1.0349,1.0274,1.0148,0.9931,0.9658,0.9209,0.8706,0.8244,0.7947,0.7562,0.7066,0.7098,0.6986,0.6652,0.6425,0.5991,0.5344,0.4909,0.4282,0.3427,0.2901,0.2258,-0.1577,-0.3274,-0.4735,-0.5126,-0.4843,-0.4495,-0.4665,-0.4886,-0.5236,-0.5976,-0.6535,-0.7217,-0.8181,-0.8875,-0.944,-0.9886,-1.006,-1.0235,-1.0582,-1.1245,-1.2056,-1.3083,-1.3401,-1.3782,-1.4441,-1.3702,-1.3129,-1.2931,-1.272,-1.2425,-1.1945,-1.1282,-1.0764,-1.0457,-0.9933,-0.9549,-0.9319,-0.8797,-0.8431,-0.8218,-0.7697,-0.7293,-0.6914,-0.5867,-0.4995,-0.4339,-0.3854,-0.3369,-0.2838,-0.2625,-0.2406,-0.2144,-0.2144,-0.2144,-0.2144,-0.2186,-0.3111,-0.4295,-0.4037,-0.3814,-0.3727,-0.4192,-0.4196,-0.3877,-0.2959,-0.2718,-0.2697,-0.2473,-0.2476,-0.2413,-0.194,-0.1445,-0.0825,0.0063,0.1065,0.2212,0.3567,0.4917,0.6228,0.7365,0.8505,0.9451,1.0042,1.0651,1.1139,1.1431,1.1557,1.1437,1.0849,1.0656,1.0572,1.0498,1.0299,1.0046,0.9736,0.9274,0.8756,0.8244,0.7764,0.7415,0.7189,0.6883,0.6825,0.7083,0.6426,0.5895,0.5405,0.4816,0.4161,0.3486,0.2897,0.2361,0.1826,0.0386,-0.0692,-0.1068,-0.1024,-0.0984,-0.1311,-0.1833,-0.2508,-0.3491,-0.4482,-0.5512,-0.6592,-0.7477,-0.8251,-0.8736,-0.8815,-0.8997,-0.957,-1.0278,-1.1277,-1.2763,-1.3352,-1.3968,-1.4818,-1.4038,-1.331,-1.2931,-1.2348,-1.1815,-1.1335,-1.0308,-0.9649,-0.9491,-0.9013,-0.8521,-0.8105,-0.7702,-0.7203,-0.6609,-0.6258,-0.5793,-0.526,-0.4156,-0.3231,-0.2524,-0.2041,-0.151,-0.1065,-0.0889,-0.0667,-0.0445,-0.0445,-0.0445,-0.0445,-0.0312,-0.0577,-0.1196,-0.2581,-0.2627,-0.2089,-0.1868,-0.1643,-0.1371,-0.0838,-0.0386,0.0041,0.0241,0.0303,0.0537,0.1544,0.2183,0.2905,0.4328,0.5236,0.6099,0.7212,0.7977,0.8676,0.9466,1.0315,1.1002,1.127,1.1664,1.1978,1.2024,1.1768,1.146,1.1178,1.0968,1.0777,1.0597,1.0424,1.0173,0.9814,0.9461,0.8992,0.8365,0.7966,0.7587,0.7213,0.7192,0.7072,0.6916,0.6601,0.6112,0.5456,0.5034,0.4462,0.3747,0.346,0.3076,0.6343,0.499,0.3846,0.3464,0.3194,0.2871,0.2279,0.1496,0.0593,-0.0475,-0.1639,-0.2795,-0.3858,-0.4888,-0.5776,-0.635,-0.654,-0.6827,-0.7321,-0.7712,-0.8597,-1.0207,-1.0785,-1.1434,-1.2432,-1.183,-1.175,-1.2639,-1.2147,-1.1374,-1.0514,-0.9299,-0.8543,-0.8342,-0.7769,-0.7273,-0.6771,-0.6386,-0.5647,-0.4556,-0.4089,-0.3564,-0.2988,-0.2073,-0.1326,-0.0665,-0.0177,0.031,0.0797,0.093,0.1152,0.1417,0.1417,0.1417,0.1416,0.1635,0.1765,0.1544,-0.0487,-0.0755,-0.0133,0.0486,0.0926,0.1448,0.236,0.3194,0.3756,0.362,0.3663,0.4019,0.516,0.5888,0.6573,0.7675,0.8466,0.9112,0.9666,1.0058,1.045,1.1002,1.1612,1.2072,1.2189,1.24,1.2526,1.2423,1.2066,1.1725,1.1407,1.1224,1.0991,1.0656,1.0523,1.0286,0.9905,0.9607,0.9197,0.8623,0.8287,0.7956,0.7588,0.7513,0.7335,0.7098,0.6711,0.6194,0.5583,0.5174,0.4671,0.4122,0.3978,0.3692,1.1721,1.0383,0.8861,0.8381,0.7733,0.6985,0.6035,0.5068,0.4092,0.3064,0.2001,0.0981,-0.0037,-0.1192,-0.2159,-0.2752,-0.3358,-0.3782,-0.3846,-0.3688,-0.4157,-0.5687,-0.5989,-0.6481,-0.7563,-0.733,-0.84,-1.1481,-1.1505,-1.0769,-0.9246,-0.8014,-0.7141,-0.6713,-0.6006,-0.5471,-0.5134,-0.4647,-0.3587,-0.1966,-0.1265,-0.061,-0.0,0.0526,0.1013,0.1502,0.1897,0.2288,0.2726,0.295,0.3165,0.3423,0.3423,0.3423,0.3463,0.3662,0.3867,0.3824,0.2328,0.1897,0.2115,0.2854,0.3543,0.4453,0.6416,0.7626,0.8198,0.7485,0.7475,0.7884,0.8746,0.9489,1.0079,1.0187,1.0794,1.1269,1.0996,1.1233,1.1591,1.1984,1.2388,1.2668,1.2794,1.2813,1.2773,1.2632,1.2499,1.2205,1.1601,1.1407,1.1155,1.0777,1.0597,1.0386,1.0046,0.9712,0.9357,0.8942,0.8668,0.8439,0.8215,0.785,0.7641,0.7616,0.678,0.6142,0.5726,0.5196,0.479,0.4522,0.4377,0.4199,1.3566,1.313,1.244,1.1814,1.1117,1.0293,0.92,0.8516,0.7796,0.6634,0.5655,0.4729,0.3783,0.2291,0.1063,0.0608,-0.0078,-0.0601,-0.065,-0.0531,-0.1038,-0.2625,-0.2898,-0.3327,-0.4311,-0.3736,-0.3,-0.2241,-0.3682,-0.4659,-0.4785,-0.2386,-0.1105,-0.1282,-0.0962,-0.0631,-0.0295,0.0508,0.136,0.2262,0.2607,0.3116,0.3833,0.5213,0.6037,0.6349,0.5728,0.558,0.58,0.5996,0.6198,0.641,0.641,0.6445,0.6514,0.6909,0.7145,0.7218,0.7197,0.5949,0.4588,0.6259,0.6735,0.6814,0.8127,0.9221,0.9923,0.9695,0.9874,1.0255,1.0878,1.1515,1.2182,1.2957,1.3211,1.325,1.3138,1.2803,1.2614,1.2916,1.3124,1.3261,1.3176,1.3086,1.2975,1.2773,1.2642,1.2412,1.1997,1.174,1.1482,1.1192,1.0944,1.0632,1.0274,1.0046,0.9738,0.9235,0.9085,0.8866,0.8516,0.8308,0.8054,0.7773,0.7241,0.6668,0.5994,0.5606,0.524,0.4871,0.4721,0.4556,1.4272,1.4235,1.3916,1.3413,1.2924,1.2311,1.1392,1.1074,1.0572,0.9292,0.8601,0.7966,0.709,0.5712,0.47,0.4592,0.3688,0.3079,0.3187,0.3253,0.2855,0.1817,0.1496,0.1174,0.0668,0.1372,0.2448,0.3831,0.1686,0.0461,0.0784,0.2558,0.353,0.339,0.3532,0.3787,0.4202,0.4914,0.5516,0.5948,0.6309,0.6732,0.7297,0.8337,0.8919,0.9142,0.0,0.8467,0.8579,0.8819,0.9012,0.9221,0.927,0.9356,0.9488,0.9935,1.022,1.0417,1.082,1.0059,0.8907,0.9106,0.9175,0.9403,1.049,1.1456,1.2155,1.2145,1.2337,1.2659,1.299,1.3405,1.3872,1.4271,1.4336,1.4225,1.3885,1.3481,1.3277,1.3474,1.3573,1.3608,1.3492,1.3362,1.3226,1.3051,1.2926,1.2743,1.2471,1.2149,1.1811,1.1541,1.1279,1.0954,1.0523,1.0336,1.0046,0.9633,0.9514,0.9354,0.9085,0.8866,0.8606,0.8294,0.7753,0.7178,0.6587,0.6152,0.5734,0.5347,0.5202,0.5079,1.4272,1.4356,1.4154,1.3938,1.3848,1.3638,1.3109,1.3209,1.3021,1.1652,1.1268,1.0926,1.0096,0.9036,0.8398,0.8645,0.7671,0.6985,0.7307,0.7251,0.7042,0.6678,0.6332,0.6151,0.6252,0.7104,0.786,0.8403,0.6612,0.5864,0.667,0.7293,0.7651,0.7743,0.7826,0.8097,0.857,0.8911,0.9194,0.9414,0.9884,1.0226,1.0496,1.0672,1.0826,1.092,1.109,1.1144,1.1222,1.1478,1.1687,1.1862,1.1988,1.2111,1.2277,1.2655,1.3013,1.3319,1.353,1.3757,1.3615,1.1571,1.1346,1.208,1.3103,1.3987,1.4586,1.4564,1.4761,1.4978,1.494,1.5125,1.5227,1.4831,1.4793,1.4632,1.3929,1.3739,1.3736,1.387,1.3877,1.3836,1.3774,1.3632,1.3507,1.3362,1.3244,1.3124,1.3016,1.2569,1.2169,1.1897,1.1623,1.1287,1.0825,1.0621,1.0386,1.0097,0.9957,0.9854,0.975,0.9446,0.9193,0.8969,0.8294,0.7724,0.7305,0.6798,0.6352,0.5967,0.5788,0.5659,1.4126,1.4306,1.4275,1.4295,1.481,1.527,1.5038,1.5878,1.6323,1.5009,1.4467,1.3944,1.2979,1.2034,1.1467,1.1623,1.1272,1.09,1.0779,1.0769,1.0573,1.0032,0.9855,0.9917,1.0262,1.1626,1.2984,1.4224,1.5695,1.4903,1.1145,1.253,1.3237,1.2788,1.2814,1.2909,1.3074,1.3138,1.3138,1.3081,1.3218,1.3387,1.3538,1.3633,1.3695,1.3726,1.3829,0.0,1.3695,1.3893,1.409,1.4225,1.4307,1.4384,1.4506,1.4819,1.5108,1.5321,1.5586,1.5764,1.5598,1.409,1.3922,1.4454,1.5306,1.6088,1.6629,1.6415,1.6652,1.6865,1.634,1.6355,1.6327,1.5596,1.5447,1.5243,1.4451,1.427,1.427,1.4295,1.425,1.4167,1.4047,1.3924,1.3798,1.3648,1.3553,1.3507,1.3476,1.2982,1.253,1.2332,1.2009,1.1673,1.131,1.1141,1.092,1.0608,1.0436,1.0286,1.0046,0.9867,0.9619,0.9247,0.8887,0.8462,0.7944,0.7521,0.7127,0.6777,0.6439,0.6248,1.4076,1.4263,1.4275,1.4375,1.5068,1.5557,1.5049,1.602,1.6578,1.4985,1.4649,1.4402,1.3574,1.2898,1.2502,1.2815,1.2699,1.244,1.2006,1.2113,1.2009,1.1444,1.1307,1.1593,1.2433,1.3679,1.5061,1.6628,1.8421,1.8495,1.6272,1.6876,1.7081,1.6615,1.6624,1.6649,1.6652,1.6475,1.6259,1.5991,1.5927,1.5926,1.5926,1.6019,1.6077,1.6114,1.6119,1.6029,1.5868,1.5964,1.6049,1.6118,1.6208,1.6312,1.6441,1.6693,1.6937,1.7127,1.7299,1.7395,1.7328,1.6733,1.6317,1.615,1.6743,1.7296,1.7637,1.7281,1.7383,1.7462,1.6867,1.6808,1.6699,1.5901,1.5392,1.4975,1.4584,1.4481,1.4451,1.4446,1.4058,1.372,1.363,1.3208,1.2959,1.3245,1.3229,1.3299,1.3674,1.3427,1.3089,1.2748,1.2443,1.2277,1.2335,1.1822,1.1554,1.1637,1.1145,1.0729,1.0422,1.0261,1.0008,0.9659,0.9357,0.9023,0.8684,0.8238,0.7839,0.7511,0.7159,0.698,1.4142,1.425,1.4232,1.4381,1.5184,1.5735,1.4861,1.5837,1.6384,1.4503,1.4262,1.4165,1.3468,1.3027,1.2912,1.3272,1.3506,1.3436,1.2878,1.31,1.3137,1.2602,1.2507,1.2874,1.3925,1.4974,1.6164,1.7584,1.8958,1.9811,2.0029,1.9799,1.9516,1.9235,1.9235,1.9207,1.9125,1.8827,1.8478,1.8108,1.7986,1.7855,1.7684,1.78,1.7851,1.789,1.7769,1.7681,1.7552,1.7552,1.7552,1.7546,1.7676,1.7781,1.7864,1.8073,1.8258,1.8419,1.8513,1.8626,1.8664,1.8735,1.8176,1.7513,1.786,1.8159,1.8348,1.8002,1.7976,1.7978,1.7555,1.7509,1.7343,1.6366,1.5527,1.4892,1.4683,1.4595,1.4552,1.4545,1.3849,1.3259,1.3259,1.2527,1.2187,1.2878,1.2932,1.3084,1.3591,1.3739,1.3563,1.3025,1.2831,1.2902,1.3298,1.2488,1.216,1.2649,1.1972,1.1423,1.109,1.1017,1.0857,1.056,1.0258,1.0017,0.9815,0.923,0.88,0.8514,0.8171,0.8029,1.4378,1.4193,1.4232,1.4367,1.5598,1.6578,1.5766,1.6817,1.7428,1.5544,1.4902,1.435,1.3319,1.3288,1.3424,1.3465,1.4554,1.5151,1.4476,1.4924,1.5137,1.461,1.4593,1.4815,1.5367,1.6441,1.7328,1.7914,1.932,2.0156,2.0173,2.0149,2.0094,2.0006,2.0005,1.9946,1.9812,1.9658,1.9407,1.9066,1.9008,1.8818,1.8592,1.8591,1.8572,1.8533,1.8497,1.846,0.0,1.8385,1.8344,1.8318,1.8378,1.8373,1.8368,1.8551,1.8699,1.8789,1.9034,1.9182,1.9225,1.9234,1.8957,1.8646,1.8771,1.8946,1.9117,1.9143,1.9188,1.9243,1.9263,1.9361,1.9075,1.7594,1.6649,1.5819,1.4973,1.4776,1.4746,1.4683,1.4041,1.3466,1.3466,1.2696,1.2354,1.3133,1.3198,1.3179,1.3248,1.373,1.373,1.2908,1.3018,1.3334,1.3787,1.2991,1.2664,1.3199,1.2925,1.2594,1.2255,1.263,1.2703,1.2361,1.2194,1.1983,1.1741,1.0847,1.033,1.0161,0.9822,0.9573,1.4226,1.415,1.4159,1.4273,1.5184,1.585,1.5049,1.5723,1.6141,1.4741,1.416,1.3735,1.3136,1.2961,1.2909,1.2909,1.4079,1.4742,1.4031,1.4908,1.54,1.486,1.4935,1.5362,1.6248,1.6989,1.7868,1.9005,1.9751,2.0183,2.0312,2.0369,2.0363,2.0345,2.0344,2.0324,2.0258,2.0178,2.0007,1.98,1.9647,1.9475,1.929,1.9265,1.9206,1.9127,1.9127,1.9127,0.0,1.9084,1.9348,1.9719,1.972,1.9957,2.0281,1.992,1.9843,1.9837,1.9504,1.9452,1.9559,1.9593,1.9543,1.943,1.9313,1.9316,1.9376,1.9467,1.9495,1.955,1.9701,1.9446,1.9008,1.8441,1.7261,1.6153,1.5741,1.5235,1.4841,1.4775,1.4111,1.341,1.2923,1.2541,1.2377,1.2668,1.3076,1.3547,1.4,1.421,1.4161,1.3689,1.3566,1.3939,1.5022,1.4224,1.4078,1.5103,1.4473,1.3898,1.3572,1.361,1.348,1.314,1.302,1.283,1.2595,1.2156,1.1869,1.1786,1.1577,1.1394,1.4165,1.42,1.4325,1.4145,1.4778,1.5211,1.4391,1.4851,1.5138,1.4097,1.3601,1.3278,1.3051,1.2732,1.2562,1.2767,1.381,1.449,1.4158,1.5137,1.5781,1.5493,1.5635,1.6105,1.7071,1.7662,1.8461,1.9682,1.9939,2.0152,2.036,2.0433,2.0482,2.0507,2.0526,2.0515,2.0492,2.0449,2.0374,2.026,2.0084,1.9935,1.9805,1.9752,1.9687,1.965,1.965,1.965,0.0,1.9626,2.0038,2.0715,2.0637,2.1076,2.1619,2.0894,2.0646,2.0581,1.9862,1.9682,1.9774,1.9843,1.9899,1.9928,1.9732,1.965,1.9619,1.9688,1.9695,1.9762,1.9922,1.9582,1.9172,1.8967,1.8002,1.7006,1.6671,1.5917,1.5279,1.5226,1.435,1.3454,1.2878,1.2583,1.2493,1.27,1.3201,1.3746,1.4239,1.4444,1.4389,1.3987,1.3913,1.439,1.554,1.4967,1.5005,1.6093,1.5621,1.515,1.4806,1.4818,1.4704,1.4382,1.4266,1.4092,1.3889,1.3577,1.3383,1.3247,1.3136,1.3094,1.4314,1.444,1.4814,1.4085,1.4562,1.4991,1.4183,1.4684,1.5027,1.4011,1.3542,1.3227,1.3033,1.2732,1.272,1.3384,1.411,1.4821,1.5494,1.6165,1.6675,1.6956,1.7167,1.7446,1.7944,1.8643,1.9253,1.9676,1.9836,2.0022,2.0287,2.0357,2.043,2.0495,2.0565,2.0565,2.0495,2.0501,2.046,2.0394,2.0269,2.0164,2.0088,2.0031,1.9993,1.9982,1.9982,1.9982,0.0,1.9909,2.033,2.099,2.0926,2.1344,2.1909,2.1181,2.0909,2.0792,2.0132,1.99,1.9918,1.9981,2.0031,2.0108,2.0088,1.9991,1.9907,1.9907,1.9931,2.0011,2.0079,2.0134,1.9975,1.9196,1.8996,1.8716,1.7788,1.6907,1.6268,1.6208,1.4844,1.3705,1.3686,1.3042,1.2776,1.3579,1.3683,1.3682,1.3626,1.4251,1.435,1.3413,1.3963,1.4552,1.4974,1.4928,1.5107,1.5569,1.6172,1.6321,1.5996,1.649,1.6696,1.647,1.6343,1.6165,1.5963,1.5293,1.4841,1.4572,1.4446,1.4601,1.404,1.4305,1.4689,1.3951,1.4011,1.4179,1.3918,1.4073,1.4134,1.3642,1.3328,1.3106,1.2906,1.2659,1.272,1.3384,1.411,1.4821,1.551,1.618,1.6865,1.7535,1.7995,1.8458,1.8978,1.9038,1.9225,1.9676,1.9821,2.0021,2.0284,2.0315,2.0386,2.0492,2.0515,2.0526,2.0507,2.0498,2.0494,2.0472,2.0381,2.0295,2.0234,2.0272,2.0561,2.1089,2.1082,2.1429,2.1968,2.1912,2.2286,2.2909,2.2899,2.3328,2.3809,2.2444,2.1935,2.174,2.0421,2.0,2.005,2.0107,2.0544,2.0943,2.0406,2.0144,2.004,2.004,2.0088,2.0134,2.0159,2.0211,2.0204,1.9945,1.9424,1.8922,1.8624,1.7872,1.7255,1.7233,1.6311,1.536,1.4761,1.4448,1.4162,1.3812,1.4235,1.4779,1.5315,1.5536,1.5742,1.5929,1.6165,1.6067,1.546,1.5737,1.6181,1.6781,1.7411,1.7641,1.7453,1.7502,1.7482,1.7325,1.7142,1.6954,1.6754,1.6467,1.6166,1.5891,1.581,1.5851,1.4175,1.4796,1.5416,1.4675,1.4519,1.4482,1.4171,1.407,1.3919,1.343,1.3141,1.3026,1.3116,1.2999,1.3194,1.4126,1.4679,1.5201,1.588,1.6549,1.7192,1.7773,1.8271,1.8701,1.8976,1.8966,1.9287,2.0138,2.0017,2.0153,2.0708,2.046,2.0346,2.0456,2.0486,2.0497,2.0508,2.0523,2.0529,2.0506,2.0457,2.0395,2.0344,2.0712,2.1163,2.1654,2.1983,2.2449,0.0,2.2866,2.3262,2.387,2.3541,2.3888,2.4357,2.268,2.207,2.1861,2.0566,2.0363,2.0674,2.0708,2.1105,2.1436,2.0935,2.0488,2.019,2.019,2.0205,2.0235,2.0246,2.0287,2.0339,2.0308,1.9902,1.9529,1.9496,1.8834,1.8236,1.823,1.7523,1.6746,1.6169,1.6086,1.5906,1.5357,1.5706,1.6185,1.6679,1.6694,1.6829,1.7279,1.7283,1.6989,1.6251,1.6729,1.7188,1.7487,1.8124,1.8428,1.827,1.817,1.8069,1.7967,1.7776,1.7603,1.7402,1.7142,1.6926,1.6747,1.6607,1.6543,0.0,1.563,1.6556,1.582,1.5634,1.5428,1.4691,1.4466,0.0,1.336,1.2962,1.2983,1.3576,1.36,1.3952,1.5383,1.5605,1.5817,1.6486,1.7204,1.7688,1.769,1.8146,1.8425,1.8277,1.8643,1.9472,2.0896,2.0311,2.0361,2.1433,2.0735,2.0332,2.0404,2.048,2.0538,2.0585,2.0663,2.0692,2.0675,2.0675,2.0648,2.0618,2.1439,2.1828,0.0,2.2741,2.313,0.0,2.3126,2.3533,2.4111,2.3237,2.3366,2.3802,2.212,2.1543,2.1493,2.0677,2.0976,2.1719,2.1765,2.172,2.1617,2.1675,2.1041,2.0319,2.0319,2.0311,2.0314,2.0302,2.0366,2.0386,2.0328,2.0366,2.0386,2.0328,1.9721,1.9204,1.9184,1.8498,1.7863,1.7805,1.7741,1.7702,1.7702,1.7701,1.7711,1.7685,1.7699,1.7695,1.7699,1.7624,1.7536,1.7404,1.7842,1.8012,1.7724,1.8413,1.8751,1.8544,1.8544,1.8505,1.8445,1.8307,1.8128,1.7945,1.7469,1.724,1.724,1.6968,1.6898,1.4368,0.0,1.4888,1.4161,1.3956,1.3905,0.0,1.3548,1.341,1.3046,1.2832,1.2909,1.351,1.3574,1.3952,1.5383,1.5605,1.5833,1.6433,1.754,1.8136,1.7688,1.849,1.9041,1.8903,1.8849,1.9439,2.0896,2.0269,2.0291,2.1368,2.0653,2.0272,2.0405,2.0468,2.0828,2.1495,2.1562,2.1891,2.2483,2.2489,2.2474,2.2481,2.2675,2.3104,2.3704,2.3953,2.4421,2.4981,2.4978,2.5043,2.5079,2.42,2.398,2.3954,2.2262,2.2074,2.2532,2.1665,2.1934,2.2774,2.3448,2.2768,2.1803,2.2477,2.1597,2.0379,2.0379,2.0386,2.0383,2.0371,2.0439,2.0459,2.04,2.0439,2.0459,2.04,2.0264,2.0153,2.0095,1.938,1.8774,1.8712,1.8178,1.7761,1.7702,1.7701,1.7922,1.8513,1.8592,1.8816,1.9421,1.9439,1.9368,1.9265,1.8634,1.8172,1.7945,1.8631,1.9017,1.8967,1.8967,1.8949,1.8949,1.8659,1.841,1.8211,1.7888,1.7687,1.7572,1.7455,1.7747,1.3665,1.4257,1.4771,1.437,1.4271,1.4185,1.376,1.3586,1.3376,1.2913,1.2716,1.2919,1.3891,1.4,1.4419,1.5808,1.6245,1.6756,1.7688,1.8454,1.8765,1.8422,1.9169,1.9652,1.9525,1.9685,2.0462,2.2028,2.1406,2.1415,2.2498,2.1789,2.1397,2.1499,2.157,2.1671,2.1796,2.1831,2.2265,2.3091,2.3105,2.3096,2.3104,2.3514,2.3923,2.4372,2.482,2.5246,2.5655,2.5656,2.5619,2.5464,2.4628,2.4297,2.4122,2.2819,2.2648,2.2983,2.2516,2.2909,2.3785,2.4613,2.401,2.3041,2.3504,2.2707,2.1478,2.0632,2.041,2.0458,2.0445,2.0469,2.0488,2.0449,2.0469,2.0488,2.0449,2.0469,2.0488,2.0449,2.005,1.9671,1.9613,1.9239,1.893,1.8895,1.89,1.9058,1.9484,1.9542,1.9698,2.0095,2.0117,2.0039,1.9947,1.9385,1.8938,1.8738,1.9084,1.9259,1.923,1.9251,1.9186,1.9087,1.8843,1.8623,1.843,1.8187,1.825,1.8533,1.8438,1.8801,1.2706,1.3664,1.4738,1.4878,1.4911,1.4741,1.4015,1.375,1.3468,1.2774,1.2542,1.2884,1.4309,1.4515,1.4931,1.6255,1.6987,1.7832,1.9075,1.9338,1.9321,1.918,1.9796,2.0172,2.0057,2.0631,2.1715,2.336,2.2763,2.2767,2.385,2.3149,2.2728,2.2802,2.2868,2.2663,2.2182,2.2192,2.2636,2.3506,2.3505,2.3499,2.3525,2.4266,2.46,2.464,0.0,0.0,2.5693,2.5704,2.5675,2.5531,2.4713,2.4401,2.4287,2.3413,2.3179,2.3316,2.3455,2.3979,2.4716,2.5395,2.5063,2.4401,2.4401,2.378,2.2786,2.1231,2.0858,2.0889,2.0909,2.0795,2.0698,2.0698,2.06,2.0503,2.0503,2.0503,2.0503,2.0503,2.0457,2.0391,2.0332,2.0315,2.032,2.0315,2.0308,2.03,2.03,2.0292,2.0265,2.0211,2.018,2.0136,2.0019,1.9947,1.9835,1.9665,1.9574,1.9495,1.9419,1.9413,1.9326,1.9137,1.893,1.8771,1.8659,1.8469,1.8793,1.9566,1.946,1.9904,1.1723,1.1812,1.2116,1.2978,1.3179,1.3105,1.2806,1.2689,1.2589,1.2399,1.2307,1.2686,1.4163,1.4429,1.4843,1.6191,1.6931,1.7602,1.8424,1.9044,1.9215,1.8687,1.9658,2.0323,2.0261,2.0753,2.1753,2.3378,2.2763,2.2767,2.385,2.3149,2.2728,2.2802,2.2861,2.3236,2.3913,2.3968,2.4447,2.5293,2.5291,2.5305,2.5315,2.5432,2.551,2.551,0.0,2.5705,2.5705,2.5703,2.5683,2.5603,2.4744,2.4393,2.4295,2.3419,2.3576,2.4315,2.5039,2.5391,2.5527,2.5644,2.5096,2.4393,2.4393,2.3788,2.3049,2.2752,2.2684,2.2695,2.2701,2.2154,2.1591,2.1591,2.1043,2.0494,2.0494,2.0494,2.0494,2.0494,2.0497,2.0469,2.0395,2.038,2.039,2.0373,2.034,2.0308,2.0306,2.0296,2.0265,2.0211,2.0143,2.0098,2.0078,2.0019,1.9966,1.9938,1.9775,1.9638,1.9585,1.9518,1.9438,1.936,1.9099,1.8965,1.8931,1.8789,1.9143,1.9909,1.989,2.0655,1.0818,1.1028,1.1334,1.169,1.207,1.2347,1.221,1.232,1.2448,1.2448,1.2735,1.3318,1.4454,1.4729,1.535,1.708,1.7929,1.8624,1.9319,1.9741,1.9917,1.9751,2.055,2.1222,2.1554,2.2114,2.2919,2.4057,2.3842,2.3922,2.4568,2.4241,2.4092,2.4191,2.4258,2.4529,2.4999,2.5024,2.5264,2.5698,2.5703,2.5702,2.5707,2.5707,2.5707,2.5707,0.0,2.5707,2.5707,2.5707,2.5707,2.5668,2.5258,2.5102,2.5043,2.4653,2.477,2.516,2.5551,2.5707,2.5707,2.5707,2.5434,2.5102,2.5102,2.4829,2.4497,2.4497,2.3829,2.3103,2.3103,2.2793,2.25,2.25,2.2207,2.1893,2.1893,2.1893,2.1893,2.1893,2.1901,2.1903,2.1866,2.1822,2.1639,2.1161,2.1086,2.1036,2.101,2.0959,2.1111,2.152,2.1091,2.0795,2.0814,2.0346,2.0029,1.9993,1.9919,1.9823,1.9763,1.9701,1.9609,1.9504,1.932,1.9212,1.9219,1.9117,1.9701,2.0934,2.0934,2.177,0.9847,1.0195,1.0583,1.0582,1.1268,1.1927,1.1841,1.2117,1.2454,1.254,1.3065,1.3805,1.4659,1.5212,1.6098,1.793,1.8808,1.9533,2.0212,2.0441,2.0628,2.0811,2.1399,2.2029,2.272,2.3287,2.3905,2.4642,2.4764,2.4921,2.518,2.5198,2.5168,2.5097,2.5158,2.5122,2.4999,2.4987,2.5227,2.5679,2.5693,2.5703,2.5694,2.5693,2.5709,2.5707,2.5707,2.5707,2.5707,2.5707,2.5707,2.5707,2.5707,2.5707,2.5707,2.5707,2.5707,2.5707,2.5707,2.5707,2.5707,2.5707,2.5707,2.5707,2.5707,2.5707,2.5707,2.5707,2.4731,2.3716,2.3716,2.356,2.3404,2.3404,2.3247,2.3091,2.3091,2.3091,2.3091,2.3091,2.3103,2.3093,2.3101,2.3069,2.2797,2.2133,2.2008,2.1989,2.1912,2.186,2.2026,2.2632,2.2096,2.1684,2.1674,2.1072,2.0651,2.0606,2.0245,1.9985,1.9941,1.9861,1.977,1.9662,1.9536,1.9467,1.9475,1.9627,2.0425,2.1812,2.2031,2.2881,0.8718,0.8748,0.8938,0.9548,1.0716,1.1696,1.1556,1.1889,1.2263,1.2386,1.2893,1.3583,1.4376,1.5756,1.7106,1.813,1.8855,1.9566,2.0296,2.0559,2.0761,2.0942,2.1582,2.2231,2.2905,2.3414,2.3963,2.4642,2.4764,2.4921,2.518,2.5198,2.4889,2.4212,2.427,2.3941,2.3193,2.3189,2.3995,2.5605,2.5679,2.5697,2.5703,2.5701,2.5696,2.5707,2.5707,2.5707,2.5707,2.5707,2.5707,2.5707,2.5707,2.5707,2.5707,2.5707,2.5707,2.5707,2.5707,2.5707,2.5707,2.5707,2.5707,2.5707,2.5707,2.5707,2.5707,2.5707,2.5609,2.5512,2.5512,2.4907,2.4319,2.4319,2.3696,2.3091,2.3091,2.3091,2.3091,2.3091,2.3107,2.3101,2.3093,2.3107,2.3062,2.3003,2.295,2.2879,2.281,2.2755,2.2689,2.269,2.2583,2.2505,2.2505,2.2467,2.2429,2.2418,2.0948,2.006,1.9991,1.9928,1.9855,1.9797,1.9713,1.9676,1.9676,2.0489,2.1315,2.2187,2.2984,2.3829,0.792,0.8224,0.8585,0.8742,0.9756,0.0,0.0,1.1234,1.1846,1.1948,1.2504,1.3247,1.4111,1.5536,1.6921,1.7882,1.8743,1.95,2.0296,2.0628,2.0909,2.1166,2.1731,2.2395,2.3069,2.3522,2.402,2.4642,2.4764,2.4921,2.518,2.472,2.4351,2.4116,2.3651,2.3263,2.2998,2.3003,2.3597,2.4798,2.4853,2.5183,2.5697,2.5702,2.5702,2.5707,2.5707,2.5707,2.5707,2.5707,2.5707,2.5707,2.5707,2.5707,2.5707,2.5707,2.5707,2.5707,2.5707,2.5707,2.5707,2.5707,2.5707,2.5707,2.5707,2.5707,2.5707,2.5707,2.5707,2.5707,2.5707,2.5453,2.5219,2.5219,2.4965,2.4711,2.4711,2.4711,2.4711,2.4711,2.4729,2.4727,2.4725,2.4722,2.452,2.3988,2.3856,2.3781,2.3656,2.3612,2.3775,2.42,2.3758,2.3193,2.2658,2.2601,2.2601,2.2601,2.2008,2.1644,2.1613,2.1589,2.1555,2.1483,2.1455,2.1431,2.1431,2.1764,2.2351,2.3137,2.3472,2.4058,0.7893,0.8275,0.8598,0.8507,0.0,0.0,0.9999,1.0828,1.1667,1.1937,1.2443,1.3095,1.3913,1.5167,1.6481,1.7741,1.8663,1.9485,2.0348,2.0728,2.1023,2.1308,2.1849,2.2459,2.3141,2.3566,2.404,2.4642,2.4764,2.4921,2.518,2.467,2.4168,2.3703,2.3172,2.2675,2.2177,2.2202,2.2785,2.3892,2.3937,2.4561,2.5676,2.5693,2.5703,2.5696,2.5693,2.5691,2.5707,2.5707,2.5707,2.5707,2.5707,2.5707,2.5707,2.5707,2.5707,2.5707,2.5707,2.5707,2.5707,2.5707,2.5707,2.5707,2.5707,2.5707,2.5707,2.5707,2.5902,2.6117,2.6117,2.5902,2.5707,2.5707,2.5707,2.5707,2.5707,2.5707,2.5707,2.5707,2.5707,2.5707,2.5705,2.5701,2.5503,2.489,2.4744,2.4666,2.4554,2.4516,2.4697,2.5149,2.4667,2.4064,2.3482,2.3414,2.3422,2.3422,2.3422,2.3163,2.2618,2.2596,2.2574,2.2525,2.2521,2.254,2.254,2.2806,2.3213,2.3771,2.4037,2.4468,0.8738,0.8901,0.8901,0.8901,0.9346,0.9801,0.9814,1.0745,1.1776,1.2444,1.2747,1.3109,1.3842,1.4761,1.5964,1.7698,1.868,1.9551,2.0565,2.0827,2.1023,2.1355,2.1849,2.2476,2.3141,2.3566,2.404,2.4642,2.4764,2.4921,2.518,2.5195,2.4464,2.2868,2.2879,2.2107,2.0434,2.0483,2.1362,2.3018,2.3014,2.3917,2.5601,2.5676,2.5697,2.5703,2.5702,2.5697,2.5707,2.5707,2.5707,2.5707,2.5707,2.5707,2.5707,2.5707,2.5707,2.5707,2.5707,2.5707,2.5707,2.5707,2.5707,2.5707,2.5707,2.5707,2.5707,2.5707,2.6332,2.6997,2.7017,2.6371,2.5726,2.5707,2.5707,2.5707,2.5707,2.5707,2.5707,2.5707,2.5707,2.5705,2.5701,2.5698,2.5693,2.5694,2.5648,2.5585,2.551,2.5448,2.5351,2.5222,2.5209,2.5198,2.5198,2.5203,2.5191,2.5191,2.5191,2.4427,2.2696,2.262,2.262,2.262,2.262,2.262,2.262,2.3498,2.3919,2.3938,2.4809,2.5191,0.8846,0.8901,0.8901,0.8901,0.9346,0.9909,1.0329,1.0718,1.1017,1.1218,1.1677,1.2264,1.3025,1.4269,1.575,1.7522,1.8566,1.9518,2.0434,2.0876,2.1214,2.1432,2.1994,2.2591,2.3212,2.3631,2.4097,2.466,2.4764,2.4921,2.518,2.4621,2.4089,2.3669,2.3118,2.2605,2.2159,2.2216,2.2815,2.3906,2.3911,2.4505,2.5609,2.5667,2.5707,2.5696,2.5702,2.5702,2.5707,2.5707,2.5707,2.5707,2.5707,2.5707,2.5707,2.5707,2.5707,2.5707,2.5707,2.5707,2.5707,2.5707,2.5707,2.5707,2.5707,2.5707,2.5824,2.6449,2.6802,2.7134,2.7756,2.7717,2.7366,2.6761,2.6607,2.6449,2.5824,2.5707,2.5707,2.5707,2.5705,2.5701,2.5701,2.571,2.5701,2.5694,2.5648,2.5585,2.5511,2.5441,2.5374,2.5331,2.5303,2.5262,2.5201,2.5195,2.5191,2.5191,2.5191,2.4962,2.4446,2.4427,2.4427,2.4427,2.4427,2.4427,2.4427,2.4694,2.4809,2.4828,2.5077,2.5191,0.9557,0.9625,0.9625,0.9625,0.9895,1.0247,1.0637,1.0895,1.099,1.0759,1.1089,1.1737,1.2704,1.3756,1.5198,1.7416,1.8385,1.9275,2.0487,2.1023,2.1386,2.1688,2.222,2.2764,2.3323,2.3714,2.4135,2.4657,2.4764,2.4921,2.518,2.4706,2.4298,2.4015,2.3225,2.2674,2.2437,2.2468,2.2918,2.3795,2.4119,2.476,2.5601,2.5639,2.566,2.5654,2.5652,2.5683,2.57,2.5698,2.5696,2.5693,2.5709,2.5707,2.5707,2.5707,2.5707,2.5707,2.5707,2.5707,2.5707,2.5707,2.5707,2.5707,2.5707,2.5941,2.6332,2.6841,2.7505,2.8149,2.8674,2.9045,2.8986,2.7795,2.7251,2.6861,2.6332,2.5941,2.5707,2.5705,2.5701,2.5698,2.569,2.5701,2.5691,2.5707,2.5643,2.5585,2.5538,2.5485,2.5441,2.5429,2.5378,2.5322,2.5283,2.522,2.5206,2.5206,2.5206,2.5206,2.5206,2.5203,2.5191,2.5191,2.5191,2.5191,2.5191,2.5191,2.5191,2.5191,2.5191,2.5191,1.0545,1.0705,1.0705,1.0705,1.0705,1.0705,1.0705,1.1125,1.137,1.0813,1.0849,1.1416,1.2781,1.3359,1.4545,1.7438,1.819,1.8999,2.067,2.1214,2.1615,2.2096,2.2563,2.3025,2.3477,2.3816,2.421,2.4676,2.4764,2.4921,2.518,2.5191,2.4862,2.4149,2.3349,2.2605,2.1933,2.1923,2.2333,2.3134,2.4008,2.4818,2.5601,2.5595,2.56,2.5598,2.5612,2.5648,2.5697,2.5702,2.5703,2.57,2.5693,2.5707,2.5707,2.5707,2.5707,2.5707,2.5785,2.5824,2.5824,2.5902,2.5941,2.5941,2.5941,2.6488,2.7134,2.7212,2.8383,2.9613,2.9689,3.0255,3.0411,2.8889,2.7874,2.7192,2.7036,2.6371,2.5783,2.572,2.5698,2.5693,2.5694,2.5691,2.5707,2.5699,2.5649,2.5604,2.5613,2.5564,2.5518,2.5517,2.5445,2.5415,2.5416,2.5284,2.5214,2.5214,2.5214,2.5214,2.5222,2.5206,2.5191,2.5191,2.5191,2.5191,2.5191,2.5191,2.5191,2.5191,2.5191,2.5191,1.0664,1.0705,1.0705,1.0705,1.0705,1.0705,1.0705,1.0838,1.0917,1.0745,1.0849,1.145,1.2963,1.3906,1.5231,1.7653,1.8764,1.9704,2.0815,2.1446,2.1982,2.2449,2.2848,2.3277,2.3692,2.3941,2.4248,2.4676,2.4764,2.4921,2.518,2.5195,2.5133,2.5013,2.4245,2.3774,2.3663,2.3663,2.3785,0.0,2.4902,2.5426,2.5601,2.5599,2.5595,2.56,2.5659,2.5693,2.5703,2.5703,2.5698,2.5703,2.5696,2.5707,2.5707,2.5707,2.5707,2.5805,2.6488,2.6724,2.682,2.7522,2.7737,2.7737,2.7737,2.7874,2.8166,2.885,2.932,2.9747,3.0372,3.0665,3.0704,3.0353,2.963,2.8676,2.731,2.6856,2.652,2.5835,2.571,2.5697,2.5694,2.5707,2.5703,2.5699,2.5691,2.5687,2.5687,2.5663,2.563,2.559,2.5511,2.5479,2.549,2.5398,2.5365,2.5365,2.5365,2.5357,2.536,2.5271,2.5206,2.5206,2.5203,2.5191,2.5191,2.5191,2.5191,2.5191,2.5191,2.5191,1.0705,1.0705,1.0705,1.0705,1.0922,1.1058,1.0773,1.1009,1.1206,1.0966,1.1038,1.1556,1.275,1.3784,1.5186,1.7437,1.8682,1.9792,2.1052,2.1731,2.2275,2.2746,2.3135,2.3518,2.3876,2.4039,2.4302,2.4676,2.4764,2.4921,2.518,2.5203,2.5228,2.5311,2.4514,2.4122,2.4205,2.4238,2.4282,2.4313,2.5174,2.5601,2.5601,2.5607,2.5593,2.5599,2.5646,2.5657,2.5654,2.5655,2.5661,2.5697,2.5703,2.5697,2.5753,2.6177,2.6312,2.6449,2.7327,2.762,2.7698,2.8147,2.8303,2.8303,2.8303,2.8596,2.9025,2.9474,2.9884,3.0274,3.0684,3.0801,3.0801,3.0801,3.0196,2.9359,2.8442,2.7598,2.6871,2.6418,2.5999,2.5697,2.5707,2.5703,2.5699,2.5699,2.603,2.6264,2.6264,2.6634,2.6723,2.6262,2.6193,2.599,2.5577,2.5873,2.6064,2.6064,2.6459,2.6676,2.6644,2.6555,2.6079,2.5209,2.5195,2.5382,2.5784,2.5784,2.5784,2.5784,2.5784,2.5573,1.0705,1.0705,1.0705,1.0729,1.1216,1.1542,1.105,1.1424,1.1757,1.14,1.1379,1.1678,1.2503,1.3494,1.4916,1.7039,1.8371,1.9679,2.1207,2.1967,2.2556,2.3021,2.3405,2.3747,2.3996,2.4153,2.4356,2.4676,2.4764,2.4921,2.518,2.5191,2.5236,2.5311,2.4523,2.413,2.4205,2.4264,2.4288,2.4313,2.5174,2.5601,2.5601,2.5601,2.5601,2.5601,2.5601,2.5599,2.5591,2.5609,2.5636,2.5701,2.5702,2.5702,2.5815,2.6687,2.6997,2.7153,2.8166,2.8518,2.8557,2.8693,2.8732,2.8732,2.8732,2.924,2.9806,2.9806,3.0294,3.0801,3.0801,3.0801,3.0801,3.0801,3.0294,2.9767,2.9632,2.8479,2.7362,2.7059,2.6292,2.574,2.5878,2.5913,2.5952,2.6108,2.6693,2.7121,2.7121,2.7745,2.7916,2.7206,2.6992,2.6679,2.6104,2.6508,2.6883,2.7019,2.7725,2.808,2.8039,2.7965,2.7229,2.5726,2.5669,2.5987,2.6637,2.6625,2.6625,2.6625,2.646,2.6039,1.0705,1.0729,1.0801,1.0849,1.1405,1.195,1.1917,1.2046,1.216,1.2211,1.1835,1.1769,1.2696,1.3627,1.4858,1.6616,1.8265,1.975,2.0899,2.2036,2.29,2.33,2.3606,2.3876,2.4151,2.4247,2.441,2.4676,2.4764,2.4921,2.518,2.5195,2.5228,2.5311,2.4533,2.4141,2.4205,2.4206,2.4251,2.4313,2.5174,2.5601,2.5601,2.5601,2.5601,2.5601,2.5601,2.5599,2.561,2.56,2.5639,2.5695,2.5701,2.5698,2.5806,2.6685,2.6997,2.7231,2.885,2.9435,2.9533,3.0235,3.047,3.047,3.047,3.0548,3.0645,3.0645,3.0723,3.0801,3.0801,3.0801,3.0801,3.0801,3.0723,3.045,2.9747,2.9411,2.8801,2.7295,2.6292,2.5925,2.6615,2.6732,2.7004,2.7745,2.7959,2.8037,2.8037,2.8134,2.8149,2.8033,2.7351,2.7152,2.7794,2.7264,2.7206,2.7965,2.8121,2.8189,2.8168,2.8113,2.7957,2.7726,2.7545,2.7501,2.7616,2.7553,2.7522,2.7503,2.6739,2.6345,1.1207,1.1037,1.0979,1.1448,1.2133,1.2704,1.2859,1.2921,1.2867,1.2677,1.2209,1.1966,1.2421,1.3678,1.5032,1.6257,1.8344,2.0135,2.1096,2.2254,2.314,2.3477,2.3753,2.3978,2.4172,2.4339,2.4495,2.4685,2.4804,2.4961,2.518,2.5203,2.5217,2.5241,2.4947,2.4791,2.4861,2.4916,2.4969,2.5038,2.5426,2.5601,2.5601,2.5601,2.5601,2.5601,2.5601,2.5599,2.5591,2.5604,2.5644,2.5707,2.5702,2.5994,2.6534,2.7407,2.803,2.8637,2.9845,3.0274,3.0333,3.0684,3.0801,3.0801,3.0801,3.0801,3.0801,3.0801,3.0801,3.0801,3.0801,3.0801,3.0801,3.0801,3.0801,3.0704,3.0353,2.9921,2.9235,2.7975,2.7394,2.7203,2.7569,2.7628,2.7764,2.8134,2.8621,2.8929,2.8929,2.9357,2.9474,2.8987,2.8582,2.831,2.8212,2.831,2.8524,2.889,2.9396,2.9664,2.9669,2.9596,2.9551,2.9569,2.8481,2.8135,2.8574,2.851,2.8476,2.842,2.7995,2.7568,1.1472,1.1377,1.1412,1.2035,1.2877,1.36,1.3774,1.3864,1.3734,1.3223,1.2763,1.2494,1.2598,1.3882,1.5222,1.6149,1.8478,2.0406,2.115,2.2422,2.3371,2.3628,2.3876,2.4077,2.4248,2.4426,2.4594,2.4741,2.4861,2.5019,2.518,2.5191,2.5214,2.519,2.5243,2.5322,2.5398,2.5478,2.5557,2.5601,2.5601,2.5601,2.5601,2.5601,2.5601,2.5601,2.5601,2.5599,2.5591,2.5609,2.5642,2.5712,2.5936,2.6425,2.7121,2.8227,2.9045,2.9728,3.0528,3.0801,3.0801,3.0801,3.0801,3.0801,3.0801,3.0801,3.0801,3.0801,3.0801,3.0801,3.0801,3.0801,3.0801,3.0801,3.0801,3.0801,3.0799,3.0155,2.9372,2.873,2.8384,2.8275,2.8485,2.8524,2.8621,2.8831,2.9416,2.9825,2.9825,3.039,3.0546,2.9903,2.963,2.9318,2.889,2.924,2.9591,2.9825,3.0429,3.0799,3.0808,3.0748,3.073,3.0737,2.9394,2.8996,2.9574,2.9464,2.939,2.9351,2.9066,2.8606,1.1118,1.1656,1.2269,1.2434,1.351,1.4559,1.471,1.483,1.4749,1.4163,1.3719,1.351,1.3755,1.4448,1.5348,1.6407,1.8665,2.0435,2.078,2.2349,2.3553,2.3774,2.3976,2.4172,2.4372,2.4512,2.4692,2.4874,2.4947,2.5063,2.5191,2.5191,2.5191,2.5191,2.5209,2.5274,2.5395,2.5531,2.5601,2.5601,2.5601,2.5601,2.5601,2.5601,2.5601,2.5601,2.5601,2.5599,2.561,2.5595,2.5642,2.5778,2.6601,2.6951,2.7212,2.891,2.9552,2.9728,3.0528,3.0801,3.0801,3.0801,3.0801,3.0801,3.0801,3.0801,3.0801,3.0801,3.0801,3.0801,3.0801,3.0801,3.0801,3.0801,3.0801,3.0799,3.0794,3.0127,2.95,2.9441,2.8774,2.8459,2.9284,2.9435,2.9708,3.0546,3.0701,3.0721,3.0721,3.076,3.0779,3.074,2.9981,2.9825,3.0604,2.9942,2.9844,3.0682,3.076,3.0799,3.0799,3.0799,3.0799,3.0799,3.0697,3.0607,3.0537,3.0404,3.0323,3.0309,2.9421,2.8969,1.2277,1.2487,1.2731,1.3738,1.4408,1.5007,1.557,1.5461,1.5216,1.5077,1.4733,1.4686,1.538,1.5383,1.5587,1.6559,1.8879,2.066,2.0941,2.2511,2.3689,2.3896,2.4075,2.4248,2.4442,2.4629,2.4783,2.4947,2.5019,2.5101,2.521,2.5191,2.5191,2.5191,2.5206,2.5253,2.5412,2.5524,2.5589,2.5601,2.5601,2.5601,2.5601,2.5601,2.5601,2.5601,2.5601,2.5599,2.5591,2.5604,2.5948,2.6501,2.6806,2.7614,2.8672,2.9315,2.9898,3.0401,3.0706,3.0801,3.0801,3.0801,3.0801,3.0801,3.0801,3.0801,3.0801,3.0801,3.0801,3.0801,3.0801,3.0801,3.0801,3.0801,3.0801,3.0799,3.0807,3.0551,3.0329,3.0338,3.0072,2.997,3.0278,3.0331,3.0429,3.074,3.0799,3.0799,3.0799,3.0799,3.0799,3.0799,3.0526,3.0468,3.076,3.0507,3.0468,3.0779,3.0799,3.0799,3.0799,3.0799,3.0799,3.0799,3.0799,3.0759,3.0658,3.0576,3.0527,3.052,3.0133,2.9959,1.2972,1.3357,1.3705,1.4764,1.5266,1.5637,1.6208,1.6093,1.5839,1.5742,1.5586,1.5638,1.6375,1.6206,1.6265,1.7141,1.9208,2.0837,2.1167,2.2677,2.3837,2.4036,2.4172,2.4321,2.4545,2.4707,2.487,2.5051,2.5101,0.0,2.521,2.5191,2.5191,2.5203,2.5217,2.5283,2.5395,2.5503,2.557,2.5564,2.5595,2.5601,2.5601,2.5601,2.5601,2.5601,2.5601,2.5599,2.56,2.5591,2.6119,2.6938,2.7218,2.8223,2.9545,2.9821,3.0293,3.08,3.0827,3.0841,3.0841,3.0801,3.0801,3.0801,3.0801,3.0801,3.0801,3.0801,3.0801,3.0801,3.0801,3.0799,3.0799,3.0799,3.0796,3.0791,3.0798,3.0794,3.0794,3.0798,3.0808,3.0799,3.0799,3.0799,3.0799,3.0799,3.0799,3.0799,3.0799,3.0799,3.0799,3.0799,3.0799,3.0799,3.0799,3.0799,3.0799,3.0799,3.0799,3.0799,3.0799,3.0799,3.0799,3.0799,3.0799,3.0774,3.0734,3.0659,3.0625,3.0626,3.0565,3.0519,0.0,0.0,0.0,1.5502,1.604,1.6554,1.6581,1.6712,1.669,1.6152,1.6207,1.6415,1.6682,1.6969,1.7374,1.8104,1.9685,2.0948,2.1366,2.2839,2.3996,2.417,2.4266,2.441,2.4657,2.4746,2.4921,2.518,2.5191,2.5191,2.5191,2.5191,2.5203,2.5187,2.5261,2.5341,2.5398,2.5476,2.549,2.5499,2.557,2.5601,2.5601,2.5601,2.5601,2.5601,2.5601,2.5607,2.5599,2.5607,2.6129,2.7016,2.7871,2.874,2.9638,3.0489,3.0796,3.0818,3.0871,3.0899,3.0899,3.0821,3.0801,3.0801,3.0801,3.0801,3.0801,3.0801,3.0801,3.0801,3.0841,3.0836,3.0833,3.0872,3.0882,3.0872,3.088,3.0888,3.0868,3.0804,3.0818,3.0838,3.0799,3.0799,3.0799,3.0799,3.0799,3.0799,3.0799,3.0799,3.0799,3.0799,3.0799,3.0799,3.0799,3.0799,3.0799,3.0799,3.0799,3.0799,3.0799,3.0799,3.0799,3.0799,3.0799,3.0799,3.0799,3.0736,3.0711,3.0697,3.0634,3.061,1.4829,0.0,0.0,0.0,0.0,0.0,1.6977,1.7076,1.7134,1.7042,1.718,1.7389,1.765,1.7855,1.8104,1.8566,2.0014,2.1191,2.1497,2.303,2.4152,2.4266,2.4375,2.4512,2.4685,2.4785,2.4961,0.0,2.5191,2.5191,2.5191,2.5191,2.5191,2.5203,2.5269,2.5332,2.5397,2.5464,2.5524,2.557,2.5595,2.5601,2.5601,2.5601,2.5601,2.5601,2.5601,2.5601,2.5607,2.5601,2.6487,2.7851,2.811,2.9118,3.0463,3.0703,3.0801,3.0795,3.082,3.0836,3.0811,3.0804,3.0801,3.0801,3.0801,3.0801,3.0801,3.0801,3.0801,3.0955,3.1574,3.175,3.1903,3.2537,3.267,3.2686,3.2673,3.2673,3.2303,3.1037,3.131,3.1544,3.0916,3.0799,3.0799,3.0799,3.0799,3.0799,3.0799,3.0799,3.0799,3.0799,3.0799,3.0799,3.0799,3.0799,3.0799,3.0799,3.0799,3.0799,3.0799,3.0799,3.0799,3.0799,3.0799,3.0799,3.0799,3.0789,3.0764,3.0778,3.0748,3.0748,1.5805,1.6317,1.6746,1.7269,0.0,0.0,1.7368,1.7462,1.7555,1.7595,1.7777,1.7975,1.8187,1.8371,1.8584,1.8825,2.0047,2.1134,2.1641,2.3216,2.4339,2.4462,2.4545,2.4639,2.4771,2.4874,2.5019,2.518,2.5191,2.5191,2.5191,2.5191,2.5191,2.5203,2.528,2.5322,2.5397,2.5464,2.5517,2.5564,2.5595,2.5601,2.5601,2.5601,2.5601,2.5601,2.5601,2.5601,2.5601,2.5601,2.6629,2.8207,2.8198,2.927,3.0804,3.0793,3.081,3.0807,3.0793,3.08,3.08,3.0827,3.0841,3.0841,3.0801,3.0801,3.0801,3.0801,3.1053,3.146,3.1962,3.2365,3.2767,3.3286,3.3399,3.3395,3.3405,3.3658,3.3502,3.2148,3.2284,3.2479,3.1973,3.1583,3.1349,3.1349,3.1037,3.0799,3.0799,3.0799,3.0799,3.0799,3.0799,3.0799,3.0799,3.0799,3.0799,3.0799,3.0799,3.0955,3.133,3.1349,3.1505,3.1875,3.1525,3.1154,3.0799,3.0799,3.0799,3.0799,3.0799,3.0799,1.6351,1.6997,0.0,1.7732,1.7839,0.0,1.78,1.7888,1.7971,1.7971,1.8103,1.8307,1.8445,1.8658,1.8861,1.9018,1.9941,2.0926,2.1784,2.3293,2.4398,2.4689,2.4716,2.4771,2.4902,2.4961,2.5063,2.518,2.5191,2.5191,2.5191,2.5191,2.5203,2.5206,2.5261,2.5322,2.5398,2.5464,2.549,2.5499,2.557,2.5601,2.5601,2.5601,2.5601,2.5601,2.5601,2.5601,2.5601,2.5698,2.6712,2.8198,2.8194,2.9275,3.0799,3.0803,3.0798,3.0808,3.0785,3.0786,3.0818,3.0871,3.0882,3.0882,3.0821,3.0801,3.0821,3.0916,3.1499,3.2137,3.2349,3.2959,3.3565,3.3663,3.3678,3.3687,3.3687,3.4233,3.4525,3.3824,3.359,3.3492,3.3414,3.2757,3.225,3.225,3.1583,3.1052,3.0955,3.0935,3.0916,3.0799,3.0896,3.0935,3.0935,3.1033,3.1091,3.1091,3.1091,3.1447,3.2211,3.225,3.262,3.3375,3.264,3.1856,3.1091,3.0896,3.0799,3.0799,3.0896,3.0935,1.7394,1.7737,1.8031,1.8222,1.8307,0.0,1.8336,1.8356,1.8375,1.8375,1.8452,1.8585,1.8771,1.8895,1.9031,1.9289,2.0122,2.1061,2.1943,2.2952,2.3889,2.4685,2.4832,2.4888,2.498,2.5032,2.5113,2.5191,2.5191,2.5191,2.5191,2.5191,2.5191,2.5203,2.5269,2.5332,2.5406,2.5464,2.5524,2.557,2.5595,2.5601,2.5601,2.5601,2.5601,2.5601,2.5601,2.5607,2.5657,2.6357,2.7268,2.8204,2.8203,2.9264,3.0799,3.0799,3.0794,3.0799,3.073,3.0742,3.0808,3.082,3.0818,3.0813,3.0804,3.0801,3.0955,3.1652,3.1962,3.2427,3.3832,3.433,3.4618,3.5251,3.5402,3.5402,3.5402,3.5538,3.5597,3.5441,3.4856,3.4155,3.3512,3.3264,3.3147,3.3147,3.3005,3.2635,3.1934,3.1856,3.1583,3.0877,3.1427,3.1856,3.1856,3.2479,3.2888,3.2888,3.2888,3.2966,3.3147,3.3147,3.3225,3.3395,3.3225,3.3064,3.2888,3.1486,3.0799,3.0818,3.1525,3.1856,1.7284,1.7831,1.8351,1.8544,0.0,0.0,0.0,1.868,1.8698,1.8661,1.8753,1.8878,1.9017,1.9132,1.9399,2.0,2.0583,2.1422,2.2763,2.3299,2.3901,2.4879,2.5032,2.5057,2.5088,2.5125,2.5168,2.521,2.5191,2.5191,2.5191,2.5191,2.5203,2.5195,2.528,2.5322,2.5397,2.5464,2.5517,2.5557,2.5576,2.5601,2.5601,2.5601,2.5601,2.5601,2.5601,2.584,2.6285,2.6723,2.7673,2.8846,2.8844,2.9643,3.0799,3.0799,3.0799,3.0789,3.0728,3.0735,3.0794,3.081,3.08,3.0879,3.1315,3.1758,3.2185,3.2625,3.3051,3.359,3.4467,3.5003,3.5407,3.5791,3.5908,3.5908,3.5908,3.5908,3.5908,3.5908,3.5558,3.5109,3.472,3.4291,3.3999,3.3999,3.3648,3.3239,3.2796,3.2757,3.2577,3.2148,3.2479,3.2757,3.2757,3.3147,3.3395,3.3395,3.3395,3.357,3.3979,3.3999,3.3999,3.3999,3.3999,3.3804,3.3395,3.2518,3.2109,3.2109,3.2538,3.2757,1.6967,1.7778,1.8605,1.8807,0.0,1.8947,0.0,0.0,0.0,1.8947,1.9049,1.92,1.9277,1.9413,1.9778,2.0717,2.1017,2.1751,2.3567,2.3776,2.4105,2.5084,2.5191,2.5191,2.5191,2.5191,2.5191,2.5191,2.5191,2.5191,2.5191,2.5191,2.5203,2.5206,2.5261,2.5312,2.538,2.5448,2.5483,2.5511,2.5564,2.5595,2.5601,2.5601,2.5601,2.5621,2.5776,2.6254,2.6932,2.7259,2.8233,2.9503,2.9499,3.0022,3.0804,3.0804,3.0794,3.0773,3.0711,3.0743,3.0784,3.0781,3.0905,3.121,3.2082,3.2834,3.3434,3.3601,3.416,3.4733,3.4891,3.5407,3.5908,3.5908,3.5908,3.5908,3.5908,3.5908,3.5908,3.5908,3.5908,3.5908,3.5908,3.5324,3.4856,3.4856,3.4291,3.3824,3.3648,3.3629,3.357,3.3414,3.3531,3.3629,3.3629,3.3785,3.3882,3.3882,3.3882,3.4174,3.4817,3.4856,3.4856,3.4856,3.4856,3.4525,3.3882,3.3882,3.3726,3.3395,3.3551,3.3629,0.0,0.0,0.0,0.0,1.9162,0.0,0.0,0.0,1.9357,1.9413,0.0,1.9485,1.9625,0.0,0.0,0.0,2.118,2.1825,2.3629,2.3877,2.4213,2.5096,2.5191,2.5191,2.5191,2.5191,2.5191,2.5191,2.5191,2.5191,2.5191,2.5191,2.5191,2.5191,2.5209,2.5233,2.5321,2.5378,2.5445,2.5503,2.5564,2.5609,2.5601,2.5601,2.5601,2.564,2.6417,2.6804,2.7026,2.8563,2.9318,2.9498,2.9503,3.003,3.0798,3.0804,3.0764,3.0703,3.0704,3.0698,3.0709,3.0701,3.1267,3.2109,3.2985,3.3328,3.3571,3.4335,3.462,3.485,3.5588,3.583,3.5908,3.5908,3.5908,3.5908,3.5908,3.5908,3.5908,3.5908,3.5908,3.5908,3.5908,3.5811,3.5752,3.5752,3.5675,3.5343,3.4564,3.4467,3.4194,3.3473,3.4038,3.4467,3.4467,3.5168,3.5616,3.5616,3.5616,3.5655,3.5752,3.5752,3.5752,3.5752,3.5752,3.5713,3.5616,3.5616,3.4856,3.3414,3.4135,3.4467,0.0,0.0,0.0,0.0,0.0,0.0,1.9513,0.0,1.9578,0.0,0.0,0.0,0.0,0.0,0.0,0.0,2.2407,2.3214,2.4492,2.4645,2.479,2.5153,0.0,0.0,2.5191,2.5191,2.5191,2.5191,2.5191,2.5191,2.5191,2.5191,2.5191,2.5191,2.5195,2.5217,2.525,2.5303,2.5379,2.5432,2.5515,2.5538,2.5538,2.5576,2.5873,2.6378,2.6747,2.7445,2.8415,2.918,2.9805,3.0258,3.0244,3.0474,3.0808,3.0804,3.0764,3.0697,3.0704,3.0711,3.0788,3.1343,3.2455,3.3685,3.4042,3.4508,3.4976,3.5341,3.5447,3.5513,3.5827,3.5894,3.5908,3.5908,3.5908,3.5908,3.5908,3.5908,3.5908,3.5908,3.5908,3.5908,3.5908,3.5908,3.5908,3.5908,3.5908,3.5772,3.5402,3.5343,3.5226,3.4895,3.5148,3.5343,3.5343,3.5694,3.5908,3.5908,3.5908,3.5908,3.5908,3.5908,3.5908,3.5908,3.5908,3.5908,3.5908,3.5908,3.5538,3.4856,3.5207,3.5343,1.7027,0.0,0.0,0.0,0.0,0.0,0.0,0.0,0.0,0.0,0.0,0.0,0.0,0.0,0.0,0.0,0.0,2.4202,0.0,2.5191,2.5191,2.5191,0.0,0.0,0.0,2.5191,2.5191,2.5191,2.5401,2.544,2.521,2.5421,2.5535,2.5535,2.5535,2.5643,2.5884,2.571,2.5648,2.5698,2.5556,2.5476,2.5505,2.5564,2.6081,2.6903,2.7136,2.8042,2.9421,2.9718,3.0208,3.0799,3.0802,3.0798,3.0799,3.0799,3.0764,3.0697,3.0704,3.0853,3.1255,3.2421,3.3639,3.4713,3.4966,3.5469,3.5984,3.5996,3.6004,3.5986,3.5938,3.5929,3.5919,3.5919,3.5919,3.5919,3.5919,3.5919,3.5919,3.5894,3.5894,3.5894,3.5889,3.5908,3.5908,3.5908,3.5908,3.5908,3.5908,3.5908,3.5908,3.5908,3.5908,3.5908,3.5908,3.5908,3.5908,3.5908,3.5908,3.5908,3.5908,3.5908,3.5908,3.5908,3.5908,3.5908,3.5908,3.5908,3.5908,3.5908,3.5908,3.5908,0.0,0.0,0.0,1.8836,0.0,0.0,0.0,0.0,2.0131,0.0,0.0,0.0,0.0,0.0,0.0,0.0,0.0,0.0,0.0,0.0,2.5191,2.5191,0.0,0.0,0.0,2.5191,2.5191,0.0,2.5906,2.602,2.5249,2.5925,2.6364,2.6364,2.6364,2.6765,2.7606,2.6845,2.6469,2.6453,2.5735,2.5445,2.5503,2.5564,2.6075,2.6941,2.7718,2.856,2.9473,3.0309,3.0716,3.0808,3.0799,3.0799,3.0799,3.0799,3.0764,3.0697,3.0704,3.1254,3.2252,3.3965,3.4561,3.4754,3.5614,3.5873,3.5918,3.5987,3.5994,3.5997,3.6005,3.6005,3.6005,3.6005,3.6005,3.6005,3.6005,3.6005,3.5981,3.5909,3.5909,3.5904,3.5894,3.5908,3.5908,3.5908,3.5908,3.5908,3.5908,3.5908,3.5908,3.5908,3.5908,3.5908,3.5908,3.5908,3.5908,3.5908,3.5908,3.5908,3.5908,3.5908,3.5908,3.5908,3.5908,3.5908,3.5908,3.5908,3.5908,3.5908,3.5908,3.5908,0.0,0.0,1.9467,1.9491,0.0,0.0,0.0,0.0,0.0,0.0,0.0,0.0,0.0,0.0,0.0,0.0,0.0,0.0,0.0,0.0,2.5195,2.5191,2.5191,2.5191,0.0,0.0,2.5421,2.5944,2.6249,0.0,2.6001,2.6249,2.6402,2.6402,2.6402,2.6823,2.7701,2.6866,2.6469,2.6493,2.5716,2.537,2.5443,2.5488,2.6326,2.7704,2.7977,2.8923,3.0277,3.0581,3.0711,3.0736,3.0728,3.1084,3.1596,3.1582,3.1571,3.1631,3.222,3.2963,3.3767,3.4399,3.4982,3.5521,3.5802,3.5935,3.5976,3.5994,3.5999,3.5997,3.5997,3.6009,3.6005,3.6005,3.6005,3.6005,3.6005,3.6005,3.5986,3.5962,3.5934,3.5909,3.5904,3.5894,3.5908,3.5908,3.5908,3.5908,3.5908,3.5908,3.5908,3.5908,3.5908,3.5908,3.5908,3.5908,3.5908,3.5908,3.5908,3.5908,3.5908,3.5908,3.5908,3.5908,3.5908,3.5908,3.5908,3.5908,3.5908,3.5908,3.5908,3.5908,1.7351,1.8111,0.0,1.8903,1.926,0.0,1.9963,0.0,2.0155,0.0,0.0,0.0,0.0,0.0,0.0,0.0,0.0,0.0,0.0,2.5241,0.0,2.5206,2.5203,2.5191,2.5191,2.5459,2.5841,2.6364,2.6956,0.0,0.0,2.6689,2.6861,2.6861,2.6861,2.7415,2.858,2.772,2.7313,2.7344,2.6573,2.6205,2.6256,2.6348,2.7179,2.8528,2.8546,2.9382,3.069,3.069,3.0704,3.0737,3.1041,3.1514,3.2007,3.1993,3.2201,3.259,3.3437,3.407,3.4564,3.4902,3.5399,3.5873,3.5891,3.6153,3.6421,3.6465,3.6454,3.6453,3.6453,3.6235,3.5997,3.5997,3.5997,3.5997,3.5997,3.5997,3.5994,3.599,3.5966,3.5938,3.5934,3.5948,3.5919,3.5889,3.5908,3.5908,3.5908,3.5908,3.5908,3.5908,3.5908,3.5908,3.5908,3.5908,3.5908,3.5908,3.5908,3.5908,3.5908,3.5908,3.5908,3.5908,3.5908,3.5908,3.5908,3.5908,3.5908,3.5908,3.5908,3.5908]},{"header":{"parameterUnit":"m.s-1","parameterCategory":1,"la1":30.6,"la2":29.2853,"lo1":-89.7004,"lo2":-87.6739,"dy":0.0162,"dx":0.0183,"nx":112,"ny":82,"refTime":"2026-05-09T12:00:00:Z","depth":0,"parameterNumber":3,"parameterNumberName":"V-component_of_WINDS"},"data":[0.0,0.0,0.0,0.0,0.0,0.0,0.0,0.0,0.0,0.0,0.0,0.0,0.0,0.0,0.0,0.0,0.0,0.0,0.0,0.0,0.0,0.0,0.0,0.0,0.0,0.0,0.0,0.0,0.0,0.0,0.0,0.0,0.0,0.0,0.0,0.0,0.0,0.0,0.0,0.0,0.0,0.0,0.0,0.0,0.0,0.0,0.0,0.0,0.0,0.0,0.0,0.0,0.0,0.0,0.0,0.0,0.0,0.0,0.0,0.0,0.0,0.0,0.0,0.0,0.0,0.0,0.0,0.0,0.0,0.0,0.0,0.0,0.0,0.0,0.0,0.0,0.0,0.0,0.0,0.0,0.0,0.0,0.0,0.0,0.0,0.0,0.0,0.0,0.0,0.0,0.0077,-0.0833,-0.1656,-0.2311,-0.2742,-0.3394,-0.3893,-0.4172,0.0,0.0,0.0,0.0,0.0,0.0,0.0,0.0,0.0,0.0,0.0,0.0,0.0,0.0,0.0,0.0,0.0,0.0,0.0,0.0,0.0,0.0,0.0,0.0,0.0,0.0,0.0,0.0,0.0,0.0,0.0,0.0,0.0,0.0,0.0,0.0,0.0,0.0,0.0,0.0,0.0,0.0,0.0,0.0,0.0,0.0,0.0,0.0,0.0,0.0,0.0,0.0,0.0,0.0,0.0,0.0,0.0,0.0,0.0,0.0,0.0,0.0,0.0,0.0,0.0,0.0,0.0,0.0,0.0,0.0,0.0,0.0,0.0,0.0,0.0,0.0,0.0,0.0,0.0,0.0,0.0,0.0,0.0,0.0,0.0,0.0,0.0,0.0,0.0,0.0,0.0,0.0,0.0,0.0,0.0,0.0,0.0,0.0,0.0,0.0,0.0,0.0,0.0,0.0,-0.0076,-0.1718,-0.2181,-0.256,-0.3093,-0.3981,-0.4525,-0.4511,0.0,0.0,0.0,0.0,0.0,0.0,0.0,0.0,0.0,0.0,0.0,0.0,0.0,0.0,0.0,0.0,0.0,0.0,0.0,0.0,0.0,0.0,0.0,0.0,0.0,0.0,0.0,0.0,0.0,0.0,0.0,0.0,0.0,0.0,0.0,0.0,0.0,0.0,0.0,0.0,0.0,0.0,0.0,0.0,0.0,0.0,0.0,0.0,0.0,0.0,0.0,0.0,0.0,0.0,0.0,0.0,0.0,0.0,0.0,0.0,0.0,0.0,0.0,0.0,0.0,0.0,0.0,0.0,0.0,0.0,0.0,0.0,0.0,0.0,0.0,0.0,0.0,0.0,0.0,0.0,0.0,0.0,0.0,0.0,0.0,0.0,0.0,0.0,0.0,0.0,0.0,0.0,0.0,0.0,0.0,0.0,0.0,0.0,0.0,0.0,0.0,0.0,0.0,0.0331,-0.0603,-0.2156,-0.2805,-0.3289,-0.3691,-0.4655,-0.5339,-0.557,-0.6223,0.0,0.0,0.0,0.0,0.0,0.0,0.0,0.0,0.0,0.0,0.0,0.0,0.0,0.0,0.0,0.0,0.0,0.0,0.0,0.0,0.0,0.0,0.0,0.0,0.0,0.0,0.0,0.0,0.0,0.0,0.0,0.0,0.0,0.0,0.0,0.0,0.0,0.0,0.0,0.0,0.0,0.0,0.0,0.0,0.0,0.0,0.0,0.0,0.0,0.0,0.0,0.0,0.0,0.0,0.0,0.0,0.0,0.0,0.0,0.0,0.0,0.0,0.0,0.0,0.0,0.0,0.0,0.0,0.0,0.0,0.0,0.0,0.0,0.0,0.0,0.0,0.0,0.0,0.0,0.0,0.0,0.0,0.0,0.0,0.0,0.0,0.0,0.0,0.0,0.0,0.0,0.0,0.0,0.0,0.0,0.0,0.0,0.0,0.0,0.0,0.0,0.0,-0.0174,-0.1145,-0.2656,-0.3513,-0.4123,-0.4531,-0.5623,-0.6375,-0.6592,-0.7438,0.0,0.0,0.0,0.0,0.0,0.0,0.0,0.0,0.0,0.0,0.0,0.0,0.0,0.0,0.0,0.0,0.0,0.0,0.0,0.0,0.0,0.0,0.0,0.0,0.0,0.0,0.0,0.0,0.0,0.0,0.0,0.0,0.0,0.0,0.0,0.0,0.0,0.0,0.0,0.0,0.0,0.0,0.0,0.0,0.0,0.0,0.0,0.0,0.0,0.0,0.0,0.0,0.0,0.0,0.0,0.0,0.0,0.0,0.0,0.0,0.0,0.0,0.0,0.0,0.0,0.0,0.0,0.0,0.0,0.0,0.0,0.0,0.0,0.0,0.0,0.0,0.0,0.0,0.0,0.0,0.0,0.0,0.0,0.0,0.0,0.0,0.0,0.0,0.0,0.0,0.0,0.0,0.0,0.0,0.0,0.0,0.0,0.0,0.0,0.0,0.0,0.0,-0.0138,-0.1532,-0.351,-0.4322,-0.4963,-0.555,-0.7095,-0.7804,-0.7256,-0.862,0.0,0.0,0.0,0.0,0.0,0.0,0.0,0.0,0.0,0.0,0.0,0.0,0.0,0.0,0.0,0.0,0.0,0.0,0.0,0.0,0.0,0.0,0.0,0.0,0.0,0.0,0.0,0.0,0.0,0.0,0.0,0.0,0.0,0.0,0.0,0.0,0.0,0.0,0.0,0.0,0.0,0.0,0.0,0.0,0.0,0.0,0.0,0.0,0.0,0.0,0.0,0.0,0.0,0.0,0.0,0.0,0.0,0.0,0.0,0.0,0.0,0.0,0.0,0.0,0.0,0.0,0.0,0.0,0.0,0.0,0.0,0.0,0.0,0.0,0.0,0.0,0.0,0.0,0.0,0.0,0.0,0.0,0.0,0.0,0.0,0.0,0.0,0.0,0.0,0.0,0.0,0.0,0.0,0.0,0.0,0.0,0.0,0.0,0.0,0.0,0.0,0.0,-0.0541,-0.1909,-0.3546,-0.5085,-0.6054,-0.6229,-0.756,-0.8439,-0.8532,0.0,0.0,0.0,0.0,0.0,0.0,0.0,0.0,0.0,0.0,0.0,0.0,0.0,0.0,0.0,0.0,0.0,0.0,0.0,0.0,0.0,0.0,0.0,0.0,0.0,0.0,0.0,0.0,0.0,0.0,0.0,0.0,0.0,0.0,0.0,0.0,0.0,0.0,0.0,0.0,0.0,0.0,0.0,0.0,0.0,0.0,0.0,0.0,0.0,0.0,0.0,0.0,0.0,0.0,0.0,0.0,0.0,0.0,0.0,0.0,0.0,0.0,0.0,0.0,0.0,0.0,0.0,0.0,0.0,0.0,0.0,0.0,0.0,0.0,0.0,0.0,0.0,0.0,0.0,0.0,0.0,0.0,0.0,0.0,0.0,0.0,0.0,0.0,0.0,0.0,0.0,0.0,0.0,0.0,0.0,0.0,0.0,0.0,0.0,0.0,0.0,0.0,0.0569,-0.0895,-0.2425,-0.394,-0.5821,-0.7014,-0.7081,-0.8234,-0.9124,-0.9568,0.0,0.0,0.0,0.0,0.0,0.0,0.0,0.0,0.0,0.0,0.0,0.0,0.0,0.0,0.0,0.0,0.0,0.0,0.0,0.0,0.0,0.0,0.0,0.0,0.0,0.0,0.0,0.0,0.0,0.0,0.0,0.0,0.0,0.0,0.0,0.0,0.0,0.0,0.0,0.0,0.0,0.0,0.0,0.0,0.0,0.0,0.0,0.0,0.0,0.0,0.0,0.0,0.0,0.0,0.0,0.0,0.0,0.0,0.0,0.0,0.0,0.0,0.0,0.0,0.0,0.0,0.0,0.0,0.0,0.0,0.0,0.0,0.0,0.0,0.0,0.0,0.0,0.0,0.0,0.0,0.0,0.0,0.0,0.0,0.0,0.0,0.0,0.0,0.0,0.0,0.0,0.0,0.0,0.0,0.0,0.0,0.0,0.0,0.0,0.0,0.0,0.0,0.0595,-0.121,-0.3061,-0.4842,-0.6575,-0.7771,-0.8071,-0.9201,-1.0004,0.0,0.0,0.0,0.0,0.0,0.0,0.0,0.0,0.0,0.0,0.0,0.0,0.0,0.0,0.0,0.0,0.0,0.0,0.0,0.0,0.0,0.0,0.0,0.0,0.0,0.0,0.0,0.0,0.0,0.0,0.0,0.0,0.0,0.0,0.0,0.0,0.0,0.0,0.0,0.0,0.0,0.0,0.0,0.0,0.0,0.0,0.0,0.0,0.0,0.0,0.0,0.0,0.0,0.0,0.0,0.0,0.0,0.0,0.0,0.0,0.0,0.0,0.0,0.0,0.0,0.0,0.0,0.0,0.0,0.0,0.0,0.0,0.0,0.0,0.0,0.0,0.0,0.0,0.0,0.0,0.0,0.0,0.0,0.0,0.0,0.0,0.0,0.0,0.0,0.0,0.0,0.0,0.0,0.0,0.0,0.0,0.0,0.0,0.0,0.0,0.0,0.0,0.0,0.0843,-0.3126,-0.6179,-0.6955,-0.8268,-0.9065,-0.9007,-0.9776,-1.054,-1.1229,0.0,0.0,0.0,0.0,0.0,0.0,0.0,0.0,0.0,0.0,0.0,0.0,0.0,0.0,0.0,0.0,0.0,0.0,0.0,0.0,0.0,0.0,0.0,0.0,0.0,0.0,0.0,0.0,0.0,0.0,0.0,0.0,0.0,0.0,0.0,0.0,0.0,0.0,0.0,0.0,0.0,0.0,0.0,0.0,0.0,0.0,0.0,0.0,0.0,0.0,0.0,0.0,0.0,0.0,0.0,0.0,0.0,0.0,0.0,0.0,0.0,0.0,0.0,0.0,0.0,0.0,0.0,0.0,0.0,0.0,0.0,0.0,0.0,0.0,0.0,0.0,0.0,0.0,0.0,0.0,0.0,0.0,0.0,0.0,0.0,0.0,0.0,0.0,0.0,0.0,0.0,0.0,0.0,0.0,0.0,0.0,0.0,0.0,0.0,0.0,0.0,0.0,0.113,-0.2664,-0.6053,-0.8522,-0.984,-1.0373,-0.9983,-1.0611,-1.1302,-1.206,0.0,0.0,0.0,0.0,0.0,0.0,0.0,0.0,0.0,0.0,0.0,0.0,0.0,0.0,0.0,0.0,0.0,0.0,0.0,0.0,0.0,0.0,0.0,0.0,0.0,0.0,0.0,0.0,0.0,0.0,0.0,0.0,0.0,0.0,0.0,0.0,0.0,0.0,0.0,0.0,0.0,0.0,0.0,0.0,0.0,0.0,0.0,0.0,0.0,0.0,0.0,0.0,0.0,0.0,0.0,0.0,0.0,0.0,0.0,0.0,0.0,0.0,0.0,0.0,0.0,0.0,0.0,0.0,0.0,0.0,0.0,0.0,0.0,0.0,0.0,0.0,0.0,0.0,0.0,0.0,0.0,0.0,0.0,0.0,0.0,0.0,0.0,0.0,0.0,0.0,0.0,0.0,0.0,0.0,0.0,0.0,0.0,0.0,0.0,0.0,0.0,0.0,0.1428,-0.0943,-0.4245,-0.9766,-1.1307,-1.167,-1.0959,-1.1577,-1.2209,-1.2746,0.0,0.0,0.0,0.0,0.0,0.0,0.0,0.0,0.0,0.0,0.0,0.0,0.0,0.0,0.0,0.0,0.0,0.0,0.0,0.0,0.0,0.0,0.0,0.0,0.0,0.0,0.0,0.0,0.0,0.0,0.0,0.0,0.0,0.0,0.0,0.0,0.0,0.0,0.0,0.0,0.0,0.0,0.0,0.0,0.0,0.0,0.0,0.0,0.0,0.0,0.0,0.0,0.0,0.0,0.0,0.0,0.0,0.0,0.0,0.0,0.8572,0.0,0.0,0.0,0.0,0.0,0.0,0.0,0.0,0.0,0.0,0.0,0.0,0.0,0.0,0.0,0.0,0.0,0.0,0.0,0.0,0.0,0.0,0.0,0.0,0.0,0.0,0.0,0.0,0.0,0.0,0.0,0.0,0.0,0.0,0.0,0.0,0.0,0.0,0.0,0.0,0.0,0.1573,-0.2747,-0.7156,-1.1744,-1.2716,-1.2697,-1.1824,-1.2306,-1.2921,-1.3436,-1.2456,0.0,0.0,0.0,0.0,0.0,0.0,0.0,0.0,0.0,0.0,0.0,0.0,0.0,0.0,0.0,0.0,0.0,0.0,0.0,0.0,0.0,0.0,0.0,0.0,0.0,0.0,0.0,0.0,0.0,0.0,0.0,0.0,0.0,0.0,0.0,0.0,0.0,0.0,0.0,0.0,0.0,0.0,0.0,0.0,0.0,0.0,0.0,0.0,0.0,0.0,0.0,0.0,0.0,0.0,0.0,0.0,0.0,0.0,0.0,0.0,-0.0892,0.0,0.0,0.0,0.0,0.0,0.0,0.0,0.0,0.0,0.0,0.0,0.0,0.0,0.0,0.0,0.0,0.0,0.0,0.0,0.0,0.0,0.0,0.0,0.0,0.0,0.0,0.0,0.0,0.0,0.0,0.0,0.0,0.0,0.0,0.0,0.0,0.0,0.0,0.0,0.0,0.0695,-0.2471,-0.678,-1.396,-1.4911,-1.4508,-1.3219,-1.3542,-1.3743,-1.3598,-1.2676,0.0,0.0,0.0,0.0,0.0,0.0,0.0,0.0,0.0,0.0,0.0,0.0,0.0,0.0,0.0,0.0,0.0,0.0,0.0,0.0,0.0,0.0,0.0,0.0,0.0,0.0,0.0,0.0,0.0,0.0,0.0,0.0,0.0,0.0,0.0,0.0,0.0,0.0,0.0,0.0,0.0,0.0,0.0,0.0,0.0,0.0,0.0,0.0,0.0,0.0,0.0,0.0,0.0,1.4648,1.3996,1.3006,1.271,0.9462,0.3731,-0.1773,-0.6164,-0.9995,-1.7848,0.0,0.0,0.0,0.0,0.0,0.0,0.0,0.0,0.0,0.0,0.0,0.0,0.0,0.0,0.0,0.0,0.0,0.0,0.0,0.0,0.0,0.0,0.0,0.0,1.3757,1.3918,1.3702,0.0,0.0,0.0,0.0,0.0,0.0,0.0,0.0,0.0,0.0,0.0,-0.0389,-0.2278,-0.6253,-1.5433,-1.6447,-1.5837,-1.4289,-1.4468,-1.4358,-1.3621,-1.2943,-1.3047,0.0,0.0,0.0,0.0,0.0,0.0,0.0,0.0,0.0,0.0,0.0,0.0,0.0,0.0,0.0,0.0,0.0,0.0,0.0,0.0,0.0,0.0,0.0,0.0,0.0,0.0,0.0,0.0,0.0,0.0,0.0,0.0,1.4849,1.4878,0.0,0.0,0.0,0.0,0.0,0.0,0.0,0.0,0.0,0.0,0.0,0.0,0.0,1.5312,1.5767,1.5551,1.3258,0.8929,0.8664,0.6238,0.1983,0.1292,-0.1918,-0.7147,-0.9412,0.0,-1.0546,-1.6824,0.0,0.0,0.0,0.0,0.0,0.0,0.0,0.0,0.0,0.0,0.0,0.0,0.0,0.0,0.0,0.0,0.0,0.0,0.0,0.0,0.0,0.0,0.5795,0.6314,0.9064,1.1604,0.0,1.3546,1.4971,1.4675,1.404,0.0,0.0,0.0,0.0,0.0,0.0,0.0,-0.0711,-0.5055,-0.9514,-1.4372,-1.5056,-1.4706,-1.3616,-1.3939,-1.4087,-1.386,-1.3161,-1.307,-1.3738,-1.4137,0.0,0.0,0.0,0.0,0.0,0.0,0.0,0.0,0.0,0.0,0.0,0.0,0.0,0.0,0.0,0.0,0.0,0.0,0.0,0.0,0.0,0.0,0.0,0.0,0.0,0.0,0.0,0.0,0.0,1.4611,1.4787,1.465,1.433,1.3995,0.0,0.0,0.0,0.0,0.0,0.0,0.0,0.0,0.0,1.4221,1.4519,1.487,1.5359,1.5179,1.2511,0.7522,0.7169,0.4201,-0.1016,-0.1442,-0.4686,-1.0002,-1.0918,-1.2768,-1.5433,-1.8983,-1.9958,-1.926,0.0,0.0,0.0,0.0,-1.8679,-1.8408,-1.8577,-1.8011,-1.7216,-1.7157,0.0,0.0,0.0,0.0,0.0,0.0,0.0,0.0,0.0,0.0,0.1563,0.1842,0.4902,0.7842,0.8038,1.0482,1.2722,0.0,1.3326,1.3519,1.3326,0.0,0.0,0.0,0.0,0.316,-0.4928,-0.7638,-1.0671,-1.5536,-1.5868,-1.5353,-1.4379,-1.4312,-1.4091,-1.3547,-1.318,-1.3256,-1.3896,-1.4083,-1.4078,0.0,0.0,0.0,0.0,0.0,0.0,0.0,0.0,0.0,0.0,0.0,0.0,0.0,0.0,0.0,0.0,0.0,0.0,0.0,0.0,0.0,0.0,0.0,0.0,0.0,0.0,0.0,0.0,1.4933,1.4794,1.4349,1.3939,1.358,0.0,0.0,0.0,0.0,0.0,0.0,1.3484,1.3289,1.2912,1.233,1.2261,1.1948,1.1259,1.1069,0.8428,0.3418,0.3062,0.0031,-0.5307,-0.5846,-0.8493,-1.2672,-1.3334,-1.5904,-1.9709,-2.0643,-2.0515,-1.9753,-1.9748,-1.945,-1.9041,-1.8949,-1.8564,-1.819,-1.8845,-1.8287,-1.7274,-1.7213,-1.656,-1.5789,-1.5704,0.0,0.0,0.0,0.0,-0.9932,-1.0123,-0.6546,-0.2754,-0.2396,0.0738,0.3675,0.3765,0.6636,0.9663,0.0,1.237,1.2912,1.2187,0.0,0.0,0.0,0.0,-0.0095,-0.8403,-1.0214,-1.2226,-1.6131,-1.6084,-1.5482,-1.4733,-1.4384,-1.4004,-1.3546,-1.3276,-1.3457,-1.415,-1.4145,-1.4129,-1.4203,0.0,0.0,0.0,0.0,0.0,0.0,0.0,0.0,0.0,0.0,0.0,0.0,0.0,0.0,0.0,0.0,0.0,0.0,0.0,0.0,0.0,0.0,0.0,0.0,0.0,0.0,0.0,0.0,0.0,1.4159,1.3671,0.0,0.0,0.0,0.0,1.2847,1.3228,1.3391,1.3221,1.3143,1.129,0.7291,0.7046,0.501,0.088,0.0729,-0.1982,-0.7149,-0.7359,-1.0097,-1.5052,-1.653,-1.7531,-1.8175,-1.9751,-2.0798,-2.128,-2.0169,-1.9784,-1.9831,-1.92,-1.8927,-1.8833,-1.8138,-1.7845,-1.7833,-1.7867,-1.7833,-1.7743,-1.776,-1.7126,-1.6348,-1.6198,-1.5877,0.0,0.0,-1.5624,-1.5631,-1.4928,-1.1463,-0.7926,-0.7138,-0.3663,-0.0522,-0.0564,0.2153,0.5884,0.0,1.1009,1.0966,1.067,0.0,0.4974,0.3801,-0.3115,-0.8428,-0.9055,-1.2834,-1.5261,-1.4776,-1.4362,-1.4026,-1.3802,-1.358,-1.37,-1.4304,-1.3682,-1.3614,-1.4353,-1.4387,-1.4424,-1.448,-1.5996,0.0,0.0,0.0,0.0,0.0,0.0,0.0,0.0,0.0,0.0,0.0,0.0,0.0,0.0,0.0,0.0,0.0,0.0,0.0,0.0,0.0,0.0,0.0,0.0,0.0,0.0,0.0,0.0,1.4537,1.4023,0.0,1.3352,1.3496,1.3684,1.3864,1.3779,1.3827,1.4135,1.3984,1.1713,0.702,0.6725,0.44,-0.0366,-0.0516,-0.3147,-0.8295,-0.8487,-1.1455,-1.6824,-1.7519,-1.8503,-1.9631,-2.0326,-2.1084,-2.1761,-2.153,-2.088,-1.9934,-1.9796,-1.9165,-1.8297,-1.8041,-1.79,-1.7861,-1.7861,-1.7833,-1.7789,-1.7749,-1.7473,-1.7142,-1.6964,-1.6727,-1.6472,-1.6305,-1.6286,-1.6161,-1.5412,-1.3629,-1.1858,-1.1151,-0.7646,-0.4486,-0.456,-0.1822,0.1092,0.2621,0.6752,0.9193,0.6691,0.5388,0.2732,-0.3156,-0.6392,-0.9278,-1.2378,-1.4097,-1.4868,-1.4445,-1.4054,-1.3756,-1.3653,-1.3939,-1.4207,-1.4442,-1.4702,-1.4755,-1.4551,-1.4623,-1.4693,-1.4744,-1.5853,-1.5924,0.0,0.0,0.0,0.0,0.0,0.0,0.0,0.0,0.0,0.0,0.0,0.0,0.0,0.0,0.0,0.0,0.0,0.0,0.0,0.0,0.0,0.0,0.0,0.0,0.0,1.598,1.539,1.4948,1.4258,1.3759,1.368,1.3854,1.339,1.1962,1.1715,1.1034,0.9761,0.9435,0.7049,0.2048,0.1776,-0.0674,-0.5658,-0.5815,-0.7647,-1.1093,-1.1311,-1.343,-1.7208,-1.7693,-1.8522,-1.9613,-2.0017,-2.0621,-2.1306,-2.1649,-2.1002,-1.9826,-2.0202,-1.9573,-1.8456,-1.8181,-1.8053,-1.7988,-1.79,-1.7811,-1.7743,-1.7681,-1.7641,-1.7595,-1.7455,-1.7288,-1.7093,-1.6926,-1.6686,-1.626,-1.5271,-1.4563,-1.384,-1.2939,-1.0525,-0.8455,-0.8529,-0.5845,-0.3428,-0.3544,0.1472,0.4877,0.2224,0.0986,-0.1659,-0.7611,-0.9373,-1.1182,-1.4429,-1.4653,-1.4466,-1.4251,-1.3902,-1.3634,-1.3575,-1.4144,-1.4614,-1.4905,-1.5422,-1.5615,-1.5411,-1.5538,-1.5523,-1.538,-1.6037,-1.6163,-1.576,0.0,0.0,0.0,0.0,0.0,0.0,0.0,0.0,0.0,0.0,0.0,0.0,0.0,0.0,0.0,0.0,0.0,0.0,0.0,0.0,0.0,0.0,0.0,1.6569,1.6219,1.5922,1.5399,1.4335,1.3753,1.3998,1.4329,1.2331,0.71,0.7079,0.5077,0.0062,-0.0405,-0.2792,-0.7755,-0.8038,-1.0499,-1.5463,-1.577,-1.5998,-1.6222,-1.6436,-1.6633,-1.6847,-1.77,-1.8209,-1.8458,-1.9237,-1.9796,-2.0136,-2.0323,-2.0016,-1.9482,-2.0274,-2.0077,-1.9274,-1.8568,-1.8263,-1.8151,-1.7917,-1.7704,-1.7612,-1.7612,-1.7658,-1.7687,-1.7635,-1.7519,-1.7384,-1.724,-1.6917,-1.6307,-1.4893,-1.4382,-1.3867,-1.2549,-1.2226,-1.2236,-1.2379,-0.9807,-0.7533,-0.7743,-0.4703,-0.2193,-0.2533,-0.5617,-0.8314,-0.9159,-1.232,0.0,-1.488,-1.4606,-1.4309,-1.4118,-1.3801,-1.3575,-1.3495,-1.4125,-1.487,-1.5661,-1.5748,-1.613,-1.6984,-1.7138,-1.6956,-1.641,-1.6664,-1.6866,-1.7043,0.0,0.0,0.0,0.0,0.0,0.0,0.0,0.0,0.0,0.0,0.0,0.0,0.0,0.0,0.0,0.0,0.0,0.0,0.0,0.0,0.0,1.7659,1.8007,1.7659,1.6967,1.6289,1.5852,1.5098,1.4582,1.4509,1.4645,1.2607,0.7518,0.6971,0.4691,-0.0308,-0.0675,-0.2991,-0.796,-0.8238,-1.0758,-1.5796,-1.608,-1.6328,-1.6554,-1.6763,-1.6984,-1.7166,-1.7502,-1.7988,-1.8568,-1.8935,-1.9487,-2.0193,-2.0495,-2.0223,-1.964,-1.9812,-1.9405,-1.8705,-1.8515,-1.8342,-1.819,-1.8005,-1.7833,-1.7664,-1.7664,-1.7687,-1.7687,-1.7635,-1.7566,-1.7502,-1.732,-1.7052,-1.6591,-1.5623,-1.4821,-1.4078,-1.3268,-1.2676,-1.2307,-1.251,-1.1967,-1.1502,-1.1752,-1.1123,-0.9748,-0.7253,-0.7842,-0.9708,-1.2768,-1.4055,0.0,-1.4687,-1.4338,-1.4034,-1.383,-1.3606,-1.3463,-1.343,-1.4619,-1.5471,-1.5695,-1.6778,-1.7342,-1.7077,-1.7197,-1.7595,-1.8315,-1.8492,-1.8992,0.0,0.0,0.0,0.0,0.0,0.0,0.0,0.0,0.0,0.0,0.0,0.0,0.0,0.0,0.0,0.0,0.0,0.0,0.0,0.0,0.0,0.0,1.435,1.5296,1.7315,1.6909,1.6375,1.6265,1.5469,1.4923,1.496,1.4827,1.1802,0.4666,0.3806,0.0554,-0.6457,-0.6936,-0.8318,-1.1198,-1.1425,-1.2964,-1.6009,-1.6274,-1.6501,-1.6747,-1.7009,-1.7199,-1.7362,-1.7458,-1.7809,-1.832,-1.8454,-1.887,-1.9464,-1.9716,-1.9621,0.0,0.0,0.0,0.0,0.0,-1.8445,-1.8301,-1.8117,-1.7905,-1.7726,-1.7681,-1.7658,-1.7612,-1.7566,-1.7589,-1.7566,-1.7408,-1.7199,-1.684,-1.6,-1.528,-1.4529,-1.3631,-1.3062,-1.2749,-1.2694,-1.2909,-1.3227,-1.355,-1.3874,0.0,-1.1529,-1.1256,-1.2126,-1.4488,-1.4732,-1.4596,-1.4446,-1.408,-1.3774,-1.3556,-1.3379,-1.3294,-1.3311,-1.4408,0.0,0.0,0.0,-1.78,-1.8216,-1.809,0.0,0.0,0.0,0.0,0.0,0.0,0.0,0.0,-1.8769,-1.9744,0.0,0.0,0.0,0.0,0.0,0.0,0.0,0.0,0.0,0.0,0.0,0.0,0.0,0.0,0.0,0.0,1.0766,1.2128,1.6279,1.6427,1.6217,1.6517,1.5557,1.497,1.5241,1.4918,1.0501,0.0437,-0.0585,-0.4996,-1.4814,-1.5536,0.0,0.0,0.0,-1.5913,-1.6095,-1.6382,-1.6607,-1.6815,-1.7166,-1.7362,-1.7408,-1.7512,-1.7658,-1.7922,-1.8009,-1.8197,-1.8426,-1.8584,-1.8715,-1.8914,-1.961,-1.9431,-1.8788,-1.8659,-1.8565,-1.8485,-1.8232,0.0,0.0,-1.7704,-1.7612,-1.7559,-1.7559,-1.7566,-1.7589,-1.7536,-1.7377,-1.7003,-1.6136,-1.563,-1.5008,-1.3753,-1.3377,-1.3246,-1.2929,-1.3124,-1.3474,-1.3892,-1.423,-1.4545,-1.4841,-1.4798,-1.4744,-1.4862,-1.4685,-1.4438,-1.4168,-1.3774,-1.346,-1.3278,0.0,0.0,-1.3154,-1.3841,-1.4618,-1.5407,-1.6379,-1.776,-1.9615,-1.9237,-1.9465,-2.0433,-1.9922,-1.9417,-1.8934,-1.9749,-1.9847,-1.9285,-1.9265,-2.0101,0.0,0.0,0.0,0.0,0.0,0.0,0.0,0.0,0.0,0.0,0.0,0.0,0.0,0.0,0.0,1.4786,1.5506,1.5733,1.6544,1.6444,1.628,1.6274,1.5649,1.5183,1.5059,1.4655,1.0239,0.0281,-0.0706,-0.5157,-1.5037,-1.5741,-1.5827,-1.5827,-1.5799,-1.5913,-1.6194,-1.6436,-1.6712,-1.6968,0.0,0.0,-1.7489,-1.7675,-1.7833,-1.8005,-1.8284,-1.8448,-1.8584,-1.8807,-1.9001,-1.912,-1.9111,-1.9004,-1.8861,-1.8715,-1.8641,-1.8581,-1.8465,-1.8287,-1.8103,-1.8044,-1.7954,-1.7878,-1.7856,-1.7772,0.0,-1.7612,-1.7432,-1.7084,-1.6278,-1.5445,-1.466,-1.3898,-1.3304,-1.2975,-1.3226,-1.3504,-1.3838,-1.4293,-1.4575,-1.4755,-1.4888,-1.4822,-1.4779,-1.4733,-1.4373,-1.4028,-1.376,-1.3359,-1.3073,-1.2998,-1.2906,-1.285,-1.2871,-1.3585,-1.4195,-1.4529,-1.6188,-1.7694,-1.8948,-1.9055,-1.9577,-2.0622,-2.0629,-2.095,-2.1632,-2.1244,-2.1072,-2.1077,-2.0438,-2.037,0.0,0.0,0.0,0.0,0.0,0.0,0.0,0.0,0.0,0.0,0.0,0.3759,0.8353,0.0,0.4955,1.1993,1.3025,1.3768,1.6061,1.415,1.2469,1.2399,1.1871,1.0463,0.7802,0.7164,0.3794,-0.3684,-0.4442,-0.7822,-1.5315,-1.5885,-1.5998,-1.5998,-1.5998,-1.6123,-1.6398,-1.6633,-1.6876,-1.715,-1.7425,-1.7622,-1.7743,-1.7861,-1.804,-1.827,-1.8506,-1.8678,-1.8825,-1.9086,-1.9246,-1.9335,-1.9214,-1.9069,-1.8932,-1.8843,-1.8752,-1.8695,-1.862,-1.8545,-1.843,-1.8296,-1.8194,-1.8128,-1.7997,-1.7861,-1.7726,-1.7635,-1.7496,-1.7205,-1.6364,-1.5729,-1.5059,-1.4078,-1.3645,-1.3481,-1.3545,-1.3806,-1.4181,-1.4563,-1.4768,-1.4845,-1.4808,-1.4613,-1.4447,-1.4447,-1.4011,-1.3601,-1.3327,-1.2986,-1.2711,-1.2662,-1.2585,-1.2585,-1.2642,-1.3485,-1.4109,-1.4333,-1.6104,-1.7468,-1.8164,-1.8817,-1.946,-2.0092,-2.027,-2.0621,-2.1152,-2.0858,-2.0784,-2.095,-2.0574,-2.0445,0.0,0.0,0.0,0.0,0.0,0.0,0.0,-0.2315,0.1872,0.0056,-0.0383,0.0833,0.5046,0.1841,0.1271,0.9477,1.0677,1.1922,1.5722,1.1928,0.835,0.7281,0.6622,0.4617,0.0462,-0.031,-0.262,-0.7628,-0.8119,-1.0439,-1.5534,-1.6011,-1.6123,-1.6151,-1.6234,-1.6398,-1.6675,-1.6876,-1.7126,-1.7392,-1.7579,-1.7816,-1.8053,-1.8125,-1.8296,-1.8569,-1.8753,-1.8948,-1.9117,-1.9372,-1.9513,-1.9567,-1.9518,-1.9346,-1.9115,-1.8998,-1.8931,-1.8878,-1.8825,-1.8807,-1.8789,-1.8625,-1.8495,-1.8401,-1.822,-1.8048,-1.7893,-1.763,-1.7485,-1.7182,-1.6171,-1.5792,-1.5365,-1.4153,-1.3992,-1.4042,-1.3896,-1.4134,-1.4452,-1.4753,-1.4791,-1.4754,-1.457,-1.4174,-1.3918,-1.4053,-1.3608,-1.3177,-1.2931,-1.2578,-1.2336,-1.2302,-1.2205,-1.2241,-1.2435,-1.3235,-1.3906,-1.4336,-1.5791,-1.6939,-1.7573,-1.8471,-1.913,-1.9481,-1.9668,-1.9825,-1.9904,-2.003,-2.0169,-2.0301,-2.036,-2.0445,-1.8106,-1.1872,-0.5669,-0.6157,-0.4562,-0.2092,0.0,0.8458,1.3521,0.9058,0.8406,0.9882,1.4,1.1515,1.0404,1.5106,1.5847,1.5982,1.6401,1.2139,0.7212,0.2506,0.1419,0.0731,0.0,-0.0428,-0.2747,-0.77,-0.8149,-1.0456,-1.5591,-1.608,-1.6231,-1.6371,-1.649,-1.6659,-1.6876,-1.7175,-1.7455,-1.7664,-1.7936,-1.8128,-1.827,-1.8508,-1.8661,-1.8789,-1.9166,-1.9402,-1.9541,-1.963,-1.9738,-1.9855,-1.9851,-1.9743,-1.9582,-1.9283,-1.9148,-1.9152,-1.9148,-1.9178,-1.9227,-1.9146,-1.901,-1.8908,-1.8823,-1.8608,-1.8274,-1.7535,-1.7246,-1.6799,-1.5259,-1.4811,-1.459,-1.3966,-1.392,-1.4071,-1.4345,-1.4533,-1.4686,-1.4784,-1.46,-1.4352,-1.403,-1.3504,-1.3236,-1.3532,-1.3126,-1.2692,-1.2487,-1.2107,-1.1876,-1.1869,-1.1747,-1.1833,-1.2195,-1.255,-1.317,-1.415,-1.4758,-1.5818,-1.752,-1.793,-1.8559,-1.9485,-1.9641,-1.977,-1.9907,-2.003,-2.018,-2.0301,-2.036,-2.0445,-1.6505,-1.0106,-0.3391,0.0057,0.2069,0.3499,0.4589,1.0707,1.4845,1.0175,0.9555,1.1212,1.5682,1.3064,1.1718,1.626,1.6952,1.6876,1.6712,0.9937,0.4023,0.1476,-0.4411,-0.8365,-0.8674,-0.9081,-1.0232,-1.2436,-1.2635,-1.3714,-1.6062,-1.6394,-1.6581,-1.6738,-1.6892,-1.7076,-1.7368,-1.7539,-1.7766,-1.8061,-1.8249,-1.843,-1.8605,-1.8789,-1.9013,-1.928,-1.9532,-1.9701,-1.9783,-1.989,-2.0002,-2.0078,-2.006,-2.0012,-1.9905,-1.9594,-1.9439,-1.9382,-1.9407,-1.9481,-1.9521,-1.9494,-1.9448,-1.9383,-1.9232,-1.8703,-1.8077,-1.7704,-1.7125,-1.6388,-1.5284,-1.4965,-1.4806,-1.4228,-1.4109,-1.4179,-1.4338,-1.434,-1.4274,-1.4227,-1.3937,-1.3596,-1.326,-1.2677,-1.2244,-1.2221,-1.2155,-1.2082,-1.1961,-1.1762,-1.1645,-1.1689,-1.1674,-1.1805,-1.2112,-1.2392,-1.2835,-1.3532,-1.4296,-1.5174,-1.6154,-1.7289,-1.814,-1.867,-1.9267,-1.9669,-1.9843,-1.9979,-2.0135,-2.0299,-2.0365,-2.0433,-1.2449,-0.5294,0.227,0.5643,0.8032,0.9478,0.9161,1.2687,1.512,1.1807,1.1368,1.2659,1.6211,1.4146,1.3109,1.679,1.7351,1.7248,1.7043,0.9668,0.3576,0.1635,-0.6634,-1.286,-1.4603,-1.5269,-1.5668,-1.5841,-1.5926,-1.6123,-1.6463,-1.6722,-1.6977,-1.7191,-1.7368,-1.7579,-1.7866,-1.7984,-1.8194,-1.8432,-1.8622,-1.8789,-1.8982,-1.9143,-1.9392,-1.9712,-1.9839,-1.9916,-2.0,-2.0118,-2.0192,-2.0255,-2.0248,-2.0234,-2.0165,-1.9964,-1.9782,-1.9656,-1.9703,-1.9768,-1.9812,-1.9824,-1.9843,-1.9809,-1.9635,-1.9058,-1.8345,-1.7837,-1.7157,-1.6355,-1.5351,-1.504,-1.4897,-1.4454,-1.4285,-1.4199,-1.4212,-1.4011,-1.3773,-1.354,-1.3132,-1.2707,-1.2357,-1.177,-1.1278,-1.1028,-1.1125,-1.1281,-1.1423,-1.1429,-1.1444,-1.1511,-1.1623,-1.1783,-1.2033,-1.2332,-1.2668,-1.3066,-1.3905,-1.4604,-1.5152,-1.6422,-1.74,-1.8031,-1.8527,-1.9,-1.9435,-1.9328,-1.9516,-1.9942,-2.0006,-2.0206,-0.5785,0.4209,1.4151,0.9794,1.2534,1.6346,1.6542,1.6763,1.6862,1.6531,1.6381,1.6499,1.7153,1.6959,1.6942,1.7744,1.7871,1.7816,1.7612,1.305,0.7829,0.2602,-0.3248,-0.8865,-1.4006,-1.5285,-1.5856,-1.5968,-1.6136,-1.634,-1.667,-1.7126,-1.7479,-1.7664,-1.7919,-1.8149,-1.829,-1.8547,-1.8716,-1.8789,-1.9051,-1.9251,-1.939,-1.965,-1.985,-1.9984,-2.0063,-2.013,-2.0192,-2.028,-2.0327,-2.0395,-2.0395,-2.0395,-2.0395,-2.0371,-2.0211,-1.9993,-2.0067,-2.009,-2.0107,-2.0155,-2.0174,-2.0178,-2.0096,-1.9972,-1.9502,-1.7877,-1.7344,-1.6899,-1.5248,-1.4675,-1.4527,-1.4492,-1.4335,-1.4164,-1.4046,-1.3695,-1.328,-1.282,-1.226,-1.1723,-1.13,-1.0838,-1.0478,-1.0247,-1.0135,-1.0298,-1.0944,-1.1132,-1.1239,-1.1307,-1.1489,-1.1711,-1.197,-1.2307,-1.2681,-1.3066,-1.3379,-1.4019,-1.5072,-1.5279,-1.6178,-1.7866,-1.7302,-1.749,-1.8545,-1.7818,-1.8022,-1.9039,-1.9098,-1.9585,-0.1169,0.52,1.1737,0.8114,1.1144,1.5007,1.4982,1.5202,1.5403,1.543,1.5762,1.6238,1.6842,1.7195,1.7595,1.8316,1.7974,1.7753,1.8094,1.3334,0.797,0.2976,-0.2656,-0.8228,-1.3519,-1.4923,-1.5653,-1.5968,-1.5733,-1.604,-1.7044,-1.7071,-1.7407,-1.8135,-1.8378,-1.8589,-1.8753,-1.8943,-1.9139,-1.9331,-1.955,-1.9713,-1.9802,-1.9982,-2.0113,-2.0194,-2.0269,-2.0315,-2.0324,-2.0352,-2.038,-2.0405,-2.0405,-2.0405,-2.0405,-2.0408,-2.0343,-2.0277,-2.0286,-2.0299,-2.0303,-2.0324,-2.0305,-2.0247,-2.0197,-1.9664,-1.8984,-1.8377,-1.738,-1.6417,-1.6039,-1.5057,-1.4278,-1.4729,-1.4098,-1.3383,-1.3352,-1.2703,-1.1996,-1.1535,-1.0917,-1.0395,-1.0192,-0.983,-0.9571,-0.9607,-0.9919,-1.0273,-1.0608,-1.0825,-1.1015,-1.1215,-1.1376,-1.1601,-1.1906,-1.2164,-1.2491,-1.2942,-1.3192,-1.3548,-1.408,-1.4746,-1.5429,-1.6097,-1.6544,-1.7022,-1.7571,-1.7412,-1.7567,-1.8013,-1.8666,-1.9149,0.2387,0.6163,1.0426,0.8627,1.0869,1.3507,1.3619,1.3943,1.4304,1.4504,1.4969,1.5651,1.6709,1.7189,1.7777,1.8841,1.8341,1.7902,1.8234,1.5054,1.0856,0.5953,0.2243,-0.1965,-0.7178,-0.8438,-1.0767,-1.5197,-1.5617,-1.6094,-1.699,-1.7397,-1.7911,-1.8627,-1.8873,-1.907,-1.9254,-1.9365,-1.9532,-1.9735,-1.9877,-1.9958,-1.9993,-2.0147,-2.023,-2.0302,-2.0312,-2.031,-2.0297,-2.0291,-2.028,-2.0263,-2.0263,-2.0263,-2.0243,-2.0207,-2.0177,-2.0175,-2.0307,-2.0357,-2.0312,-2.0268,-2.0194,-2.0085,-1.9939,-1.9347,-1.8669,-1.8198,-1.7232,-1.6269,-1.5882,-1.4852,-1.3938,-1.399,-1.3225,-1.2427,-1.2152,-1.152,-1.0869,-1.0395,-0.9831,-0.9389,-0.9269,-0.905,-0.8976,-0.9151,-0.9555,-0.997,-1.0361,-1.0559,-1.0801,-1.1132,-1.1285,-1.1474,-1.1805,-1.2024,-1.2316,-1.2724,-1.2946,-1.3175,-1.3412,-1.4056,-1.4632,-1.5051,-1.5526,-1.6032,-1.6565,-1.6411,-1.6561,-1.7007,-1.7943,-1.8562,0.4825,0.7304,1.0514,1.1072,1.1628,1.216,1.2723,1.3201,1.3597,1.3965,1.4235,1.4968,1.6738,1.7048,1.7583,1.9277,1.8804,1.8185,1.8092,1.7925,1.5931,1.0867,1.0479,0.864,0.3607,0.2759,-0.2075,-1.3207,-1.5199,-1.5965,-1.6177,-1.779,-1.8849,-1.9088,-1.9343,-1.9562,-1.9673,-1.9734,-1.9835,-1.9962,-1.996,-1.9952,-1.9941,-2.0071,-2.017,-2.0218,-2.0165,-2.0085,-2.003,-2.0038,-1.9985,-1.9923,-1.9923,-1.9923,-1.9896,-1.9761,-1.9662,-1.9671,-2.0041,-2.0165,-2.0123,-1.9993,-1.9842,-1.9678,-1.9314,-1.8995,-1.8521,-1.7319,-1.679,-1.6255,-1.4773,-1.4002,-1.3315,-1.2358,-1.1779,-1.1269,-1.0572,-1.0204,-0.9856,-0.9405,-0.9,-0.8706,-0.8589,-0.8561,-0.8656,-0.8928,-0.9081,-0.9408,-1.0084,-1.0361,-1.0632,-1.1015,-1.1215,-1.1384,-1.1659,-1.194,-1.2195,-1.2478,-1.2671,-1.2871,-1.3084,-1.3261,-1.3785,-1.4708,-1.4294,-1.4558,-1.552,-1.488,-1.5078,-1.6035,-1.6924,-1.7833,0.4871,0.6088,0.7586,0.8427,0.9083,0.9725,1.0584,1.1508,1.2356,1.295,1.3322,1.4132,1.6065,1.6305,1.6783,1.8564,1.7871,1.7216,1.7527,1.6222,1.3574,0.9081,0.8298,0.6128,0.1035,0.05,-0.1122,-0.4946,-0.7548,-0.9396,-1.044,-1.5066,-1.8072,-1.8921,-1.9156,-1.9286,-1.9334,-1.9388,-1.9445,-1.9478,-1.9475,-1.94,-1.9271,-1.9288,-1.9292,-1.9254,-1.9183,-1.9145,-1.912,-1.9018,-1.8933,-1.8883,-1.8883,-1.8851,-1.8785,-1.8602,-1.8492,-1.8442,-1.8388,-1.8869,-1.9487,-1.9263,-1.9018,-1.872,-1.8146,-1.7527,-1.6845,-1.582,-1.4708,-1.3671,-1.3079,-1.1769,-1.0636,-1.0872,-1.0183,-0.9408,-0.9328,-0.8923,-0.8508,-0.8189,-0.7964,-0.785,-0.7917,-0.8138,-0.8386,-0.8656,-0.8811,-0.9101,-0.9672,-0.9982,-1.0248,-1.0621,-1.0849,-1.1155,-1.1511,-1.1659,-1.1918,-1.2312,-1.2447,-1.2604,-1.2867,-1.2979,-1.3207,-1.3599,-1.3691,-1.3979,-1.4472,-1.4417,-1.4596,-1.499,-1.5937,-1.6856,0.4984,0.5643,0.6342,0.7057,0.7613,0.8187,0.9021,1.0059,1.0996,1.1526,1.217,1.3192,1.5033,1.5484,1.6126,1.7917,1.7167,1.6413,1.6591,1.5303,1.343,1.1003,1.0815,0.9734,0.6784,0.6597,0.6215,0.5061,-0.1792,-0.6585,-0.8146,-1.2714,-1.5762,-1.685,-1.7359,-1.7625,-1.7671,-1.7872,-1.8043,-1.8172,-1.8195,-1.8126,-1.7948,-1.7878,-1.7792,-1.7656,0.0,-1.7752,-1.7785,-1.7689,-1.7592,-1.7527,-1.7435,-1.7322,-1.7206,-1.6951,-1.6759,-1.659,-1.6424,-1.6742,-1.7294,-1.7872,-1.7815,-1.7408,-1.6706,-1.5987,-1.5213,-1.4157,-1.3172,-1.2224,-1.1492,-1.0379,-0.9401,-0.9401,-0.8828,-0.8213,-0.8098,-0.7862,-0.7589,-0.7316,-0.7255,-0.7273,-0.7364,-0.7637,-0.7908,-0.8195,-0.8354,-0.8595,-0.9019,-0.9449,-0.9867,-1.0211,-1.0472,-1.0811,-1.1285,-1.1429,-1.1659,-1.2003,-1.2123,-1.2246,-1.2447,-1.2604,-1.2759,-1.2895,-1.3227,-1.357,-1.3888,-1.4065,-1.4282,-1.4494,-1.5436,-1.6358,0.5159,0.5655,0.6044,0.6388,0.6717,0.7175,0.7799,0.8743,0.9591,0.9995,1.0881,1.2081,1.3644,1.439,1.5308,1.6967,1.6357,1.5597,1.5319,1.4543,1.397,1.3845,1.4476,1.4851,1.4639,1.481,1.4401,1.3127,0.2505,-0.477,-0.6699,-1.0367,-1.2925,-1.4042,-1.4796,-1.5227,-1.5303,-1.5671,-1.6004,-1.6306,-1.6368,-1.6365,-1.6239,-1.6124,-1.5974,-1.5815,-1.5911,-1.6064,-1.6176,-1.6091,-1.6013,-1.5957,-1.5765,-1.5571,-1.5366,-1.5081,-1.4773,-1.4472,-1.4382,-1.4246,-1.441,-1.6073,-1.628,-1.5743,-1.5007,-1.4296,-1.3483,-1.2329,-1.1689,-1.1083,-0.9842,-0.9223,-0.8703,-0.7927,-0.7578,-0.7335,-0.6907,-0.685,-0.6811,-0.6579,-0.6656,-0.6786,-0.6867,-0.7059,-0.7296,-0.7637,-0.7801,-0.7964,-0.8213,-0.8883,-0.9422,-0.9764,-1.0059,-1.0434,-1.0968,-1.1192,-1.1384,-1.1615,-1.1762,-1.1848,-1.1933,-1.22,-1.2368,-1.2459,-1.2895,-1.3244,-1.3524,-1.3786,-1.4019,-1.4229,-1.5079,-1.5981,0.56,0.578,0.5804,0.5703,0.5834,0.6053,0.6461,0.7404,0.8362,0.8885,0.953,1.0412,1.1738,1.2571,1.3426,1.4613,1.4689,1.4334,1.3612,1.2609,1.1794,1.1439,1.1437,1.1358,1.1101,1.1325,1.0656,0.8674,0.529,0.2161,-0.0414,-0.7125,-1.1507,-1.2844,-1.2983,-1.3137,-1.3304,-1.3487,-1.3785,-1.4213,-1.4299,-1.4356,-1.4455,-1.4366,-1.4306,-1.4276,-1.4258,0.0,-1.4495,-1.4387,-1.4276,-1.4225,-1.4059,-1.3952,-1.3826,-1.3402,-1.3075,-1.2856,-1.2565,-1.2372,-1.2518,-1.4029,-1.4167,-1.3597,-1.2843,-1.2013,-1.1111,-1.0108,-0.9278,-0.8501,-0.7707,-0.7154,-0.6721,-0.6341,-0.6241,-0.612,-0.5839,-0.5765,-0.5765,-0.5703,-0.5866,-0.6014,-0.6144,-0.6419,-0.673,-0.7029,-0.7168,-0.7296,-0.7393,-0.8231,-0.8937,-0.9209,-0.9595,-0.997,-1.0409,-1.0619,-1.0873,-1.1178,-1.1339,-1.1474,-1.1659,-1.1811,-1.2039,-1.2327,-1.2517,-1.2785,-1.3091,-1.3361,-1.3619,-1.3818,-1.4129,-1.481,0.5723,0.5835,0.5804,0.5554,0.5596,0.5739,0.5814,0.6595,0.7424,0.7718,0.8415,0.9308,1.0416,1.1212,1.2021,1.2928,1.315,1.2939,1.2217,1.1495,1.086,1.0349,1.0181,1.0033,0.9846,0.9848,0.9139,0.736,0.5941,0.4016,0.1352,-0.4247,-0.7874,-0.9021,-0.9168,-0.9324,-0.9517,-1.0047,-1.0609,-1.1249,-1.1572,-1.1838,-1.2001,-1.2072,-1.206,-1.1978,-1.2037,-1.2189,-1.2397,-1.2305,-1.2259,-1.2201,-1.2048,-1.1906,-1.1727,-1.1366,-1.0999,-1.0702,-1.0497,-1.0298,-1.0258,-1.0919,-1.1532,-1.1896,-1.1293,-1.0651,-0.9877,-0.8805,-0.8152,-0.7547,-0.6687,-0.6242,-0.5913,-0.5592,-0.545,-0.534,-0.5272,-0.5271,-0.5295,-0.5365,-0.5397,-0.5404,-0.5472,-0.5573,-0.5804,-0.6211,-0.6381,-0.6594,-0.6892,-0.7443,-0.8021,-0.8518,-0.8958,-0.9506,-1.0123,-1.0187,-1.0403,-1.0947,-1.0952,-1.1062,-1.1324,-1.1497,-1.1718,-1.1982,-1.2195,-1.242,-1.2635,-1.2931,-1.3176,-1.3344,-1.3536,-1.4154,0.5822,0.5866,0.5859,0.5592,0.5677,0.5766,0.5593,0.6159,0.6787,0.684,0.7583,0.8469,0.93,1.0132,1.0834,1.1436,1.1792,1.1783,1.1145,1.0944,1.0591,0.9979,0.9815,0.9657,0.9393,0.9131,0.8414,0.7104,0.5661,0.3716,0.1093,-0.2212,-0.4371,-0.5109,-0.5334,-0.5644,-0.5984,-0.6806,-0.7654,-0.8444,-0.8968,-0.9394,-0.9752,-0.9867,-0.9895,-0.9865,-1.0002,-1.0157,-1.0339,-1.0339,-1.0339,-1.0387,-1.0205,-1.006,-0.9953,-0.9609,-0.9253,-0.8884,-0.8731,-0.8488,-0.8261,-0.8146,-0.9112,-1.0213,-0.9798,-0.9403,-0.885,-0.7921,-0.7538,-0.7172,-0.6303,-0.5901,-0.5593,-0.5121,-0.4858,-0.4731,-0.4806,-0.4884,-0.5011,-0.5151,-0.5007,-0.4859,-0.4859,-0.4809,-0.4924,-0.54,-0.5623,-0.5859,-0.6301,-0.6627,-0.7023,-0.7596,-0.8213,-0.8951,-0.984,-0.9713,-0.9935,-1.0661,-1.0638,-1.0746,-1.109,-1.1408,-1.1694,-1.1936,-1.2171,-1.2371,-1.2507,-1.2704,-1.2864,-1.2985,-1.3204,-1.3699,0.6066,0.5952,0.5859,0.5732,0.5909,0.6075,0.5738,0.6162,0.6646,0.6718,0.7228,0.7832,0.8282,0.9218,0.9933,1.0009,1.077,1.1211,1.0711,1.0993,1.0998,1.0325,1.0077,0.9713,0.9007,0.8559,0.7851,0.6742,0.4862,0.2519,-0.0352,-0.1851,-0.269,-0.2901,-0.3034,-0.3517,-0.4392,-0.5038,-0.5795,-0.6658,-0.7107,-0.7699,-0.8278,-0.8375,-0.8513,-0.8642,-0.8674,-0.8706,0.0,-0.8819,-0.8947,-0.9133,-0.9013,-0.911,-0.9208,-0.865,-0.8374,-0.8218,-0.7739,-0.7363,-0.714,-0.7001,-0.7563,-0.8253,-0.8064,-0.7799,-0.753,-0.7301,-0.7126,-0.6862,-0.6445,-0.6012,-0.547,-0.4591,-0.4267,-0.4202,-0.4258,-0.4377,-0.4543,-0.4806,-0.463,-0.4441,-0.4441,-0.4341,-0.4375,-0.4748,-0.4967,-0.5125,-0.5218,-0.5793,-0.6185,-0.6192,-0.7253,-0.8332,-0.9212,-0.9097,-0.9285,-1.0037,-1.042,-1.0756,-1.1083,-1.1829,-1.2375,-1.2689,-1.285,-1.302,-1.3213,-1.2927,-1.2871,-1.3005,-1.3214,-1.342,0.6223,0.6153,0.6083,0.5912,0.6058,0.6124,0.5814,0.6075,0.6399,0.6602,0.7099,0.7652,0.8169,0.8866,0.9379,0.9379,1.0229,1.0711,1.0194,1.0782,1.1035,1.0309,1.0026,0.9693,0.924,0.8517,0.7493,0.6038,0.4742,0.3287,0.1554,0.0311,-0.0578,-0.1022,-0.1378,-0.1868,-0.2487,-0.3196,-0.3934,-0.4708,-0.531,-0.5908,-0.6548,-0.6681,-0.6848,-0.7009,-0.7009,-0.7009,0.0,-0.7183,-0.7476,-0.7867,-0.7917,-0.8216,-0.8556,-0.8048,-0.7766,-0.7565,-0.7003,-0.6556,-0.6167,-0.599,-0.6021,-0.6313,-0.6839,-0.6888,-0.6719,-0.6513,-0.6428,-0.6258,-0.5836,-0.5302,-0.4739,-0.4257,-0.3985,-0.3915,-0.4034,-0.4118,-0.4221,-0.4447,-0.4281,-0.4036,-0.389,-0.3804,-0.3873,-0.4116,-0.4375,-0.4631,-0.4992,-0.5384,-0.5722,-0.5988,-0.6801,-0.7727,-0.8629,-0.8674,-0.9055,-0.9949,-1.0181,-1.0473,-1.0893,-1.137,-1.1822,-1.2199,-1.2355,-1.2553,-1.2706,-1.2643,-1.2673,-1.275,-1.2914,-1.305,0.6455,0.6471,0.6528,0.6261,0.6273,0.6301,0.6035,0.6151,0.6426,0.6648,0.7118,0.7666,0.8195,0.8751,0.9127,0.9276,1.0034,1.0527,1.0286,1.0998,1.1308,1.0698,1.0349,1.0015,0.9609,0.8519,0.7225,0.569,0.4879,0.4008,0.3043,0.1967,0.1029,0.0224,-0.0269,-0.0716,-0.1208,-0.1789,-0.2502,-0.33,-0.3949,-0.4557,-0.5168,-0.5293,-0.546,-0.5588,-0.5588,-0.5588,0.0,-0.5813,-0.627,-0.6781,-0.6955,-0.736,-0.7815,-0.7348,-0.7109,-0.6936,-0.631,-0.583,-0.5437,-0.5178,-0.4961,-0.4923,-0.5658,-0.5867,-0.5905,-0.5739,-0.5647,-0.548,-0.5106,-0.4611,-0.4119,-0.3859,-0.3703,-0.3692,-0.3849,-0.3895,-0.3951,-0.4151,-0.3946,-0.3668,-0.3481,-0.3372,-0.3406,-0.3612,-0.3848,-0.4137,-0.4592,-0.4903,-0.5237,-0.558,-0.6158,-0.6941,-0.8004,-0.8169,-0.862,-0.9622,-0.9904,-1.0267,-1.0757,-1.1166,-1.154,-1.1908,-1.2077,-1.225,-1.2451,-1.2387,-1.2425,-1.2571,-1.2686,-1.2924,0.6828,0.6926,0.7185,0.6718,0.6713,0.6714,0.6463,0.6538,0.673,0.6872,0.7314,0.783,0.8223,0.8751,0.9242,0.9724,1.0252,1.0768,1.1205,1.1744,1.2004,1.1708,1.1255,1.0743,1.0049,0.8496,0.7007,0.5782,0.513,0.4347,0.3258,0.2635,0.1787,0.0716,0.0224,-0.0224,-0.0716,-0.103,-0.1655,-0.2504,-0.312,-0.3737,-0.4316,-0.4395,-0.4478,-0.4613,-0.4613,-0.4613,0.0,-0.4918,-0.54,-0.6019,-0.6099,-0.6475,-0.6961,-0.6476,-0.6293,-0.6208,-0.5536,-0.5193,-0.4966,-0.4705,-0.4487,-0.432,-0.4316,-0.4661,-0.5009,-0.5009,-0.4831,-0.4574,-0.436,-0.4096,-0.3792,-0.3385,-0.3392,-0.3511,-0.3579,-0.3594,-0.3681,-0.3854,-0.3598,-0.3322,-0.3317,-0.3071,-0.3008,-0.326,-0.3411,-0.357,-0.3779,-0.4289,-0.4628,-0.4717,-0.5151,-0.5953,-0.7303,-0.7484,-0.7906,-0.8853,-0.9526,-1.0149,-1.0688,-1.1386,-1.1909,-1.2187,-1.2259,-1.246,-1.2812,-1.2274,-1.218,-1.2501,-1.2557,-1.3089,0.7077,0.7289,0.7525,0.6994,0.6872,0.6839,0.6751,0.6788,0.6932,0.7292,0.7656,0.8031,0.8421,0.8822,0.9242,0.9724,1.0252,1.0768,1.1217,1.1756,1.2141,1.2278,1.163,1.0764,0.9775,0.8476,0.714,0.5782,0.5265,0.453,0.3394,0.2946,0.2233,0.1208,0.0716,0.0269,-0.0224,-0.0626,-0.1164,-0.1746,-0.2277,-0.2807,-0.3341,-0.3347,-0.3395,-0.3435,-0.3481,-0.3538,-0.3627,-0.4061,-0.4686,-0.5394,-0.5603,-0.5979,-0.6379,-0.5961,-0.5826,-0.5724,-0.5044,-0.4709,-0.4491,-0.4228,-0.404,-0.3929,-0.3828,-0.4144,-0.4535,-0.4535,-0.4316,-0.4096,-0.3873,-0.37,-0.3517,-0.3293,-0.3207,-0.3251,-0.3368,-0.3353,-0.3354,-0.3467,-0.3393,-0.3265,-0.3171,-0.3137,-0.3075,-0.303,-0.3286,-0.3616,-0.3889,-0.4199,-0.4551,-0.4946,-0.5174,-0.565,-0.6364,-0.7007,-0.7632,-0.8321,-0.9064,-0.9628,-0.9925,-1.0309,-1.0608,-1.0826,-1.1079,-1.1328,-1.1623,-1.1692,-1.1908,-1.2304,-1.2408,-1.2608,0.7537,0.7909,0.824,0.7762,0.7598,0.7499,0.7377,0.7403,0.7479,0.7676,0.7974,0.8379,0.8847,0.9187,0.9586,1.0263,1.0665,1.1044,1.1538,1.2079,1.249,1.2619,1.1922,1.0851,0.9565,0.8494,0.7307,0.587,0.5363,0.4653,0.3698,0.3286,0.2724,0.1925,0.1298,0.0671,0.0089,-0.0403,-0.0851,-0.1299,-0.17,-0.2144,-0.2588,-0.2635,-0.2645,-0.2659,-0.2699,-0.2756,0.0,-0.3315,-0.3945,-0.464,-0.4789,-0.5132,-0.5456,-0.508,-0.4943,-0.4896,-0.4325,-0.405,-0.3878,-0.3698,-0.3579,-0.3491,-0.3409,-0.3705,-0.4016,-0.4016,-0.3836,-0.3568,-0.3388,-0.3258,-0.3176,-0.3126,-0.3063,-0.3049,-0.3132,-0.3067,-0.297,-0.301,-0.309,-0.3104,-0.3106,-0.3127,-0.3128,-0.2985,-0.3231,-0.3514,-0.3812,-0.4008,-0.4274,-0.4711,-0.4915,-0.5154,-0.5596,-0.6505,-0.7296,-0.7831,-0.8548,-0.9088,-0.9359,-0.9509,-0.9658,-0.9806,-1.0108,-1.0369,-1.0664,-1.1185,-1.1579,-1.1836,-1.2066,-1.2186,0.0,0.8664,0.913,0.8724,0.8577,0.8464,0.8143,0.8185,0.0,0.7988,0.8298,0.8798,0.9418,0.9656,1.0137,1.1125,1.1285,1.1492,1.2033,1.2672,1.297,1.2735,1.2182,1.1126,0.9515,0.8545,0.7426,0.5992,0.5395,0.4794,0.4069,0.3656,0.322,0.2732,0.1882,0.1076,0.0225,-0.0225,-0.0677,-0.1084,-0.14,-0.1761,-0.2076,-0.2112,-0.215,0.0,-0.224,-0.2278,0.0,-0.2686,-0.3203,-0.3711,-0.3732,-0.391,-0.4143,-0.39,-0.3799,-0.3741,-0.3414,-0.3275,-0.3197,-0.3156,-0.3053,-0.2942,-0.295,-0.3239,-0.3537,-0.3537,-0.3353,-0.3081,-0.2898,-0.2862,-0.2865,-0.2857,-0.2862,-0.2865,-0.2857,-0.2684,-0.2571,-0.2568,-0.2682,-0.2829,-0.306,-0.3088,-0.3082,-0.3082,-0.3201,-0.3363,-0.3598,-0.3722,-0.3923,-0.4168,-0.4394,-0.4658,-0.4991,-0.6013,-0.6869,-0.7432,-0.8006,-0.8496,-0.8895,-0.8895,-0.8975,-0.9096,-0.9328,-0.9588,-0.9845,-1.0705,-1.1142,-1.1142,-1.1553,-1.1723,0.8548,0.0,0.8509,0.7971,0.7856,0.7827,0.0,0.794,0.8058,0.8311,0.8533,0.8872,0.9548,0.9727,1.0137,1.1125,1.1285,1.1503,1.2105,1.3038,1.3481,1.297,1.2648,1.184,1.021,0.889,0.7511,0.5992,0.5478,0.4918,0.4202,0.3781,0.3347,0.2868,0.2196,0.1456,0.061,0.0094,-0.0382,-0.0883,-0.1179,-0.1424,-0.1621,-0.1635,-0.1666,-0.1762,-0.1833,-0.1868,-0.1966,-0.224,-0.2577,-0.2968,-0.2918,-0.2944,-0.2994,-0.2832,-0.2759,-0.2717,-0.2564,-0.2451,-0.2494,-0.262,-0.2544,-0.2388,-0.2511,-0.2795,-0.3046,-0.3046,-0.2865,-0.2593,-0.2366,-0.2284,-0.2286,-0.2279,-0.2284,-0.2286,-0.2279,-0.2264,-0.2207,-0.2201,-0.2423,-0.268,-0.2964,-0.2961,-0.2972,-0.3082,-0.3201,-0.3403,-0.364,-0.374,-0.3914,-0.4261,-0.4533,-0.4829,-0.5072,-0.5786,-0.6435,-0.6934,-0.7433,-0.778,-0.8002,-0.8002,-0.8044,-0.8044,-0.8602,-0.9079,-0.943,-1.0069,-1.0418,-1.0611,-1.0802,-1.1036,0.8539,0.8694,0.8788,0.8507,0.8406,0.8397,0.8309,0.8407,0.8521,0.8588,0.8739,0.9131,0.9954,1.0171,1.0524,1.1538,1.1966,1.2456,1.3329,1.3969,1.4269,1.3945,1.3485,1.2519,1.0823,0.9495,0.806,0.6368,0.5836,0.5339,0.4628,0.4186,0.3725,0.3213,0.2696,0.1944,0.0952,0.0476,-0.0097,-0.0806,-0.0958,-0.116,-0.1363,-0.1387,-0.1411,-0.1437,-0.1464,-0.1544,-0.1569,-0.185,-0.2073,-0.2284,-0.2209,-0.2179,-0.2163,-0.2047,-0.1981,-0.196,-0.192,-0.1904,-0.1976,-0.2153,-0.2101,-0.1965,-0.2056,-0.2186,-0.2305,-0.2488,-0.237,-0.2105,-0.1834,-0.1791,-0.1792,-0.1789,-0.1791,-0.1792,-0.1789,-0.1791,-0.1792,-0.1789,-0.2063,-0.2459,-0.2887,-0.3004,-0.3083,-0.3289,-0.3375,-0.3489,-0.3655,-0.3666,-0.3784,-0.3997,-0.4276,-0.4626,-0.4927,-0.5376,-0.5926,-0.659,-0.6899,-0.7105,-0.7238,-0.7293,-0.7461,-0.7712,-0.8193,-0.8635,-0.9039,-0.9518,-0.9858,-1.0115,-1.0326,-1.0637,0.837,0.8831,0.9254,0.9251,0.9272,0.9211,0.8972,0.9058,0.9127,0.8862,0.8987,0.9447,1.0444,1.0691,1.1048,1.2083,1.28,1.356,1.4636,1.4839,1.4893,1.4851,1.4121,1.2975,1.1233,1.0007,0.8609,0.6753,0.6206,0.5729,0.5124,0.4657,0.4161,0.3611,0.3163,0.2432,0.1405,0.0823,0.0148,-0.0667,-0.0718,-0.0872,-0.1181,-0.1219,-0.1182,-0.1184,0.0,0.0,-0.1234,-0.1403,-0.157,-0.1673,-0.162,-0.1599,-0.1539,-0.1432,-0.1418,-0.1426,-0.1383,-0.1467,-0.1566,-0.1664,-0.1643,-0.1599,-0.1599,-0.1507,-0.1444,-0.1811,-0.1825,-0.169,-0.1416,-0.1363,-0.1357,-0.1357,-0.135,-0.1344,-0.1344,-0.1344,-0.1344,-0.1344,-0.17,-0.2188,-0.2677,-0.2946,-0.3173,-0.3445,-0.349,-0.3534,-0.3534,-0.3578,-0.3619,-0.37,-0.3968,-0.428,-0.4714,-0.4927,-0.5361,-0.6153,-0.6313,-0.6428,-0.6592,-0.6732,-0.7034,-0.7587,-0.7938,-0.8259,-0.8602,-0.8958,-0.9319,-0.9649,-0.9862,-1.0196,0.8285,0.8464,0.8642,0.8631,0.8682,0.8757,0.8884,0.9051,0.9189,0.9217,0.9274,0.9647,1.0576,1.0774,1.1134,1.2201,1.2874,1.3507,1.4137,1.4613,1.4678,1.4146,1.3638,1.2699,1.0943,0.9843,0.8514,0.6759,0.6206,0.5729,0.5124,0.4657,0.4161,0.3611,0.3213,0.275,0.2303,0.1309,0.0533,-0.011,-0.0331,-0.0607,-0.0939,-0.0944,-0.0947,-0.0947,0.0,-0.0954,-0.0954,-0.101,-0.1009,-0.1062,-0.1026,-0.1012,-0.1008,-0.092,-0.0926,-0.1008,-0.0984,-0.0998,-0.1003,-0.1008,-0.1041,-0.1012,-0.1012,-0.0987,-0.0906,-0.0993,-0.1189,-0.1338,-0.1239,-0.121,-0.1132,-0.1132,-0.1149,-0.1164,-0.1164,-0.1164,-0.1164,-0.1164,-0.1433,-0.1791,-0.2144,-0.2457,-0.2684,-0.2954,-0.304,-0.3126,-0.3262,-0.3442,-0.3619,-0.37,-0.4052,-0.4364,-0.4543,-0.4714,-0.4932,-0.5203,-0.5577,-0.591,-0.6081,-0.6295,-0.6598,-0.6999,-0.7523,-0.7855,-0.8036,-0.8316,-0.8623,-0.8968,-0.9012,-0.9358,0.8005,0.831,0.8618,0.8729,0.8972,0.922,0.9369,0.98,1.017,1.017,1.0405,1.0833,1.1446,1.1508,1.1886,1.3225,1.3882,1.4421,1.4959,1.5148,1.5077,1.4615,1.3926,1.2878,1.134,1.0253,0.8855,0.7012,0.6556,0.602,0.5222,0.4877,0.4411,0.3831,0.3517,0.312,0.2627,0.1915,0.1214,0.0505,0.0168,-0.028,-0.0898,-0.0898,-0.0898,-0.0898,0.0,-0.0898,-0.0898,-0.0898,-0.0898,-0.0896,-0.0882,-0.0877,-0.0875,-0.0861,-0.0865,-0.0879,-0.0892,-0.0898,-0.0898,-0.0898,-0.0888,-0.0877,-0.0877,-0.0867,-0.0855,-0.0855,-0.0936,-0.1009,-0.1009,-0.0945,-0.0933,-0.0933,-0.0921,-0.0956,-0.0956,-0.0956,-0.0956,-0.0956,-0.1196,-0.1484,-0.1721,-0.2005,-0.2274,-0.2505,-0.2636,-0.2863,-0.3187,-0.3507,-0.377,-0.4134,-0.4291,-0.4373,-0.4472,-0.4511,-0.467,-0.4985,-0.5198,-0.5404,-0.562,-0.5836,-0.6136,-0.6526,-0.6937,-0.7231,-0.7377,-0.753,-0.786,-0.8299,-0.8299,-0.863,0.7763,0.811,0.8532,0.884,0.933,0.9788,0.9892,1.0533,1.1067,1.0998,1.1407,1.1895,1.2246,1.2374,1.2862,1.4072,1.4694,1.5193,1.572,1.5614,1.5334,1.5051,1.4097,1.2976,1.1639,1.0551,0.9176,0.7241,0.681,0.6213,0.5352,0.5069,0.4608,0.3975,0.3704,0.3252,0.2627,0.2351,0.1819,0.1121,0.0729,0.0112,-0.0673,-0.0729,-0.0842,-0.0898,-0.0898,-0.0898,-0.0898,-0.0898,-0.0898,-0.0898,-0.0898,-0.0898,-0.0898,-0.0898,-0.0898,-0.0898,-0.0898,-0.0898,-0.0898,-0.0898,-0.0898,-0.0898,-0.0898,-0.0898,-0.0898,-0.0898,-0.0864,-0.0828,-0.0828,-0.0823,-0.0817,-0.0817,-0.0812,-0.0806,-0.0806,-0.0806,-0.0806,-0.0806,-0.1009,-0.121,-0.1413,-0.1613,-0.1844,-0.2034,-0.2313,-0.2651,-0.3226,-0.356,-0.3983,-0.4553,-0.4546,-0.451,-0.4558,-0.4479,-0.4578,-0.4947,-0.486,-0.4937,-0.5111,-0.5415,-0.5669,-0.5964,-0.6301,-0.6513,-0.6611,-0.671,-0.7033,-0.7564,-0.7586,-0.7878,0.7713,0.7739,0.7907,0.8485,0.9316,1.0034,1.0224,1.0847,1.1335,1.1201,1.1659,1.2177,1.2607,1.3279,1.3852,1.4165,1.4665,1.515,1.5644,1.5492,1.5153,1.4801,1.3815,1.2706,1.1358,1.0364,0.9079,0.7241,0.681,0.6213,0.5352,0.5069,0.4613,0.3943,0.3573,0.3099,0.2438,0.2284,0.2047,0.1734,0.1121,0.0561,-0.0056,-0.0336,-0.0617,-0.0898,-0.0898,-0.0898,-0.0898,-0.0898,-0.0898,-0.0898,-0.0898,-0.0898,-0.0898,-0.0898,-0.0898,-0.0898,-0.0898,-0.0898,-0.0898,-0.0898,-0.0898,-0.0898,-0.0898,-0.0898,-0.0898,-0.0898,-0.0894,-0.0891,-0.0891,-0.087,-0.0902,-0.0902,-0.0827,-0.0806,-0.0806,-0.0806,-0.0806,-0.0806,-0.0908,-0.1059,-0.121,-0.1312,-0.1411,-0.1709,-0.2109,-0.2607,-0.3155,-0.3655,-0.4154,-0.4565,-0.4697,-0.4784,-0.4784,-0.4775,-0.4767,-0.4816,-0.45,-0.4447,-0.4661,-0.4923,-0.5135,-0.5351,-0.5653,-0.5782,-0.5782,-0.5924,-0.6162,-0.6519,-0.6645,-0.6889,0.7257,0.7503,0.7832,0.8152,0.9098,0.0,0.0,1.0944,1.1743,1.1639,1.2075,1.2571,1.2874,1.3625,1.4261,1.4416,1.4776,1.5235,1.5644,1.5334,1.4915,1.4479,1.3579,1.2414,1.1065,1.0167,0.8981,0.7241,0.681,0.6213,0.5352,0.4973,0.4513,0.3928,0.3482,0.3011,0.2417,0.2367,0.2324,0.2279,0.1847,0.1265,0.0561,0.0224,-0.028,-0.0898,-0.0898,-0.0898,-0.0898,-0.0898,-0.0898,-0.0898,-0.0898,-0.0898,-0.0898,-0.0898,-0.0898,-0.0898,-0.0898,-0.0898,-0.0898,-0.0898,-0.0898,-0.0898,-0.0898,-0.0898,-0.0898,-0.0898,-0.0898,-0.0898,-0.0898,-0.0889,-0.0881,-0.0881,-0.0872,-0.0863,-0.0863,-0.0863,-0.0863,-0.0863,-0.0918,-0.0972,-0.1025,-0.1079,-0.1231,-0.131,-0.1825,-0.2447,-0.3167,-0.374,-0.4299,-0.4979,-0.4996,-0.493,-0.4816,-0.4804,-0.4804,-0.4804,-0.4678,-0.4699,-0.4841,-0.5034,-0.5175,-0.5307,-0.5499,-0.5592,-0.5592,-0.5629,-0.578,-0.6092,-0.6125,-0.6278,0.7656,0.7991,0.8303,0.8397,0.0,0.0,0.9999,1.1019,1.2029,1.2148,1.2443,1.2756,1.3088,1.3716,1.4264,1.4495,1.4845,1.5223,1.5543,1.5198,1.472,1.4305,1.3389,1.2258,1.0914,1.0064,0.8928,0.7241,0.681,0.6213,0.5352,0.5019,0.4534,0.3913,0.3515,0.2985,0.238,0.2334,0.2395,0.2511,0.2252,0.1825,0.1177,0.0729,0.0112,-0.0617,-0.0729,-0.0785,-0.0898,-0.0898,-0.0898,-0.0898,-0.0898,-0.0898,-0.0898,-0.0898,-0.0898,-0.0898,-0.0898,-0.0898,-0.0898,-0.0898,-0.0898,-0.0898,-0.0898,-0.0898,-0.0898,-0.0898,-0.0905,-0.0912,-0.0912,-0.0905,-0.0898,-0.0898,-0.0898,-0.0898,-0.0898,-0.0898,-0.0898,-0.0898,-0.0898,-0.0898,-0.0954,-0.1066,-0.1113,-0.125,-0.173,-0.2429,-0.3233,-0.3773,-0.4355,-0.5117,-0.5131,-0.506,-0.4884,-0.4923,-0.4978,-0.4978,-0.4978,-0.4976,-0.4911,-0.5009,-0.5108,-0.5148,-0.5251,-0.5256,-0.5256,-0.5318,-0.5466,-0.5652,-0.5715,-0.5761,0.9128,0.9298,0.9298,0.9298,0.9763,1.0193,1.0207,1.1127,1.2141,1.2663,1.2692,1.2714,1.3135,1.3466,1.3877,1.4332,1.4793,1.5138,1.5287,1.5062,1.472,1.4269,1.3389,1.2267,1.0914,1.0064,0.8928,0.7241,0.681,0.6213,0.5352,0.5183,0.4755,0.3929,0.3624,0.3107,0.2328,0.2243,0.2292,0.2419,0.2267,0.204,0.179,0.1177,0.0561,-0.0,-0.028,-0.0561,-0.0898,-0.0898,-0.0898,-0.0898,-0.0898,-0.0898,-0.0898,-0.0898,-0.0898,-0.0898,-0.0898,-0.0898,-0.0898,-0.0898,-0.0898,-0.0898,-0.0898,-0.0898,-0.0898,-0.0898,-0.092,-0.0884,-0.0884,-0.0921,-0.0898,-0.0898,-0.0898,-0.0898,-0.0898,-0.0898,-0.0898,-0.0898,-0.0898,-0.0954,-0.1066,-0.1122,-0.1234,-0.1572,-0.1962,-0.2464,-0.3302,-0.3747,-0.4242,-0.4846,-0.5014,-0.5069,-0.5069,-0.5242,-0.5297,-0.5297,-0.5297,-0.5136,-0.4824,-0.4808,-0.4808,-0.4808,-0.4808,-0.4808,-0.4808,-0.4995,-0.5084,-0.5088,-0.5217,-0.5297,0.9241,0.9298,0.9298,0.9298,0.9763,1.0306,1.0742,1.1099,1.1408,1.1566,1.1883,1.2264,1.2744,1.3423,1.4119,1.4638,1.4967,1.5181,1.5398,1.5028,1.4512,1.4118,1.315,1.2012,1.0762,0.9909,0.883,0.7246,0.681,0.6213,0.5352,0.5065,0.4737,0.4333,0.3972,0.3479,0.2868,0.2728,0.265,0.2565,0.2513,0.2468,0.241,0.1964,0.1347,0.0617,0.028,-0.0224,-0.0898,-0.0898,-0.0898,-0.0898,-0.0898,-0.0898,-0.0898,-0.0898,-0.0898,-0.0898,-0.0898,-0.0898,-0.0898,-0.0898,-0.0898,-0.0898,-0.0898,-0.0898,-0.0902,-0.0924,-0.0877,-0.0888,-0.0969,-0.0968,-0.0956,-0.0935,-0.0871,-0.0924,-0.0902,-0.0898,-0.0898,-0.0898,-0.0954,-0.1066,-0.1066,-0.1291,-0.1459,-0.1572,-0.1962,-0.2464,-0.3132,-0.3519,-0.3849,-0.4239,-0.4519,-0.4739,-0.4956,-0.5183,-0.5297,-0.5297,-0.5297,-0.5249,-0.514,-0.5136,-0.5136,-0.5136,-0.5136,-0.5136,-0.5136,-0.5193,-0.5217,-0.5221,-0.5273,-0.5297,0.994,1.001,1.001,1.001,1.0292,1.0658,1.1015,1.1282,1.138,1.1141,1.1284,1.1686,1.243,1.2884,1.3506,1.4613,1.4756,1.4857,1.5229,1.4789,1.4222,1.3684,1.2764,1.1724,1.0568,0.9762,0.8725,0.7187,0.681,0.6213,0.5352,0.5139,0.4888,0.4505,0.4043,0.3541,0.3004,0.2759,0.2611,0.2501,0.2588,0.2657,0.2691,0.23,0.1794,0.1232,0.0784,0.0224,-0.0393,-0.0505,-0.0617,-0.0729,-0.0842,-0.0898,-0.0898,-0.0898,-0.0898,-0.0898,-0.0898,-0.0898,-0.0898,-0.0898,-0.0898,-0.0898,-0.0898,-0.0906,-0.092,-0.0879,-0.09,-0.0922,-0.1001,-0.1014,-0.1012,-0.0971,-0.0892,-0.0879,-0.092,-0.0906,-0.0898,-0.0954,-0.1066,-0.1122,-0.129,-0.1459,-0.1628,-0.1685,-0.2018,-0.2464,-0.291,-0.3186,-0.3519,-0.3744,-0.4076,-0.4408,-0.4629,-0.4959,-0.5128,-0.5128,-0.5128,-0.5128,-0.5128,-0.5242,-0.5297,-0.5297,-0.5297,-0.5297,-0.5297,-0.5297,-0.5297,-0.5297,-0.5297,-0.5297,1.0968,1.1085,1.1085,1.1085,1.1085,1.1085,1.1085,1.1521,1.1774,1.1198,1.0944,1.1121,1.2182,1.2134,1.2532,1.4311,1.4405,1.4382,1.4812,1.4444,1.3836,1.3016,1.2187,1.1292,1.0269,0.9562,0.8573,0.7192,0.681,0.6213,0.5352,0.5297,0.5058,0.453,0.4012,0.3479,0.2936,0.2546,0.2397,0.2432,0.2523,0.2663,0.2691,0.2352,0.2071,0.1846,0.1286,0.0896,0.0561,0.0224,-0.0056,-0.0393,-0.0729,-0.0898,-0.0898,-0.0898,-0.0898,-0.0898,-0.09,-0.0902,-0.0902,-0.0905,-0.0906,-0.0906,-0.0906,-0.0925,-0.0888,-0.0891,-0.0929,-0.0969,-0.1037,-0.1057,-0.1062,-0.1009,-0.0973,-0.089,-0.0885,-0.0921,-0.0957,-0.1067,-0.1122,-0.1234,-0.1572,-0.1628,-0.1685,-0.1797,-0.2188,-0.2465,-0.2579,-0.2856,-0.3077,-0.3246,-0.3633,-0.3968,-0.4082,-0.4515,-0.4787,-0.4787,-0.4787,-0.4787,-0.4846,-0.5128,-0.5297,-0.5297,-0.5297,-0.5297,-0.5297,-0.5297,-0.5297,-0.5297,-0.5297,-0.5297,1.1043,1.1085,1.1085,1.1085,1.1085,1.1085,1.1085,1.1174,1.1206,1.1127,1.0944,1.1058,1.193,1.2195,1.278,1.4232,1.4463,1.4514,1.471,1.4061,1.3208,1.2316,1.1516,1.0669,0.9814,0.919,0.8408,0.7192,0.681,0.6213,0.5352,0.5183,0.4999,0.4692,0.422,0.3712,0.3115,0.2958,0.2763,0.0,0.2617,0.2672,0.2691,0.2521,0.2352,0.2296,0.2301,0.2135,0.1741,0.101,0.0505,0.0168,-0.0617,-0.0898,-0.0898,-0.0898,-0.0898,-0.0901,-0.0925,-0.0875,-0.0937,-0.0961,-0.0969,-0.0969,-0.0969,-0.0973,-0.0984,-0.1007,-0.096,-0.1039,-0.1061,-0.1071,-0.1072,-0.106,-0.1035,-0.0939,-0.0894,-0.0997,-0.11,-0.1128,-0.1291,-0.1515,-0.1572,-0.1685,-0.1741,-0.1797,-0.1909,-0.1965,-0.1965,-0.202,-0.2186,-0.2408,-0.2794,-0.3072,-0.3299,-0.3683,-0.3904,-0.3904,-0.3904,-0.3959,-0.4187,-0.4798,-0.5128,-0.5128,-0.5242,-0.5297,-0.5297,-0.5297,-0.5297,-0.5297,-0.5297,-0.5297,1.1085,1.1085,1.1085,1.1085,1.131,1.145,1.1155,1.1252,1.1305,1.0966,1.0753,1.0776,1.138,1.1618,1.2188,1.3562,1.3761,1.3923,1.4334,1.3579,1.2667,1.1715,1.0973,1.0226,0.9465,0.8988,0.8249,0.7192,0.681,0.6213,0.5352,0.5242,0.5018,0.4691,0.4267,0.3767,0.3187,0.2922,0.2713,0.2609,0.2646,0.2691,0.2691,0.2635,0.2577,0.2521,0.2639,0.2527,0.2132,0.1569,0.1064,0.0561,-0.0168,-0.0561,-0.0674,-0.0857,-0.0919,-0.0924,-0.0954,-0.0965,-0.0967,-0.0983,-0.0988,-0.0988,-0.0988,-0.0999,-0.1014,-0.1029,-0.1044,-0.1057,-0.1072,-0.1076,-0.1076,-0.1076,-0.1054,-0.0961,-0.0931,-0.1024,-0.1114,-0.1211,-0.1363,-0.1515,-0.1685,-0.1741,-0.1797,-0.1797,-0.182,-0.1837,-0.1837,-0.1862,-0.1986,-0.2125,-0.2464,-0.2732,-0.2914,-0.3234,-0.3431,-0.3431,-0.3425,-0.3571,-0.3804,-0.4384,-0.4834,-0.5014,-0.5183,-0.5337,-0.5422,-0.5422,-0.5422,-0.5422,-0.5422,-0.5378,1.1085,1.1085,1.1085,1.1062,1.1514,1.1797,1.1294,1.1474,1.1554,1.0913,1.0565,1.0469,1.0773,1.0927,1.1394,1.2666,1.2923,1.3087,1.3641,1.3004,1.212,1.1166,1.0482,0.9836,0.9211,0.8791,0.815,0.7192,0.681,0.6213,0.5352,0.5297,0.5077,0.4691,0.4214,0.3714,0.3187,0.2872,0.266,0.2609,0.2646,0.2691,0.2691,0.2691,0.2691,0.2691,0.2691,0.2521,0.2183,0.1959,0.1568,0.1066,0.028,-0.0224,-0.0507,-0.0815,-0.0884,-0.0889,-0.0984,-0.0996,-0.0997,-0.1002,-0.1003,-0.1003,-0.1003,-0.1021,-0.1041,-0.1041,-0.1058,-0.1076,-0.1076,-0.1076,-0.1076,-0.1076,-0.1058,-0.1039,-0.097,-0.0994,-0.1075,-0.13,-0.1378,-0.1462,-0.1753,-0.1812,-0.1815,-0.1826,-0.1867,-0.1896,-0.1896,-0.194,-0.2013,-0.2081,-0.2302,-0.251,-0.2571,-0.2845,-0.3004,-0.3019,-0.3036,-0.3199,-0.3381,-0.3806,-0.4252,-0.4594,-0.5106,-0.5405,-0.554,-0.5599,-0.5599,-0.5599,-0.5624,-0.5535,1.1085,1.1062,1.0991,1.0944,1.1355,1.1692,1.1558,1.1481,1.1389,1.1189,1.0703,1.0367,1.0606,1.0791,1.1146,1.1852,1.232,1.2582,1.262,1.2215,1.1543,1.0618,1.002,0.9465,0.891,0.8586,0.8049,0.7192,0.681,0.6213,0.5352,0.5183,0.5018,0.4691,0.4271,0.377,0.3187,0.3026,0.2817,0.2609,0.2646,0.2691,0.2691,0.2691,0.2691,0.2691,0.2691,0.2521,0.2184,0.2071,0.2074,0.1853,0.0336,-0.0505,-0.0845,-0.0874,-0.0884,-0.0891,-0.1007,-0.1028,-0.1031,-0.1056,-0.1064,-0.1064,-0.1064,-0.1067,-0.107,-0.107,-0.1073,-0.1076,-0.1076,-0.1076,-0.1076,-0.1076,-0.1073,-0.1063,-0.1039,-0.1156,-0.1257,-0.1251,-0.1378,-0.1642,-0.1861,-0.1869,-0.1888,-0.194,-0.1955,-0.1961,-0.1961,-0.1967,-0.203,-0.2022,-0.1973,-0.2018,-0.2065,-0.2086,-0.2081,-0.214,-0.2151,-0.228,-0.2526,-0.2893,-0.3247,-0.3527,-0.4733,-0.5408,-0.543,-0.5543,-0.5599,-0.5596,-0.5623,-0.56,1.1605,1.128,1.0979,1.1201,1.1615,1.1951,1.1783,1.1686,1.1484,1.102,1.0335,0.9864,0.9924,1.0214,1.0575,1.0965,1.1518,1.192,1.1935,1.1646,1.1099,1.0269,0.9718,0.9204,0.8738,0.8262,0.7723,0.702,0.6588,0.605,0.5352,0.5242,0.5073,0.4849,0.4511,0.4037,0.3439,0.317,0.29,0.2632,0.2672,0.2691,0.2691,0.2691,0.2691,0.2691,0.2691,0.2521,0.2183,0.2015,0.1737,0.1347,0.028,-0.034,-0.0695,-0.0897,-0.0979,-0.0937,-0.1042,-0.1057,-0.1059,-0.1072,-0.1076,-0.1076,-0.1076,-0.1076,-0.1076,-0.1076,-0.1076,-0.1076,-0.1076,-0.1076,-0.1076,-0.1076,-0.1076,-0.1072,-0.106,-0.111,-0.1149,-0.1344,-0.1615,-0.1843,-0.1928,-0.1932,-0.1941,-0.1967,-0.2001,-0.2086,-0.2086,-0.2117,-0.2126,-0.2091,-0.1999,-0.198,-0.1973,-0.198,-0.1995,-0.2084,-0.212,-0.2204,-0.24,-0.2785,-0.3041,-0.3238,-0.4066,-0.4645,-0.4974,-0.522,-0.5406,-0.5589,-0.5823,-0.586,1.1674,1.1328,1.1069,1.1322,1.1851,1.2246,1.2079,1.1946,1.1678,1.0949,1.0152,0.9544,0.9407,0.9765,1.0123,1.0239,1.0884,1.1369,1.1186,1.1057,1.0651,0.9969,0.9465,0.8942,0.8468,0.7937,0.7402,0.6745,0.6372,0.5891,0.5352,0.5297,0.5187,0.5011,0.4736,0.4294,0.3683,0.3241,0.2912,0.2691,0.2691,0.2691,0.2691,0.2691,0.2691,0.2691,0.2691,0.2521,0.2183,0.1959,0.1456,0.0729,0.0226,-0.0231,-0.0651,-0.0924,-0.1014,-0.1038,-0.1066,-0.1076,-0.1076,-0.1076,-0.1076,-0.1076,-0.1076,-0.1076,-0.1076,-0.1076,-0.1076,-0.1076,-0.1076,-0.1076,-0.1076,-0.1076,-0.1076,-0.1076,-0.1143,-0.1119,-0.1154,-0.1506,-0.1736,-0.1915,-0.1992,-0.1995,-0.2001,-0.2079,-0.2121,-0.2151,-0.2151,-0.2192,-0.2203,-0.2157,-0.2137,-0.2114,-0.2084,-0.2109,-0.2134,-0.2151,-0.2195,-0.2221,-0.2357,-0.2622,-0.2824,-0.296,-0.3219,-0.3753,-0.442,-0.4865,-0.5182,-0.5506,-0.5848,-0.595,1.0783,1.1012,1.1242,1.1147,1.1848,1.2545,1.2398,1.2225,1.189,1.1216,1.0385,0.9681,0.9365,0.97,0.9967,0.9858,1.056,1.0866,1.0191,1.0303,1.0241,0.9666,0.9263,0.8738,0.7978,0.767,0.7139,0.6317,0.6105,0.5786,0.5297,0.5297,0.5297,0.5297,0.5014,0.457,0.3965,0.3135,0.2691,0.2691,0.2691,0.2691,0.2691,0.2691,0.2691,0.2691,0.2691,0.2521,0.2184,0.2127,0.1456,0.0394,0.0116,-0.0353,-0.0891,-0.0946,-0.1032,-0.1038,-0.1066,-0.1076,-0.1076,-0.1076,-0.1076,-0.1076,-0.1076,-0.1076,-0.1076,-0.1076,-0.1076,-0.1076,-0.1076,-0.1076,-0.1076,-0.1076,-0.1076,-0.1143,-0.1277,-0.1315,-0.1352,-0.1736,-0.176,-0.1803,-0.2048,-0.2123,-0.2143,-0.2203,-0.2214,-0.2216,-0.2216,-0.2218,-0.222,-0.2217,-0.2162,-0.2151,-0.2207,-0.2159,-0.2152,-0.2213,-0.2218,-0.2221,-0.2221,-0.2221,-0.2221,-0.2221,-0.2281,-0.288,-0.402,-0.4544,-0.4938,-0.514,-0.5453,-0.5631,1.1349,1.1293,1.1165,1.1733,1.209,1.2316,1.2552,1.2188,1.1676,1.131,1.0557,0.9906,0.9846,0.9659,0.9552,0.9561,1.0091,1.0301,0.9765,0.9847,0.9873,0.9413,0.9001,0.8468,0.7824,0.7354,0.6815,0.6105,0.5891,0.5622,0.5301,0.5297,0.5297,0.5297,0.5128,0.468,0.3855,0.319,0.2802,0.2691,0.2691,0.2691,0.2691,0.2691,0.2691,0.2691,0.2691,0.2521,0.2183,0.2015,0.1587,0.1099,0.076,0.0422,0.0,-0.0256,-0.0522,-0.073,-0.1005,-0.1076,-0.1076,-0.1076,-0.1076,-0.1076,-0.1076,-0.1076,-0.1076,-0.1076,-0.1076,-0.1076,-0.1076,-0.1076,-0.1076,-0.1076,-0.1076,-0.1143,-0.1412,-0.1467,-0.1589,-0.1789,-0.1971,-0.203,-0.2117,-0.2187,-0.2195,-0.2217,-0.2221,-0.2221,-0.2221,-0.2221,-0.2221,-0.2221,-0.2202,-0.2197,-0.2218,-0.22,-0.2197,-0.222,-0.2221,-0.2221,-0.2221,-0.2221,-0.2221,-0.2221,-0.2221,-0.2488,-0.3155,-0.3551,-0.3951,-0.4289,-0.4638,-0.4745,1.1276,1.1307,1.1348,1.1903,1.2089,1.2217,1.2437,1.2072,1.1561,1.1228,1.0563,1.0059,0.9986,0.9546,0.9249,0.9404,0.984,0.9939,0.9313,0.9509,0.951,0.9106,0.8738,0.8256,0.7563,0.7085,0.649,0.5841,0.5622,0.0,0.5301,0.5297,0.5297,0.5242,0.5073,0.4629,0.3965,0.3357,0.297,0.2856,0.2747,0.2691,0.2691,0.2691,0.2691,0.2691,0.2691,0.2521,0.2296,0.2183,0.1941,0.1707,0.1605,0.1479,0.1225,0.0455,0.0,-0.0269,-0.0875,-0.1077,-0.1077,-0.1076,-0.1076,-0.1076,-0.1076,-0.1076,-0.1076,-0.1076,-0.1076,-0.1076,-0.1076,-0.1143,-0.1143,-0.1143,-0.121,-0.1344,-0.1614,-0.1681,-0.1681,-0.1951,-0.2087,-0.2221,-0.2221,-0.2221,-0.2221,-0.2221,-0.2221,-0.2221,-0.2221,-0.2221,-0.2221,-0.2221,-0.2221,-0.2221,-0.2221,-0.2221,-0.2221,-0.2221,-0.2221,-0.2221,-0.2221,-0.2221,-0.2221,-0.2221,-0.2221,-0.2287,-0.2554,-0.2952,-0.3286,-0.3625,-0.3956,-0.4154,0.0,0.0,0.0,1.1524,1.1815,1.2138,1.2102,1.192,1.1578,1.0946,1.0474,1.0108,0.9777,0.931,0.9093,0.9424,0.9761,0.9657,0.8795,0.9112,0.9211,0.8857,0.8533,0.8049,0.7187,0.6804,0.6213,0.5352,0.5297,0.5297,0.5297,0.5297,0.5242,0.5124,0.4853,0.4525,0.4193,0.3694,0.3299,0.3074,0.28,0.2691,0.2691,0.2691,0.2691,0.2691,0.2691,0.2635,0.2521,0.2635,0.2516,0.2245,0.2561,0.2704,0.2528,0.1065,0.0538,0.0336,-0.0674,-0.1079,-0.1079,-0.1076,-0.1076,-0.1076,-0.1076,-0.1076,-0.1076,-0.1076,-0.1076,-0.1076,-0.1077,-0.1212,-0.1279,-0.128,-0.1483,-0.1685,-0.1889,-0.1754,-0.1753,-0.2154,-0.2223,-0.2224,-0.2221,-0.2221,-0.2221,-0.2221,-0.2221,-0.2221,-0.2221,-0.2221,-0.2221,-0.2221,-0.2221,-0.2221,-0.2221,-0.2221,-0.2221,-0.2221,-0.2221,-0.2221,-0.2221,-0.2221,-0.2221,-0.2221,-0.2221,-0.2221,-0.2221,-0.2757,-0.3025,-0.3159,-0.3558,-0.3758,1.0824,0.0,0.0,0.0,0.0,0.0,1.1505,1.1356,1.1127,1.0909,1.0579,1.0192,0.9733,0.9394,0.9125,0.8756,0.9068,0.9159,0.8576,0.8783,0.885,0.8533,0.8156,0.767,0.702,0.6583,0.605,0.0,0.5297,0.5297,0.5297,0.5297,0.5297,0.5242,0.4912,0.4467,0.4079,0.3635,0.319,0.28,0.2747,0.2691,0.2691,0.2691,0.2691,0.2691,0.2691,0.2691,0.2635,0.2691,0.2667,0.2559,0.2521,0.242,0.2264,0.1542,0.1076,0.0605,-0.0067,-0.0471,-0.074,-0.1008,-0.1076,-0.1076,-0.1076,-0.1076,-0.1076,-0.1076,-0.1076,-0.1149,-0.131,-0.1317,-0.1393,-0.1634,-0.1712,-0.1784,-0.1998,-0.1998,-0.1976,-0.217,-0.2189,-0.2206,-0.223,-0.2221,-0.2221,-0.2221,-0.2221,-0.2221,-0.2221,-0.2221,-0.2221,-0.2221,-0.2221,-0.2221,-0.2221,-0.2221,-0.2221,-0.2221,-0.2221,-0.2221,-0.2221,-0.2221,-0.2221,-0.2221,-0.2221,-0.2221,-0.2221,-0.2356,-0.2421,-0.249,-0.2622,-0.2622,1.0761,1.0698,1.072,1.0843,0.0,0.0,1.0905,1.0753,1.0601,1.0572,1.0264,0.9913,0.9518,0.9159,0.8765,0.8283,0.8304,0.8272,0.8038,0.8221,0.8262,0.7889,0.7563,0.7182,0.6637,0.6317,0.5891,0.5352,0.5297,0.5297,0.5297,0.5297,0.5297,0.5242,0.4857,0.4522,0.4079,0.3635,0.3246,0.2856,0.2747,0.2691,0.2691,0.2691,0.2691,0.2691,0.2691,0.2691,0.2691,0.2691,0.2623,0.253,0.2405,0.2239,0.2154,0.2018,0.1749,0.1412,0.0672,0.0202,-0.0202,-0.0875,-0.1077,-0.1077,-0.1076,-0.1076,-0.1076,-0.1076,-0.1152,-0.1236,-0.1395,-0.1555,-0.1717,-0.189,-0.197,-0.2042,-0.2189,-0.2206,-0.2196,-0.2248,-0.2258,-0.2271,-0.2236,-0.2208,-0.2192,-0.2192,-0.217,-0.2221,-0.2221,-0.2221,-0.2221,-0.2221,-0.2221,-0.2221,-0.2221,-0.2221,-0.2221,-0.2221,-0.2221,-0.2232,-0.2191,-0.2192,-0.2203,-0.2229,-0.2204,-0.2179,-0.2221,-0.2221,-0.2221,-0.2221,-0.2221,-0.2221,1.0467,1.0467,0.0,1.0341,1.0196,0.0,1.0225,1.0069,0.9961,0.9961,0.9677,0.9328,0.9096,0.8651,0.8201,0.7829,0.7456,0.7256,0.7342,0.7568,0.7576,0.7079,0.6912,0.6637,0.6209,0.605,0.5786,0.5352,0.5297,0.5297,0.5297,0.5297,0.5242,0.5128,0.4853,0.4522,0.4193,0.3635,0.3299,0.3074,0.28,0.2691,0.2691,0.2691,0.2691,0.2691,0.2691,0.2691,0.2691,0.2701,0.2572,0.2405,0.2219,0.2175,0.2221,0.2424,0.2491,0.2357,0.1479,0.0941,0.0403,-0.0674,-0.1011,-0.1011,-0.1076,-0.1076,-0.1076,-0.1147,-0.1238,-0.1403,-0.1483,-0.1799,-0.2126,-0.2133,-0.2207,-0.2356,-0.2356,-0.2394,-0.2414,-0.2365,-0.2349,-0.2342,-0.2337,-0.2219,-0.2184,-0.2184,-0.2208,-0.2239,-0.2232,-0.2231,-0.223,-0.2221,-0.2228,-0.2231,-0.2231,-0.2238,-0.2242,-0.2242,-0.2242,-0.2199,-0.2182,-0.2184,-0.221,-0.2334,-0.2211,-0.2228,-0.2242,-0.2228,-0.2221,-0.2221,-0.2228,-0.2231,1.0452,1.0138,0.9892,0.9536,0.9328,0.0,0.9142,0.9102,0.9062,0.9062,0.895,0.8716,0.8308,0.8021,0.7641,0.7021,0.6831,0.6792,0.6919,0.6962,0.6963,0.673,0.648,0.6263,0.6055,0.5837,0.5567,0.5297,0.5297,0.5297,0.5297,0.5297,0.5297,0.5242,0.4912,0.4467,0.4024,0.3635,0.319,0.28,0.2747,0.2691,0.2691,0.2691,0.2691,0.2691,0.2691,0.2635,0.2527,0.2596,0.2506,0.2344,0.2096,0.2046,0.2221,0.2221,0.2288,0.2221,0.2082,0.1544,0.0874,0.0067,-0.0403,-0.0672,-0.1008,-0.1076,-0.1149,-0.1313,-0.1395,-0.1487,-0.1921,-0.21,-0.2193,-0.2388,-0.2476,-0.2476,-0.2476,-0.2485,-0.2489,-0.2478,-0.2437,-0.2388,-0.2343,-0.2253,-0.2245,-0.2245,-0.2308,-0.2282,-0.2233,-0.2228,-0.2208,-0.2227,-0.2198,-0.2228,-0.2228,-0.2271,-0.23,-0.23,-0.23,-0.2305,-0.2245,-0.2245,-0.225,-0.2335,-0.225,-0.2312,-0.23,-0.2202,-0.2221,-0.2223,-0.2204,-0.2228,0.9828,0.9481,0.9199,0.8895,0.0,0.0,0.0,0.8464,0.8423,0.8504,0.8349,0.8111,0.778,0.744,0.7061,0.6643,0.6293,0.6143,0.6206,0.6243,0.6181,0.5973,0.5837,0.5727,0.5677,0.5513,0.5407,0.5301,0.5297,0.5297,0.5297,0.5297,0.5242,0.5183,0.4857,0.4522,0.4079,0.3635,0.3246,0.2912,0.2745,0.2691,0.2691,0.2691,0.2691,0.2691,0.2691,0.2659,0.2531,0.2456,0.236,0.2144,0.1891,0.1943,0.2221,0.2221,0.2221,0.2356,0.2621,0.2284,0.1681,0.0807,0.0269,-0.0135,-0.0888,-0.1109,-0.1194,-0.1424,-0.1515,-0.1687,-0.2108,-0.2294,-0.2398,-0.2503,-0.2511,-0.2511,-0.2511,-0.2511,-0.2511,-0.2511,-0.2486,-0.2455,-0.2428,-0.2398,-0.2377,-0.2377,-0.2353,-0.2324,-0.2221,-0.2219,-0.2278,-0.2248,-0.2271,-0.2219,-0.2219,-0.2245,-0.2335,-0.2335,-0.2335,-0.2347,-0.2376,-0.2377,-0.2377,-0.2377,-0.2377,-0.2364,-0.2335,-0.2274,-0.2245,-0.2245,-0.2275,-0.2219,0.9069,0.8815,0.8626,0.8275,0.0,0.7848,0.0,0.0,0.0,0.7848,0.7648,0.737,0.7112,0.6732,0.6379,0.6186,0.5779,0.5524,0.5495,0.5544,0.551,0.5332,0.5297,0.5297,0.5297,0.5297,0.5297,0.5297,0.5297,0.5297,0.5297,0.5297,0.5242,0.5128,0.4853,0.4577,0.4304,0.3747,0.3355,0.3132,0.2856,0.2747,0.2691,0.2691,0.2691,0.2693,0.2709,0.2644,0.2534,0.2385,0.2222,0.1998,0.174,0.1836,0.2154,0.2154,0.2288,0.2557,0.3025,0.2893,0.2423,0.1546,0.0877,0.0204,-0.07,-0.1075,-0.1241,-0.1467,-0.1641,-0.1896,-0.221,-0.2398,-0.2511,-0.2511,-0.2511,-0.2511,-0.2511,-0.2511,-0.2511,-0.2511,-0.2511,-0.2511,-0.2511,-0.247,-0.2437,-0.2437,-0.2398,-0.2365,-0.2353,-0.2352,-0.2347,-0.2337,-0.2345,-0.2352,-0.2352,-0.2362,-0.2369,-0.2369,-0.2369,-0.239,-0.2435,-0.2437,-0.2437,-0.2437,-0.2437,-0.2414,-0.2369,-0.2369,-0.2358,-0.2335,-0.2346,-0.2352,0.0,0.0,0.0,0.0,0.7308,0.0,0.0,0.0,0.695,0.6732,0.0,0.6331,0.5953,0.0,0.0,0.0,0.5232,0.5139,0.513,0.5184,0.5202,0.5277,0.5297,0.5297,0.5297,0.5297,0.5297,0.5297,0.5297,0.5297,0.5297,0.5297,0.5297,0.5297,0.5014,0.4791,0.4636,0.4076,0.3633,0.3357,0.3026,0.2805,0.2691,0.2691,0.2691,0.2695,0.2777,0.264,0.2364,0.2499,0.2372,0.2063,0.1675,0.1705,0.1951,0.2154,0.2421,0.2686,0.3092,0.2956,0.2619,0.2214,0.116,-0.0,-0.0432,-0.0873,-0.1246,-0.1649,-0.1814,-0.1903,-0.2333,-0.2506,-0.2511,-0.2511,-0.2511,-0.2511,-0.2511,-0.2511,-0.2511,-0.2511,-0.2511,-0.2511,-0.2511,-0.2504,-0.25,-0.25,-0.2495,-0.2471,-0.2417,-0.241,-0.2391,-0.2341,-0.238,-0.241,-0.241,-0.2459,-0.2491,-0.2491,-0.2491,-0.2493,-0.25,-0.25,-0.25,-0.25,-0.25,-0.2497,-0.2491,-0.2491,-0.2437,-0.2337,-0.2387,-0.241,0.0,0.0,0.0,0.0,0.0,0.0,0.6435,0.0,0.6361,0.0,0.0,0.0,0.0,0.0,0.0,0.0,0.5225,0.52,0.5206,0.5238,0.5213,0.5289,0.0,0.0,0.5297,0.5297,0.5297,0.5297,0.5297,0.5297,0.5297,0.5297,0.5297,0.5297,0.5183,0.5073,0.4908,0.4519,0.419,0.3858,0.3416,0.3079,0.291,0.2745,0.2719,0.2772,0.2811,0.2703,0.2611,0.2617,0.2411,0.2116,0.1717,0.1797,0.2087,0.2154,0.2421,0.2753,0.3092,0.3025,0.2829,0.2536,0.1701,0.0661,0.0297,-0.0527,-0.1298,-0.1466,-0.1703,-0.1939,-0.227,-0.2431,-0.2511,-0.2511,-0.2511,-0.2511,-0.2511,-0.2511,-0.2511,-0.2511,-0.2511,-0.2511,-0.2511,-0.2511,-0.2511,-0.2511,-0.2511,-0.2501,-0.2476,-0.2471,-0.2463,-0.244,-0.2458,-0.2471,-0.2471,-0.2496,-0.2511,-0.2511,-0.2511,-0.2511,-0.2511,-0.2511,-0.2511,-0.2511,-0.2511,-0.2511,-0.2511,-0.2511,-0.2485,-0.2437,-0.2462,-0.2471,0.7805,0.0,0.0,0.0,0.0,0.0,0.0,0.0,0.0,0.0,0.0,0.0,0.0,0.0,0.0,0.0,0.0,0.5255,0.0,0.5297,0.5297,0.5297,0.0,0.0,0.0,0.5297,0.5297,0.5297,0.5341,0.5349,0.5301,0.5345,0.5369,0.5369,0.5369,0.5334,0.5325,0.4998,0.4696,0.4416,0.3819,0.3411,0.3188,0.2856,0.2799,0.2828,0.2852,0.2824,0.2768,0.2731,0.251,0.2221,0.1884,0.1951,0.2221,0.2221,0.2421,0.2753,0.3092,0.3175,0.3078,0.2765,0.2205,0.1516,0.0992,-0.0,-0.0942,-0.1178,-0.1493,-0.1886,-0.2041,-0.2198,-0.2354,-0.2354,-0.2354,-0.2354,-0.2354,-0.2354,-0.2354,-0.2431,-0.2431,-0.2431,-0.251,-0.2511,-0.2511,-0.2511,-0.2511,-0.2511,-0.2511,-0.2511,-0.2511,-0.2511,-0.2511,-0.2511,-0.2511,-0.2511,-0.2511,-0.2511,-0.2511,-0.2511,-0.2511,-0.2511,-0.2511,-0.2511,-0.2511,-0.2511,-0.2511,-0.2511,-0.2511,-0.2511,-0.2511,-0.2511,0.0,0.0,0.0,0.5091,0.0,0.0,0.0,0.0,0.5159,0.0,0.0,0.0,0.0,0.0,0.0,0.0,0.0,0.0,0.0,0.0,0.5297,0.5297,0.0,0.0,0.0,0.5297,0.5297,0.0,0.5506,0.5531,0.5309,0.551,0.5604,0.5604,0.5604,0.5689,0.5868,0.5401,0.5085,0.4962,0.4191,0.3633,0.3357,0.3026,0.2856,0.2832,0.2913,0.2939,0.2838,0.2918,0.2755,0.2357,0.2221,0.2221,0.2221,0.2221,0.2421,0.2753,0.3092,0.3285,0.3319,0.3046,0.272,0.2202,0.1477,0.0626,-0.0157,-0.0785,-0.1257,-0.165,-0.1887,-0.1887,-0.1887,-0.1887,-0.1887,-0.1887,-0.1887,-0.1887,-0.1964,-0.2196,-0.2196,-0.2275,-0.2431,-0.2511,-0.2511,-0.2511,-0.2511,-0.2511,-0.2511,-0.2511,-0.2511,-0.2511,-0.2511,-0.2511,-0.2511,-0.2511,-0.2511,-0.2511,-0.2511,-0.2511,-0.2511,-0.2511,-0.2511,-0.2511,-0.2511,-0.2511,-0.2511,-0.2511,-0.2511,-0.2511,-0.2511,-0.2511,0.0,0.0,0.6325,0.536,0.0,0.0,0.0,0.0,0.0,0.0,0.0,0.0,0.0,0.0,0.0,0.0,0.0,0.0,0.0,0.0,0.5183,0.5297,0.5297,0.5297,0.0,0.0,0.5345,0.5515,0.5579,0.0,0.5527,0.5579,0.5612,0.5612,0.5612,0.5701,0.5888,0.5588,0.5385,0.527,0.465,0.4245,0.3916,0.3469,0.3232,0.3218,0.3064,0.304,0.3049,0.3147,0.3025,0.2757,0.2621,0.2583,0.2556,0.2486,0.2623,0.2837,0.3244,0.3465,0.3475,0.3236,0.3291,0.3186,0.2347,0.1255,0.0157,-0.0393,-0.11,-0.165,-0.165,-0.1808,-0.1887,-0.1887,-0.1887,-0.1887,-0.1887,-0.1887,-0.1886,-0.1963,-0.2119,-0.2196,-0.2275,-0.2431,-0.2511,-0.2511,-0.2511,-0.2511,-0.2511,-0.2511,-0.2511,-0.2511,-0.2511,-0.2511,-0.2511,-0.2511,-0.2511,-0.2511,-0.2511,-0.2511,-0.2511,-0.2511,-0.2511,-0.2511,-0.2511,-0.2511,-0.2511,-0.2511,-0.2511,-0.2511,-0.2511,-0.2511,0.741,0.6772,0.0,0.5287,0.4936,0.0,0.4609,0.0,0.4376,0.0,0.0,0.0,0.0,0.0,0.0,0.0,0.0,0.0,0.0,0.4849,0.0,0.5128,0.5242,0.5297,0.5297,0.5353,0.5434,0.5604,0.573,0.0,0.0,0.5673,0.5709,0.5709,0.5709,0.5827,0.6075,0.5892,0.5743,0.5688,0.5165,0.4798,0.4512,0.3938,0.3639,0.3566,0.3252,0.3153,0.3226,0.3226,0.3092,0.296,0.2852,0.2826,0.28,0.2729,0.2817,0.3066,0.3441,0.3581,0.3557,0.3514,0.3643,0.3612,0.2746,0.1658,0.0556,-0.008,-0.0875,-0.1512,-0.1512,-0.1582,-0.165,-0.165,-0.165,-0.165,-0.165,-0.165,-0.1729,-0.1807,-0.1885,-0.2041,-0.2119,-0.2199,-0.2354,-0.251,-0.2511,-0.2511,-0.2511,-0.2511,-0.2511,-0.2511,-0.2511,-0.2511,-0.2511,-0.2511,-0.2511,-0.2511,-0.2511,-0.2511,-0.2511,-0.2511,-0.2511,-0.2511,-0.2511,-0.2511,-0.2511,-0.2511,-0.2511,-0.2511,-0.2511,-0.2511]}]]